<?xml version="1.0" encoding="UTF-8" standalone="no" ?>
<gpx xmlns="http://www.topografix.com/GPX/1/1" xmlns:xsi="http://www.w3.org/2001/XMLSchema-instance" xsi:schemaLocation="http://www.topografix.com/GPX/1/1 http://www.topografix.com/GPX/1/1/gpx.xsd" version="1.1" creator="VisuGPX - https://www.visugpx.com">
  <metadata>
    <name>20260901-blainville-crevon</name>
    <desc><![CDATA[Boucle A-R au départ de l'Eglise]]></desc>
  </metadata>
  <trk>
    <name><![CDATA[SityTrail - 20260901-blainville-crevon]]></name>
    <desc><![CDATA[Boucle A-R au départ de l'Eglise]]></desc>
    <trkseg>
      <trkpt lat="49.50435" lon="1.29769">
        <ele>102</ele>
        <time>2026-09-01T11:48:13.108Z</time>
      </trkpt>
      <trkpt lat="49.50438" lon="1.29768">
        <ele>102</ele>
        <time>2026-09-01T11:56:34.115Z</time>
      </trkpt>
      <trkpt lat="49.50437" lon="1.29765">
        <ele>102</ele>
        <time>2026-09-01T11:56:39.125Z</time>
      </trkpt>
      <trkpt lat="49.50435" lon="1.29762">
        <ele>104</ele>
        <time>2026-09-01T11:56:44.122Z</time>
      </trkpt>
      <trkpt lat="49.50433" lon="1.29757">
        <ele>104</ele>
        <time>2026-09-01T11:56:49.118Z</time>
      </trkpt>
      <trkpt lat="49.50429" lon="1.29752">
        <ele>102</ele>
        <time>2026-09-01T11:56:53.978Z</time>
      </trkpt>
      <trkpt lat="49.50424" lon="1.29751">
        <ele>102</ele>
        <time>2026-09-01T11:56:58.238Z</time>
      </trkpt>
      <trkpt lat="49.5042" lon="1.29756">
        <ele>102</ele>
        <time>2026-09-01T11:57:02.517Z</time>
      </trkpt>
      <trkpt lat="49.50416" lon="1.29761">
        <ele>102</ele>
        <time>2026-09-01T11:57:06.657Z</time>
      </trkpt>
      <trkpt lat="49.50412" lon="1.29766">
        <ele>101</ele>
        <time>2026-09-01T11:57:10.877Z</time>
      </trkpt>
      <trkpt lat="49.50409" lon="1.2977">
        <ele>101</ele>
        <time>2026-09-01T11:57:15.117Z</time>
      </trkpt>
      <trkpt lat="49.50405" lon="1.29774">
        <ele>101</ele>
        <time>2026-09-01T11:57:19.515Z</time>
      </trkpt>
      <trkpt lat="49.50401" lon="1.29776">
        <ele>101</ele>
        <time>2026-09-01T11:57:23.963Z</time>
      </trkpt>
      <trkpt lat="49.50397" lon="1.29778">
        <ele>101</ele>
        <time>2026-09-01T11:57:28.322Z</time>
      </trkpt>
      <trkpt lat="49.50393" lon="1.29781">
        <ele>101</ele>
        <time>2026-09-01T11:57:32.621Z</time>
      </trkpt>
      <trkpt lat="49.50389" lon="1.29785">
        <ele>101</ele>
        <time>2026-09-01T11:57:36.880Z</time>
      </trkpt>
      <trkpt lat="49.50385" lon="1.2979">
        <ele>101</ele>
        <time>2026-09-01T11:57:41.110Z</time>
      </trkpt>
      <trkpt lat="49.5038" lon="1.29793">
        <ele>100</ele>
        <time>2026-09-01T11:57:45.895Z</time>
      </trkpt>
      <trkpt lat="49.50376" lon="1.29797">
        <ele>100</ele>
        <time>2026-09-01T11:57:50.055Z</time>
      </trkpt>
      <trkpt lat="49.50372" lon="1.29803">
        <ele>101</ele>
        <time>2026-09-01T11:57:54.076Z</time>
      </trkpt>
      <trkpt lat="49.50369" lon="1.29809">
        <ele>101</ele>
        <time>2026-09-01T11:57:58.376Z</time>
      </trkpt>
      <trkpt lat="49.50365" lon="1.29815">
        <ele>101</ele>
        <time>2026-09-01T11:58:03.042Z</time>
      </trkpt>
      <trkpt lat="49.50361" lon="1.29821">
        <ele>100</ele>
        <time>2026-09-01T11:58:07.560Z</time>
      </trkpt>
      <trkpt lat="49.50358" lon="1.29828">
        <ele>100</ele>
        <time>2026-09-01T11:58:12.117Z</time>
      </trkpt>
      <trkpt lat="49.50355" lon="1.29834">
        <ele>100</ele>
        <time>2026-09-01T11:58:16.237Z</time>
      </trkpt>
      <trkpt lat="49.50352" lon="1.2984">
        <ele>100</ele>
        <time>2026-09-01T11:58:20.437Z</time>
      </trkpt>
      <trkpt lat="49.50348" lon="1.29846">
        <ele>100</ele>
        <time>2026-09-01T11:58:25.044Z</time>
      </trkpt>
      <trkpt lat="49.50345" lon="1.29852">
        <ele>101</ele>
        <time>2026-09-01T11:58:29.661Z</time>
      </trkpt>
      <trkpt lat="49.50341" lon="1.29857">
        <ele>101</ele>
        <time>2026-09-01T11:58:33.900Z</time>
      </trkpt>
      <trkpt lat="49.5034" lon="1.29862">
        <ele>101</ele>
        <time>2026-09-01T11:58:37.921Z</time>
      </trkpt>
      <trkpt lat="49.50335" lon="1.29868">
        <ele>101</ele>
        <time>2026-09-01T11:58:42.499Z</time>
      </trkpt>
      <trkpt lat="49.50332" lon="1.29873">
        <ele>101</ele>
        <time>2026-09-01T11:58:46.559Z</time>
      </trkpt>
      <trkpt lat="49.50328" lon="1.29877">
        <ele>100</ele>
        <time>2026-09-01T11:58:50.600Z</time>
      </trkpt>
      <trkpt lat="49.50325" lon="1.29883">
        <ele>100</ele>
        <time>2026-09-01T11:58:54.681Z</time>
      </trkpt>
      <trkpt lat="49.50322" lon="1.29889">
        <ele>100</ele>
        <time>2026-09-01T11:58:59.114Z</time>
      </trkpt>
      <trkpt lat="49.5032" lon="1.29896">
        <ele>100</ele>
        <time>2026-09-01T11:59:03.339Z</time>
      </trkpt>
      <trkpt lat="49.50323" lon="1.29902">
        <ele>100</ele>
        <time>2026-09-01T11:59:07.678Z</time>
      </trkpt>
      <trkpt lat="49.50326" lon="1.29909">
        <ele>100</ele>
        <time>2026-09-01T11:59:12.113Z</time>
      </trkpt>
      <trkpt lat="49.50329" lon="1.29915">
        <ele>100</ele>
        <time>2026-09-01T11:59:16.524Z</time>
      </trkpt>
      <trkpt lat="49.50333" lon="1.2992">
        <ele>100</ele>
        <time>2026-09-01T11:59:20.664Z</time>
      </trkpt>
      <trkpt lat="49.50336" lon="1.29923">
        <ele>100</ele>
        <time>2026-09-01T11:59:24.884Z</time>
      </trkpt>
      <trkpt lat="49.5034" lon="1.29928">
        <ele>100</ele>
        <time>2026-09-01T11:59:28.895Z</time>
      </trkpt>
      <trkpt lat="49.50343" lon="1.29936">
        <ele>99</ele>
        <time>2026-09-01T11:59:33.542Z</time>
      </trkpt>
      <trkpt lat="49.50346" lon="1.29941">
        <ele>99</ele>
        <time>2026-09-01T11:59:37.662Z</time>
      </trkpt>
      <trkpt lat="49.50349" lon="1.29947">
        <ele>99</ele>
        <time>2026-09-01T11:59:41.823Z</time>
      </trkpt>
      <trkpt lat="49.5035" lon="1.29955">
        <ele>99</ele>
        <time>2026-09-01T11:59:46.320Z</time>
      </trkpt>
      <trkpt lat="49.50354" lon="1.2996">
        <ele>98</ele>
        <time>2026-09-01T11:59:50.897Z</time>
      </trkpt>
      <trkpt lat="49.50358" lon="1.29965">
        <ele>98</ele>
        <time>2026-09-01T11:59:55.524Z</time>
      </trkpt>
      <trkpt lat="49.50362" lon="1.2997">
        <ele>98</ele>
        <time>2026-09-01T12:00:00.081Z</time>
      </trkpt>
      <trkpt lat="49.50366" lon="1.29972">
        <ele>98</ele>
        <time>2026-09-01T12:00:04.083Z</time>
      </trkpt>
      <trkpt lat="49.5037" lon="1.29974">
        <ele>98</ele>
        <time>2026-09-01T12:00:08.322Z</time>
      </trkpt>
      <trkpt lat="49.50373" lon="1.2998">
        <ele>98</ele>
        <time>2026-09-01T12:00:12.979Z</time>
      </trkpt>
      <trkpt lat="49.50378" lon="1.29985">
        <ele>97</ele>
        <time>2026-09-01T12:00:17.020Z</time>
      </trkpt>
      <trkpt lat="49.50381" lon="1.29991">
        <ele>96</ele>
        <time>2026-09-01T12:00:21.113Z</time>
      </trkpt>
      <trkpt lat="49.50383" lon="1.29999">
        <ele>96</ele>
        <time>2026-09-01T12:00:25.102Z</time>
      </trkpt>
      <trkpt lat="49.50384" lon="1.30008">
        <ele>96</ele>
        <time>2026-09-01T12:00:29.719Z</time>
      </trkpt>
      <trkpt lat="49.50385" lon="1.30016">
        <ele>96</ele>
        <time>2026-09-01T12:00:33.839Z</time>
      </trkpt>
      <trkpt lat="49.50387" lon="1.30025">
        <ele>96</ele>
        <time>2026-09-01T12:00:38.436Z</time>
      </trkpt>
      <trkpt lat="49.50388" lon="1.30032">
        <ele>96</ele>
        <time>2026-09-01T12:00:42.477Z</time>
      </trkpt>
      <trkpt lat="49.50387" lon="1.30039">
        <ele>96</ele>
        <time>2026-09-01T12:00:46.538Z</time>
      </trkpt>
      <trkpt lat="49.50385" lon="1.30047">
        <ele>95</ele>
        <time>2026-09-01T12:00:51.113Z</time>
      </trkpt>
      <trkpt lat="49.50386" lon="1.30053">
        <ele>95</ele>
        <time>2026-09-01T12:00:55.315Z</time>
      </trkpt>
      <trkpt lat="49.50388" lon="1.30057">
        <ele>95</ele>
        <time>2026-09-01T12:00:59.396Z</time>
      </trkpt>
      <trkpt lat="49.50385" lon="1.30064">
        <ele>95</ele>
        <time>2026-09-01T12:01:03.397Z</time>
      </trkpt>
      <trkpt lat="49.50381" lon="1.30071">
        <ele>95</ele>
        <time>2026-09-01T12:01:07.458Z</time>
      </trkpt>
      <trkpt lat="49.50378" lon="1.30079">
        <ele>95</ele>
        <time>2026-09-01T12:01:11.538Z</time>
      </trkpt>
      <trkpt lat="49.50377" lon="1.30087">
        <ele>95</ele>
        <time>2026-09-01T12:01:15.758Z</time>
      </trkpt>
      <trkpt lat="49.50374" lon="1.30095">
        <ele>96</ele>
        <time>2026-09-01T12:01:20.335Z</time>
      </trkpt>
      <trkpt lat="49.50372" lon="1.30102">
        <ele>95</ele>
        <time>2026-09-01T12:01:24.555Z</time>
      </trkpt>
      <trkpt lat="49.50373" lon="1.30109">
        <ele>95</ele>
        <time>2026-09-01T12:01:29.023Z</time>
      </trkpt>
      <trkpt lat="49.50372" lon="1.30116">
        <ele>95</ele>
        <time>2026-09-01T12:01:33.084Z</time>
      </trkpt>
      <trkpt lat="49.50372" lon="1.30122">
        <ele>95</ele>
        <time>2026-09-01T12:01:37.244Z</time>
      </trkpt>
      <trkpt lat="49.50373" lon="1.3013">
        <ele>94</ele>
        <time>2026-09-01T12:01:41.444Z</time>
      </trkpt>
      <trkpt lat="49.50373" lon="1.30137">
        <ele>94</ele>
        <time>2026-09-01T12:01:45.504Z</time>
      </trkpt>
      <trkpt lat="49.50372" lon="1.30145">
        <ele>94</ele>
        <time>2026-09-01T12:01:49.724Z</time>
      </trkpt>
      <trkpt lat="49.50371" lon="1.30154">
        <ele>94</ele>
        <time>2026-09-01T12:01:54.381Z</time>
      </trkpt>
      <trkpt lat="49.50371" lon="1.30161">
        <ele>94</ele>
        <time>2026-09-01T12:01:58.958Z</time>
      </trkpt>
      <trkpt lat="49.50369" lon="1.30173">
        <ele>94</ele>
        <time>2026-09-01T12:02:03.555Z</time>
      </trkpt>
      <trkpt lat="49.50367" lon="1.30183">
        <ele>94</ele>
        <time>2026-09-01T12:02:08.107Z</time>
      </trkpt>
      <trkpt lat="49.50367" lon="1.30192">
        <ele>94</ele>
        <time>2026-09-01T12:02:12.163Z</time>
      </trkpt>
      <trkpt lat="49.50367" lon="1.302">
        <ele>94</ele>
        <time>2026-09-01T12:02:16.502Z</time>
      </trkpt>
      <trkpt lat="49.50366" lon="1.30208">
        <ele>94</ele>
        <time>2026-09-01T12:02:20.523Z</time>
      </trkpt>
      <trkpt lat="49.50366" lon="1.30215">
        <ele>95</ele>
        <time>2026-09-01T12:02:24.683Z</time>
      </trkpt>
      <trkpt lat="49.50367" lon="1.30222">
        <ele>95</ele>
        <time>2026-09-01T12:02:29.111Z</time>
      </trkpt>
      <trkpt lat="49.50365" lon="1.30232">
        <ele>95</ele>
        <time>2026-09-01T12:02:33.738Z</time>
      </trkpt>
      <trkpt lat="49.50364" lon="1.30241">
        <ele>96</ele>
        <time>2026-09-01T12:02:38.355Z</time>
      </trkpt>
      <trkpt lat="49.50362" lon="1.3025">
        <ele>96</ele>
        <time>2026-09-01T12:02:42.803Z</time>
      </trkpt>
      <trkpt lat="49.50359" lon="1.30256">
        <ele>96</ele>
        <time>2026-09-01T12:02:46.884Z</time>
      </trkpt>
      <trkpt lat="49.50357" lon="1.30263">
        <ele>96</ele>
        <time>2026-09-01T12:02:51.044Z</time>
      </trkpt>
      <trkpt lat="49.50355" lon="1.30267">
        <ele>97</ele>
        <time>2026-09-01T12:02:55.075Z</time>
      </trkpt>
      <trkpt lat="49.50353" lon="1.30272">
        <ele>97</ele>
        <time>2026-09-01T12:02:59.364Z</time>
      </trkpt>
      <trkpt lat="49.50352" lon="1.30278">
        <ele>97</ele>
        <time>2026-09-01T12:03:03.604Z</time>
      </trkpt>
      <trkpt lat="49.50352" lon="1.30283">
        <ele>97</ele>
        <time>2026-09-01T12:03:08.022Z</time>
      </trkpt>
      <trkpt lat="49.50352" lon="1.30289">
        <ele>97</ele>
        <time>2026-09-01T12:03:12.063Z</time>
      </trkpt>
      <trkpt lat="49.5035" lon="1.30296">
        <ele>99</ele>
        <time>2026-09-01T12:03:16.113Z</time>
      </trkpt>
      <trkpt lat="49.50347" lon="1.30304">
        <ele>99</ele>
        <time>2026-09-01T12:03:21.098Z</time>
      </trkpt>
      <trkpt lat="49.50345" lon="1.30308">
        <ele>96</ele>
        <time>2026-09-01T12:03:25.358Z</time>
      </trkpt>
      <trkpt lat="49.50343" lon="1.30314">
        <ele>96</ele>
        <time>2026-09-01T12:03:29.677Z</time>
      </trkpt>
      <trkpt lat="49.50341" lon="1.30321">
        <ele>99</ele>
        <time>2026-09-01T12:03:33.857Z</time>
      </trkpt>
      <trkpt lat="49.5034" lon="1.30328">
        <ele>99</ele>
        <time>2026-09-01T12:03:38.107Z</time>
      </trkpt>
      <trkpt lat="49.50339" lon="1.30335">
        <ele>99</ele>
        <time>2026-09-01T12:03:42.157Z</time>
      </trkpt>
      <trkpt lat="49.50337" lon="1.30341">
        <ele>99</ele>
        <time>2026-09-01T12:03:46.436Z</time>
      </trkpt>
      <trkpt lat="49.50334" lon="1.30347">
        <ele>99</ele>
        <time>2026-09-01T12:03:50.636Z</time>
      </trkpt>
      <trkpt lat="49.50332" lon="1.30354">
        <ele>101</ele>
        <time>2026-09-01T12:03:55.104Z</time>
      </trkpt>
      <trkpt lat="49.50329" lon="1.3036">
        <ele>101</ele>
        <time>2026-09-01T12:03:59.423Z</time>
      </trkpt>
      <trkpt lat="49.50326" lon="1.30367">
        <ele>101</ele>
        <time>2026-09-01T12:04:03.822Z</time>
      </trkpt>
      <trkpt lat="49.50324" lon="1.30373">
        <ele>101</ele>
        <time>2026-09-01T12:04:07.942Z</time>
      </trkpt>
      <trkpt lat="49.50322" lon="1.3038">
        <ele>102</ele>
        <time>2026-09-01T12:04:12.105Z</time>
      </trkpt>
      <trkpt lat="49.50322" lon="1.30385">
        <ele>102</ele>
        <time>2026-09-01T12:04:16.109Z</time>
      </trkpt>
      <trkpt lat="49.50322" lon="1.30391">
        <ele>102</ele>
        <time>2026-09-01T12:04:20.383Z</time>
      </trkpt>
      <trkpt lat="49.50323" lon="1.30399">
        <ele>102</ele>
        <time>2026-09-01T12:04:24.543Z</time>
      </trkpt>
      <trkpt lat="49.50323" lon="1.30408">
        <ele>101</ele>
        <time>2026-09-01T12:04:28.882Z</time>
      </trkpt>
      <trkpt lat="49.50325" lon="1.30414">
        <ele>101</ele>
        <time>2026-09-01T12:04:33.002Z</time>
      </trkpt>
      <trkpt lat="49.50329" lon="1.3042">
        <ele>101</ele>
        <time>2026-09-01T12:04:37.441Z</time>
      </trkpt>
      <trkpt lat="49.50331" lon="1.30425">
        <ele>101</ele>
        <time>2026-09-01T12:04:41.839Z</time>
      </trkpt>
      <trkpt lat="49.50335" lon="1.3043">
        <ele>101</ele>
        <time>2026-09-01T12:04:46.059Z</time>
      </trkpt>
      <trkpt lat="49.50339" lon="1.30434">
        <ele>100</ele>
        <time>2026-09-01T12:04:50.219Z</time>
      </trkpt>
      <trkpt lat="49.50343" lon="1.30438">
        <ele>100</ele>
        <time>2026-09-01T12:04:54.677Z</time>
      </trkpt>
      <trkpt lat="49.50346" lon="1.30444">
        <ele>100</ele>
        <time>2026-09-01T12:04:58.937Z</time>
      </trkpt>
      <trkpt lat="49.50348" lon="1.30449">
        <ele>102</ele>
        <time>2026-09-01T12:05:03.115Z</time>
      </trkpt>
      <trkpt lat="49.5035" lon="1.30455">
        <ele>102</ele>
        <time>2026-09-01T12:05:07.114Z</time>
      </trkpt>
      <trkpt lat="49.50351" lon="1.30462">
        <ele>102</ele>
        <time>2026-09-01T12:05:11.377Z</time>
      </trkpt>
      <trkpt lat="49.50355" lon="1.30466">
        <ele>102</ele>
        <time>2026-09-01T12:05:15.538Z</time>
      </trkpt>
      <trkpt lat="49.50358" lon="1.30471">
        <ele>102</ele>
        <time>2026-09-01T12:05:19.658Z</time>
      </trkpt>
      <trkpt lat="49.50362" lon="1.30475">
        <ele>102</ele>
        <time>2026-09-01T12:05:23.878Z</time>
      </trkpt>
      <trkpt lat="49.50366" lon="1.30479">
        <ele>102</ele>
        <time>2026-09-01T12:05:28.038Z</time>
      </trkpt>
      <trkpt lat="49.5037" lon="1.30482">
        <ele>102</ele>
        <time>2026-09-01T12:05:32.108Z</time>
      </trkpt>
      <trkpt lat="49.50375" lon="1.30485">
        <ele>104</ele>
        <time>2026-09-01T12:05:36.696Z</time>
      </trkpt>
      <trkpt lat="49.5038" lon="1.30486">
        <ele>104</ele>
        <time>2026-09-01T12:05:40.955Z</time>
      </trkpt>
      <trkpt lat="49.50385" lon="1.30488">
        <ele>104</ele>
        <time>2026-09-01T12:05:45.443Z</time>
      </trkpt>
      <trkpt lat="49.50395" lon="1.30479">
        <ele>104</ele>
        <time>2026-09-01T12:06:56.103Z</time>
      </trkpt>
      <trkpt lat="49.50395" lon="1.30479">
        <ele>104</ele>
        <time>2026-09-01T12:07:00.113Z</time>
      </trkpt>
      <trkpt lat="49.50395" lon="1.30479">
        <ele>104</ele>
        <time>2026-09-01T12:07:06.106Z</time>
      </trkpt>
      <trkpt lat="49.50395" lon="1.30478">
        <ele>104</ele>
        <time>2026-09-01T12:07:10.110Z</time>
      </trkpt>
      <trkpt lat="49.50396" lon="1.30478">
        <ele>104</ele>
        <time>2026-09-01T12:07:15.113Z</time>
      </trkpt>
      <trkpt lat="49.50396" lon="1.30479">
        <ele>104</ele>
        <time>2026-09-01T12:07:20.113Z</time>
      </trkpt>
      <trkpt lat="49.504" lon="1.3048">
        <ele>104</ele>
        <time>2026-09-01T12:07:25.123Z</time>
      </trkpt>
      <trkpt lat="49.50403" lon="1.30479">
        <ele>104</ele>
        <time>2026-09-01T12:07:30.105Z</time>
      </trkpt>
      <trkpt lat="49.50407" lon="1.30481">
        <ele>109</ele>
        <time>2026-09-01T12:07:34.111Z</time>
      </trkpt>
      <trkpt lat="49.50411" lon="1.30481">
        <ele>109</ele>
        <time>2026-09-01T12:07:38.117Z</time>
      </trkpt>
      <trkpt lat="49.50416" lon="1.30485">
        <ele>109</ele>
        <time>2026-09-01T12:07:43.115Z</time>
      </trkpt>
      <trkpt lat="49.50421" lon="1.30489">
        <ele>108</ele>
        <time>2026-09-01T12:07:48.111Z</time>
      </trkpt>
      <trkpt lat="49.50426" lon="1.30492">
        <ele>108</ele>
        <time>2026-09-01T12:07:52.112Z</time>
      </trkpt>
      <trkpt lat="49.5043" lon="1.30495">
        <ele>108</ele>
        <time>2026-09-01T12:07:56.124Z</time>
      </trkpt>
      <trkpt lat="49.50433" lon="1.30503">
        <ele>113</ele>
        <time>2026-09-01T12:08:01.115Z</time>
      </trkpt>
      <trkpt lat="49.50437" lon="1.30508">
        <ele>113</ele>
        <time>2026-09-01T12:08:06.112Z</time>
      </trkpt>
      <trkpt lat="49.50442" lon="1.30512">
        <ele>113</ele>
        <time>2026-09-01T12:08:11.117Z</time>
      </trkpt>
      <trkpt lat="49.50441" lon="1.30512">
        <ele>113</ele>
        <time>2026-09-01T12:08:15.119Z</time>
      </trkpt>
      <trkpt lat="49.5044" lon="1.30519">
        <ele>113</ele>
        <time>2026-09-01T12:08:19.917Z</time>
      </trkpt>
      <trkpt lat="49.50443" lon="1.30528">
        <ele>113</ele>
        <time>2026-09-01T12:08:24.097Z</time>
      </trkpt>
      <trkpt lat="49.50445" lon="1.30536">
        <ele>113</ele>
        <time>2026-09-01T12:08:28.198Z</time>
      </trkpt>
      <trkpt lat="49.50446" lon="1.30543">
        <ele>113</ele>
        <time>2026-09-01T12:08:32.378Z</time>
      </trkpt>
      <trkpt lat="49.50446" lon="1.30551">
        <ele>113</ele>
        <time>2026-09-01T12:08:36.419Z</time>
      </trkpt>
      <trkpt lat="49.50447" lon="1.30559">
        <ele>113</ele>
        <time>2026-09-01T12:08:40.659Z</time>
      </trkpt>
      <trkpt lat="49.50449" lon="1.30567">
        <ele>113</ele>
        <time>2026-09-01T12:08:45.112Z</time>
      </trkpt>
      <trkpt lat="49.50452" lon="1.30572">
        <ele>112</ele>
        <time>2026-09-01T12:08:49.114Z</time>
      </trkpt>
      <trkpt lat="49.50454" lon="1.30578">
        <ele>112</ele>
        <time>2026-09-01T12:08:53.656Z</time>
      </trkpt>
      <trkpt lat="49.50455" lon="1.30587">
        <ele>112</ele>
        <time>2026-09-01T12:08:57.697Z</time>
      </trkpt>
      <trkpt lat="49.50456" lon="1.30597">
        <ele>112</ele>
        <time>2026-09-01T12:09:02.112Z</time>
      </trkpt>
      <trkpt lat="49.50458" lon="1.30605">
        <ele>111</ele>
        <time>2026-09-01T12:09:06.663Z</time>
      </trkpt>
      <trkpt lat="49.50459" lon="1.30613">
        <ele>114</ele>
        <time>2026-09-01T12:09:11.114Z</time>
      </trkpt>
      <trkpt lat="49.5046" lon="1.30621">
        <ele>114</ele>
        <time>2026-09-01T12:09:15.698Z</time>
      </trkpt>
      <trkpt lat="49.50461" lon="1.30628">
        <ele>113</ele>
        <time>2026-09-01T12:09:19.739Z</time>
      </trkpt>
      <trkpt lat="49.50462" lon="1.30636">
        <ele>113</ele>
        <time>2026-09-01T12:09:23.880Z</time>
      </trkpt>
      <trkpt lat="49.50461" lon="1.30645">
        <ele>113</ele>
        <time>2026-09-01T12:09:28.556Z</time>
      </trkpt>
      <trkpt lat="49.50463" lon="1.30652">
        <ele>113</ele>
        <time>2026-09-01T12:09:33.124Z</time>
      </trkpt>
      <trkpt lat="49.50466" lon="1.3066">
        <ele>113</ele>
        <time>2026-09-01T12:09:37.780Z</time>
      </trkpt>
      <trkpt lat="49.50466" lon="1.30668">
        <ele>113</ele>
        <time>2026-09-01T12:09:41.822Z</time>
      </trkpt>
      <trkpt lat="49.50466" lon="1.30677">
        <ele>113</ele>
        <time>2026-09-01T12:09:46.002Z</time>
      </trkpt>
      <trkpt lat="49.50464" lon="1.30685">
        <ele>112</ele>
        <time>2026-09-01T12:09:50.579Z</time>
      </trkpt>
      <trkpt lat="49.50464" lon="1.30692">
        <ele>112</ele>
        <time>2026-09-01T12:09:54.660Z</time>
      </trkpt>
      <trkpt lat="49.50466" lon="1.307">
        <ele>112</ele>
        <time>2026-09-01T12:09:58.800Z</time>
      </trkpt>
      <trkpt lat="49.50469" lon="1.30708">
        <ele>112</ele>
        <time>2026-09-01T12:10:03.110Z</time>
      </trkpt>
      <trkpt lat="49.50472" lon="1.30714">
        <ele>112</ele>
        <time>2026-09-01T12:10:07.260Z</time>
      </trkpt>
      <trkpt lat="49.50474" lon="1.30723">
        <ele>112</ele>
        <time>2026-09-01T12:10:11.499Z</time>
      </trkpt>
      <trkpt lat="49.50476" lon="1.30731">
        <ele>112</ele>
        <time>2026-09-01T12:10:16.112Z</time>
      </trkpt>
      <trkpt lat="49.50478" lon="1.30739">
        <ele>110</ele>
        <time>2026-09-01T12:10:20.823Z</time>
      </trkpt>
      <trkpt lat="49.50479" lon="1.30746">
        <ele>110</ele>
        <time>2026-09-01T12:10:25.110Z</time>
      </trkpt>
      <trkpt lat="49.50479" lon="1.30756">
        <ele>110</ele>
        <time>2026-09-01T12:10:29.282Z</time>
      </trkpt>
      <trkpt lat="49.50481" lon="1.30766">
        <ele>109</ele>
        <time>2026-09-01T12:10:33.562Z</time>
      </trkpt>
      <trkpt lat="49.50484" lon="1.30773">
        <ele>109</ele>
        <time>2026-09-01T12:10:38.106Z</time>
      </trkpt>
      <trkpt lat="49.50486" lon="1.30779">
        <ele>109</ele>
        <time>2026-09-01T12:10:42.180Z</time>
      </trkpt>
      <trkpt lat="49.50488" lon="1.30786">
        <ele>113</ele>
        <time>2026-09-01T12:10:46.777Z</time>
      </trkpt>
      <trkpt lat="49.5049" lon="1.30793">
        <ele>113</ele>
        <time>2026-09-01T12:10:50.878Z</time>
      </trkpt>
      <trkpt lat="49.50488" lon="1.308">
        <ele>113</ele>
        <time>2026-09-01T12:10:54.899Z</time>
      </trkpt>
      <trkpt lat="49.50487" lon="1.30809">
        <ele>113</ele>
        <time>2026-09-01T12:10:59.099Z</time>
      </trkpt>
      <trkpt lat="49.50487" lon="1.30817">
        <ele>113</ele>
        <time>2026-09-01T12:11:03.657Z</time>
      </trkpt>
      <trkpt lat="49.50485" lon="1.30822">
        <ele>107</ele>
        <time>2026-09-01T12:11:07.857Z</time>
      </trkpt>
      <trkpt lat="49.50484" lon="1.30826">
        <ele>107</ele>
        <time>2026-09-01T12:11:12.110Z</time>
      </trkpt>
      <trkpt lat="49.5048" lon="1.30832">
        <ele>107</ele>
        <time>2026-09-01T12:11:16.545Z</time>
      </trkpt>
      <trkpt lat="49.50476" lon="1.30837">
        <ele>107</ele>
        <time>2026-09-01T12:11:21.042Z</time>
      </trkpt>
      <trkpt lat="49.50472" lon="1.30841">
        <ele>107</ele>
        <time>2026-09-01T12:11:25.362Z</time>
      </trkpt>
      <trkpt lat="49.50468" lon="1.30846">
        <ele>107</ele>
        <time>2026-09-01T12:11:29.840Z</time>
      </trkpt>
      <trkpt lat="49.50464" lon="1.30853">
        <ele>106</ele>
        <time>2026-09-01T12:11:34.318Z</time>
      </trkpt>
      <trkpt lat="49.50463" lon="1.3086">
        <ele>106</ele>
        <time>2026-09-01T12:11:38.359Z</time>
      </trkpt>
      <trkpt lat="49.50463" lon="1.30867">
        <ele>106</ele>
        <time>2026-09-01T12:11:42.718Z</time>
      </trkpt>
      <trkpt lat="49.50465" lon="1.30873">
        <ele>106</ele>
        <time>2026-09-01T12:11:46.898Z</time>
      </trkpt>
      <trkpt lat="49.50464" lon="1.3088">
        <ele>106</ele>
        <time>2026-09-01T12:11:51.114Z</time>
      </trkpt>
      <trkpt lat="49.50464" lon="1.30887">
        <ele>106</ele>
        <time>2026-09-01T12:11:55.258Z</time>
      </trkpt>
      <trkpt lat="49.50463" lon="1.30894">
        <ele>106</ele>
        <time>2026-09-01T12:11:59.458Z</time>
      </trkpt>
      <trkpt lat="49.50462" lon="1.30901">
        <ele>106</ele>
        <time>2026-09-01T12:12:03.578Z</time>
      </trkpt>
      <trkpt lat="49.50462" lon="1.30908">
        <ele>106</ele>
        <time>2026-09-01T12:12:07.639Z</time>
      </trkpt>
      <trkpt lat="49.50463" lon="1.30914">
        <ele>106</ele>
        <time>2026-09-01T12:12:11.700Z</time>
      </trkpt>
      <trkpt lat="49.50465" lon="1.30921">
        <ele>106</ele>
        <time>2026-09-01T12:12:15.801Z</time>
      </trkpt>
      <trkpt lat="49.50464" lon="1.3093">
        <ele>106</ele>
        <time>2026-09-01T12:12:20.497Z</time>
      </trkpt>
      <trkpt lat="49.50464" lon="1.30938">
        <ele>106</ele>
        <time>2026-09-01T12:12:25.110Z</time>
      </trkpt>
      <trkpt lat="49.50461" lon="1.30946">
        <ele>106</ele>
        <time>2026-09-01T12:12:29.305Z</time>
      </trkpt>
      <trkpt lat="49.50459" lon="1.30954">
        <ele>106</ele>
        <time>2026-09-01T12:12:33.356Z</time>
      </trkpt>
      <trkpt lat="49.50459" lon="1.3096">
        <ele>106</ele>
        <time>2026-09-01T12:12:37.655Z</time>
      </trkpt>
      <trkpt lat="49.50457" lon="1.30967">
        <ele>103</ele>
        <time>2026-09-01T12:12:41.885Z</time>
      </trkpt>
      <trkpt lat="49.50456" lon="1.30974">
        <ele>103</ele>
        <time>2026-09-01T12:12:45.896Z</time>
      </trkpt>
      <trkpt lat="49.50455" lon="1.30982">
        <ele>103</ele>
        <time>2026-09-01T12:12:50.110Z</time>
      </trkpt>
      <trkpt lat="49.50454" lon="1.3099">
        <ele>103</ele>
        <time>2026-09-01T12:12:54.484Z</time>
      </trkpt>
      <trkpt lat="49.50454" lon="1.30997">
        <ele>103</ele>
        <time>2026-09-01T12:12:58.863Z</time>
      </trkpt>
      <trkpt lat="49.50453" lon="1.31003">
        <ele>103</ele>
        <time>2026-09-01T12:13:02.944Z</time>
      </trkpt>
      <trkpt lat="49.50452" lon="1.3101">
        <ele>103</ele>
        <time>2026-09-01T12:13:07.108Z</time>
      </trkpt>
      <trkpt lat="49.50449" lon="1.31017">
        <ele>104</ele>
        <time>2026-09-01T12:13:11.443Z</time>
      </trkpt>
      <trkpt lat="49.50447" lon="1.31024">
        <ele>104</ele>
        <time>2026-09-01T12:13:15.822Z</time>
      </trkpt>
      <trkpt lat="49.50444" lon="1.31031">
        <ele>104</ele>
        <time>2026-09-01T12:13:19.863Z</time>
      </trkpt>
      <trkpt lat="49.50441" lon="1.31038">
        <ele>104</ele>
        <time>2026-09-01T12:13:24.043Z</time>
      </trkpt>
      <trkpt lat="49.50436" lon="1.31042">
        <ele>105</ele>
        <time>2026-09-01T12:13:28.263Z</time>
      </trkpt>
      <trkpt lat="49.5043" lon="1.31042">
        <ele>104</ele>
        <time>2026-09-01T12:13:32.324Z</time>
      </trkpt>
      <trkpt lat="49.50427" lon="1.3104">
        <ele>102</ele>
        <time>2026-09-01T12:13:36.375Z</time>
      </trkpt>
      <trkpt lat="49.50424" lon="1.3104">
        <ele>102</ele>
        <time>2026-09-01T12:13:40.476Z</time>
      </trkpt>
      <trkpt lat="49.50419" lon="1.31039">
        <ele>102</ele>
        <time>2026-09-01T12:13:44.477Z</time>
      </trkpt>
      <trkpt lat="49.50415" lon="1.31037">
        <ele>102</ele>
        <time>2026-09-01T12:13:48.836Z</time>
      </trkpt>
      <trkpt lat="49.50411" lon="1.31035">
        <ele>102</ele>
        <time>2026-09-01T12:13:52.897Z</time>
      </trkpt>
      <trkpt lat="49.50407" lon="1.31034">
        <ele>102</ele>
        <time>2026-09-01T12:13:57.112Z</time>
      </trkpt>
      <trkpt lat="49.50402" lon="1.31034">
        <ele>101</ele>
        <time>2026-09-01T12:14:01.297Z</time>
      </trkpt>
      <trkpt lat="49.50399" lon="1.31031">
        <ele>101</ele>
        <time>2026-09-01T12:14:05.676Z</time>
      </trkpt>
      <trkpt lat="49.50394" lon="1.31028">
        <ele>101</ele>
        <time>2026-09-01T12:14:09.816Z</time>
      </trkpt>
      <trkpt lat="49.50388" lon="1.31027">
        <ele>101</ele>
        <time>2026-09-01T12:14:14.056Z</time>
      </trkpt>
      <trkpt lat="49.50384" lon="1.3103">
        <ele>101</ele>
        <time>2026-09-01T12:14:18.116Z</time>
      </trkpt>
      <trkpt lat="49.50378" lon="1.31031">
        <ele>101</ele>
        <time>2026-09-01T12:14:22.843Z</time>
      </trkpt>
      <trkpt lat="49.50373" lon="1.31031">
        <ele>99</ele>
        <time>2026-09-01T12:14:27.113Z</time>
      </trkpt>
      <trkpt lat="49.50368" lon="1.31032">
        <ele>99</ele>
        <time>2026-09-01T12:14:31.700Z</time>
      </trkpt>
      <trkpt lat="49.50364" lon="1.31037">
        <ele>99</ele>
        <time>2026-09-01T12:14:35.840Z</time>
      </trkpt>
      <trkpt lat="49.50362" lon="1.31047">
        <ele>102</ele>
        <time>2026-09-01T12:14:40.001Z</time>
      </trkpt>
      <trkpt lat="49.50358" lon="1.31052">
        <ele>102</ele>
        <time>2026-09-01T12:14:44.101Z</time>
      </trkpt>
      <trkpt lat="49.50353" lon="1.31058">
        <ele>102</ele>
        <time>2026-09-01T12:14:48.639Z</time>
      </trkpt>
      <trkpt lat="49.5035" lon="1.31062">
        <ele>102</ele>
        <time>2026-09-01T12:14:52.700Z</time>
      </trkpt>
      <trkpt lat="49.50348" lon="1.31067">
        <ele>102</ele>
        <time>2026-09-01T12:14:57.277Z</time>
      </trkpt>
      <trkpt lat="49.50344" lon="1.31072">
        <ele>101</ele>
        <time>2026-09-01T12:15:01.825Z</time>
      </trkpt>
      <trkpt lat="49.50341" lon="1.31077">
        <ele>101</ele>
        <time>2026-09-01T12:15:06.106Z</time>
      </trkpt>
      <trkpt lat="49.50337" lon="1.31084">
        <ele>101</ele>
        <time>2026-09-01T12:15:10.602Z</time>
      </trkpt>
      <trkpt lat="49.50332" lon="1.31089">
        <ele>101</ele>
        <time>2026-09-01T12:15:14.683Z</time>
      </trkpt>
      <trkpt lat="49.50327" lon="1.31093">
        <ele>101</ele>
        <time>2026-09-01T12:15:19.116Z</time>
      </trkpt>
      <trkpt lat="49.50323" lon="1.311">
        <ele>105</ele>
        <time>2026-09-01T12:15:23.539Z</time>
      </trkpt>
      <trkpt lat="49.50319" lon="1.31105">
        <ele>101</ele>
        <time>2026-09-01T12:15:27.660Z</time>
      </trkpt>
      <trkpt lat="49.50314" lon="1.31109">
        <ele>101</ele>
        <time>2026-09-01T12:15:32.111Z</time>
      </trkpt>
      <trkpt lat="49.50309" lon="1.31115">
        <ele>101</ele>
        <time>2026-09-01T12:15:36.378Z</time>
      </trkpt>
      <trkpt lat="49.50305" lon="1.31118">
        <ele>101</ele>
        <time>2026-09-01T12:15:40.578Z</time>
      </trkpt>
      <trkpt lat="49.50302" lon="1.31123">
        <ele>101</ele>
        <time>2026-09-01T12:15:45.111Z</time>
      </trkpt>
      <trkpt lat="49.50298" lon="1.31127">
        <ele>104</ele>
        <time>2026-09-01T12:15:49.216Z</time>
      </trkpt>
      <trkpt lat="49.50294" lon="1.3113">
        <ele>104</ele>
        <time>2026-09-01T12:15:53.535Z</time>
      </trkpt>
      <trkpt lat="49.5029" lon="1.31133">
        <ele>102</ele>
        <time>2026-09-01T12:15:57.755Z</time>
      </trkpt>
      <trkpt lat="49.50286" lon="1.31136">
        <ele>102</ele>
        <time>2026-09-01T12:16:02.111Z</time>
      </trkpt>
      <trkpt lat="49.50282" lon="1.3114">
        <ele>102</ele>
        <time>2026-09-01T12:16:06.324Z</time>
      </trkpt>
      <trkpt lat="49.50277" lon="1.31144">
        <ele>102</ele>
        <time>2026-09-01T12:16:10.643Z</time>
      </trkpt>
      <trkpt lat="49.50272" lon="1.31149">
        <ele>102</ele>
        <time>2026-09-01T12:16:14.843Z</time>
      </trkpt>
      <trkpt lat="49.50267" lon="1.31155">
        <ele>105</ele>
        <time>2026-09-01T12:16:19.114Z</time>
      </trkpt>
      <trkpt lat="49.50263" lon="1.31158">
        <ele>103</ele>
        <time>2026-09-01T12:16:23.521Z</time>
      </trkpt>
      <trkpt lat="49.50259" lon="1.31161">
        <ele>103</ele>
        <time>2026-09-01T12:16:28.098Z</time>
      </trkpt>
      <trkpt lat="49.50254" lon="1.31163">
        <ele>103</ele>
        <time>2026-09-01T12:16:32.377Z</time>
      </trkpt>
      <trkpt lat="49.50251" lon="1.31165">
        <ele>103</ele>
        <time>2026-09-01T12:16:36.875Z</time>
      </trkpt>
      <trkpt lat="49.50247" lon="1.31165">
        <ele>103</ele>
        <time>2026-09-01T12:16:41.075Z</time>
      </trkpt>
      <trkpt lat="49.50244" lon="1.31166">
        <ele>103</ele>
        <time>2026-09-01T12:16:45.484Z</time>
      </trkpt>
      <trkpt lat="49.50239" lon="1.31168">
        <ele>103</ele>
        <time>2026-09-01T12:16:49.664Z</time>
      </trkpt>
      <trkpt lat="49.50235" lon="1.3117">
        <ele>100</ele>
        <time>2026-09-01T12:16:53.745Z</time>
      </trkpt>
      <trkpt lat="49.5023" lon="1.31174">
        <ele>100</ele>
        <time>2026-09-01T12:16:57.776Z</time>
      </trkpt>
      <trkpt lat="49.50224" lon="1.31179">
        <ele>100</ele>
        <time>2026-09-01T12:17:02.383Z</time>
      </trkpt>
      <trkpt lat="49.5022" lon="1.31182">
        <ele>102</ele>
        <time>2026-09-01T12:17:06.464Z</time>
      </trkpt>
      <trkpt lat="49.50216" lon="1.31185">
        <ele>102</ele>
        <time>2026-09-01T12:17:10.584Z</time>
      </trkpt>
      <trkpt lat="49.50211" lon="1.31186">
        <ele>102</ele>
        <time>2026-09-01T12:17:15.109Z</time>
      </trkpt>
      <trkpt lat="49.50206" lon="1.31186">
        <ele>98</ele>
        <time>2026-09-01T12:17:19.302Z</time>
      </trkpt>
      <trkpt lat="49.502" lon="1.31185">
        <ele>98</ele>
        <time>2026-09-01T12:17:23.979Z</time>
      </trkpt>
      <trkpt lat="49.50197" lon="1.31184">
        <ele>98</ele>
        <time>2026-09-01T12:17:28.113Z</time>
      </trkpt>
      <trkpt lat="49.50193" lon="1.31184">
        <ele>98</ele>
        <time>2026-09-01T12:17:32.279Z</time>
      </trkpt>
      <trkpt lat="49.50189" lon="1.31186">
        <ele>98</ele>
        <time>2026-09-01T12:17:36.380Z</time>
      </trkpt>
      <trkpt lat="49.50184" lon="1.31187">
        <ele>98</ele>
        <time>2026-09-01T12:17:40.878Z</time>
      </trkpt>
      <trkpt lat="49.50179" lon="1.31186">
        <ele>95</ele>
        <time>2026-09-01T12:17:44.998Z</time>
      </trkpt>
      <trkpt lat="49.50174" lon="1.31185">
        <ele>95</ele>
        <time>2026-09-01T12:17:49.059Z</time>
      </trkpt>
      <trkpt lat="49.50169" lon="1.31186">
        <ele>95</ele>
        <time>2026-09-01T12:17:53.110Z</time>
      </trkpt>
      <trkpt lat="49.50164" lon="1.31185">
        <ele>95</ele>
        <time>2026-09-01T12:17:57.300Z</time>
      </trkpt>
      <trkpt lat="49.50158" lon="1.31181">
        <ele>95</ele>
        <time>2026-09-01T12:18:01.600Z</time>
      </trkpt>
      <trkpt lat="49.50154" lon="1.31178">
        <ele>95</ele>
        <time>2026-09-01T12:18:05.621Z</time>
      </trkpt>
      <trkpt lat="49.50149" lon="1.31176">
        <ele>94</ele>
        <time>2026-09-01T12:18:09.841Z</time>
      </trkpt>
      <trkpt lat="49.50145" lon="1.31173">
        <ele>94</ele>
        <time>2026-09-01T12:18:13.941Z</time>
      </trkpt>
      <trkpt lat="49.50141" lon="1.3117">
        <ele>94</ele>
        <time>2026-09-01T12:18:18.115Z</time>
      </trkpt>
      <trkpt lat="49.50136" lon="1.31169">
        <ele>94</ele>
        <time>2026-09-01T12:18:22.112Z</time>
      </trkpt>
      <trkpt lat="49.50131" lon="1.3117">
        <ele>94</ele>
        <time>2026-09-01T12:18:26.581Z</time>
      </trkpt>
      <trkpt lat="49.50125" lon="1.31174">
        <ele>94</ele>
        <time>2026-09-01T12:18:30.722Z</time>
      </trkpt>
      <trkpt lat="49.50123" lon="1.31179">
        <ele>92</ele>
        <time>2026-09-01T12:18:35.107Z</time>
      </trkpt>
      <trkpt lat="49.50121" lon="1.31186">
        <ele>93</ele>
        <time>2026-09-01T12:18:39.658Z</time>
      </trkpt>
      <trkpt lat="49.5012" lon="1.31192">
        <ele>93</ele>
        <time>2026-09-01T12:18:44.036Z</time>
      </trkpt>
      <trkpt lat="49.50119" lon="1.31199">
        <ele>93</ele>
        <time>2026-09-01T12:18:48.217Z</time>
      </trkpt>
      <trkpt lat="49.50118" lon="1.31208">
        <ele>93</ele>
        <time>2026-09-01T12:18:52.575Z</time>
      </trkpt>
      <trkpt lat="49.50118" lon="1.31217">
        <ele>94</ele>
        <time>2026-09-01T12:18:56.795Z</time>
      </trkpt>
      <trkpt lat="49.50115" lon="1.31224">
        <ele>94</ele>
        <time>2026-09-01T12:19:01.108Z</time>
      </trkpt>
      <trkpt lat="49.50113" lon="1.31231">
        <ele>94</ele>
        <time>2026-09-01T12:19:05.324Z</time>
      </trkpt>
      <trkpt lat="49.50115" lon="1.31238">
        <ele>96</ele>
        <time>2026-09-01T12:19:09.723Z</time>
      </trkpt>
      <trkpt lat="49.50117" lon="1.31245">
        <ele>96</ele>
        <time>2026-09-01T12:19:13.863Z</time>
      </trkpt>
      <trkpt lat="49.50116" lon="1.31251">
        <ele>96</ele>
        <time>2026-09-01T12:19:18.116Z</time>
      </trkpt>
      <trkpt lat="49.50116" lon="1.31257">
        <ele>96</ele>
        <time>2026-09-01T12:19:22.402Z</time>
      </trkpt>
      <trkpt lat="49.50116" lon="1.31265">
        <ele>98</ele>
        <time>2026-09-01T12:19:26.999Z</time>
      </trkpt>
      <trkpt lat="49.50115" lon="1.31273">
        <ele>98</ele>
        <time>2026-09-01T12:19:31.299Z</time>
      </trkpt>
      <trkpt lat="49.50117" lon="1.3128">
        <ele>98</ele>
        <time>2026-09-01T12:19:35.638Z</time>
      </trkpt>
      <trkpt lat="49.50118" lon="1.31287">
        <ele>98</ele>
        <time>2026-09-01T12:19:39.937Z</time>
      </trkpt>
      <trkpt lat="49.50118" lon="1.31293">
        <ele>99</ele>
        <time>2026-09-01T12:19:44.544Z</time>
      </trkpt>
      <trkpt lat="49.50118" lon="1.31299">
        <ele>99</ele>
        <time>2026-09-01T12:19:48.803Z</time>
      </trkpt>
      <trkpt lat="49.50119" lon="1.31306">
        <ele>99</ele>
        <time>2026-09-01T12:19:53.107Z</time>
      </trkpt>
      <trkpt lat="49.50119" lon="1.31314">
        <ele>99</ele>
        <time>2026-09-01T12:19:57.680Z</time>
      </trkpt>
      <trkpt lat="49.50118" lon="1.31323">
        <ele>101</ele>
        <time>2026-09-01T12:20:01.959Z</time>
      </trkpt>
      <trkpt lat="49.50116" lon="1.31331">
        <ele>101</ele>
        <time>2026-09-01T12:20:06.113Z</time>
      </trkpt>
      <trkpt lat="49.50116" lon="1.31339">
        <ele>101</ele>
        <time>2026-09-01T12:20:10.498Z</time>
      </trkpt>
      <trkpt lat="49.50115" lon="1.31344">
        <ele>101</ele>
        <time>2026-09-01T12:20:14.837Z</time>
      </trkpt>
      <trkpt lat="49.50115" lon="1.31351">
        <ele>102</ele>
        <time>2026-09-01T12:20:19.105Z</time>
      </trkpt>
      <trkpt lat="49.50116" lon="1.31357">
        <ele>102</ele>
        <time>2026-09-01T12:20:23.475Z</time>
      </trkpt>
      <trkpt lat="49.50118" lon="1.31363">
        <ele>102</ele>
        <time>2026-09-01T12:20:27.576Z</time>
      </trkpt>
      <trkpt lat="49.50121" lon="1.31369">
        <ele>102</ele>
        <time>2026-09-01T12:20:31.875Z</time>
      </trkpt>
      <trkpt lat="49.50121" lon="1.31375">
        <ele>103</ele>
        <time>2026-09-01T12:20:36.108Z</time>
      </trkpt>
      <trkpt lat="49.50122" lon="1.31385">
        <ele>103</ele>
        <time>2026-09-01T12:20:40.543Z</time>
      </trkpt>
      <trkpt lat="49.50124" lon="1.31393">
        <ele>103</ele>
        <time>2026-09-01T12:20:45.021Z</time>
      </trkpt>
      <trkpt lat="49.50125" lon="1.31401">
        <ele>103</ele>
        <time>2026-09-01T12:20:49.380Z</time>
      </trkpt>
      <trkpt lat="49.50124" lon="1.31409">
        <ele>103</ele>
        <time>2026-09-01T12:20:53.640Z</time>
      </trkpt>
      <trkpt lat="49.50124" lon="1.31417">
        <ele>103</ele>
        <time>2026-09-01T12:20:57.979Z</time>
      </trkpt>
      <trkpt lat="49.50124" lon="1.31425">
        <ele>103</ele>
        <time>2026-09-01T12:21:02.358Z</time>
      </trkpt>
      <trkpt lat="49.50124" lon="1.31433">
        <ele>104</ele>
        <time>2026-09-01T12:21:06.577Z</time>
      </trkpt>
      <trkpt lat="49.50125" lon="1.3144">
        <ele>104</ele>
        <time>2026-09-01T12:21:11.095Z</time>
      </trkpt>
      <trkpt lat="49.50126" lon="1.31447">
        <ele>101</ele>
        <time>2026-09-01T12:21:15.384Z</time>
      </trkpt>
      <trkpt lat="49.50128" lon="1.31453">
        <ele>101</ele>
        <time>2026-09-01T12:21:19.823Z</time>
      </trkpt>
      <trkpt lat="49.5013" lon="1.31459">
        <ele>102</ele>
        <time>2026-09-01T12:21:24.440Z</time>
      </trkpt>
      <trkpt lat="49.50129" lon="1.31465">
        <ele>102</ele>
        <time>2026-09-01T12:21:28.799Z</time>
      </trkpt>
      <trkpt lat="49.50129" lon="1.31468">
        <ele>102</ele>
        <time>2026-09-01T12:21:32.979Z</time>
      </trkpt>
      <trkpt lat="49.50127" lon="1.31477">
        <ele>102</ele>
        <time>2026-09-01T12:21:37.114Z</time>
      </trkpt>
      <trkpt lat="49.50126" lon="1.31485">
        <ele>102</ele>
        <time>2026-09-01T12:21:41.736Z</time>
      </trkpt>
      <trkpt lat="49.50128" lon="1.31492">
        <ele>103</ele>
        <time>2026-09-01T12:21:46.118Z</time>
      </trkpt>
      <trkpt lat="49.50131" lon="1.31497">
        <ele>103</ele>
        <time>2026-09-01T12:21:50.781Z</time>
      </trkpt>
      <trkpt lat="49.50133" lon="1.31503">
        <ele>103</ele>
        <time>2026-09-01T12:21:55.220Z</time>
      </trkpt>
      <trkpt lat="49.50137" lon="1.3151">
        <ele>103</ele>
        <time>2026-09-01T12:21:59.658Z</time>
      </trkpt>
      <trkpt lat="49.50138" lon="1.31518">
        <ele>104</ele>
        <time>2026-09-01T12:22:04.113Z</time>
      </trkpt>
      <trkpt lat="49.50139" lon="1.31525">
        <ele>104</ele>
        <time>2026-09-01T12:22:08.663Z</time>
      </trkpt>
      <trkpt lat="49.50138" lon="1.31534">
        <ele>104</ele>
        <time>2026-09-01T12:22:13.062Z</time>
      </trkpt>
      <trkpt lat="49.50139" lon="1.3154">
        <ele>104</ele>
        <time>2026-09-01T12:22:17.580Z</time>
      </trkpt>
      <trkpt lat="49.50142" lon="1.31548">
        <ele>105</ele>
        <time>2026-09-01T12:22:22.078Z</time>
      </trkpt>
      <trkpt lat="49.50146" lon="1.31554">
        <ele>105</ele>
        <time>2026-09-01T12:22:26.575Z</time>
      </trkpt>
      <trkpt lat="49.50147" lon="1.31561">
        <ele>105</ele>
        <time>2026-09-01T12:22:30.497Z</time>
      </trkpt>
      <trkpt lat="49.50148" lon="1.31568">
        <ele>105</ele>
        <time>2026-09-01T12:22:34.936Z</time>
      </trkpt>
      <trkpt lat="49.50149" lon="1.31575">
        <ele>106</ele>
        <time>2026-09-01T12:22:39.483Z</time>
      </trkpt>
      <trkpt lat="49.5015" lon="1.31582">
        <ele>106</ele>
        <time>2026-09-01T12:22:43.882Z</time>
      </trkpt>
      <trkpt lat="49.50151" lon="1.31588">
        <ele>106</ele>
        <time>2026-09-01T12:22:48.399Z</time>
      </trkpt>
      <trkpt lat="49.50153" lon="1.31595">
        <ele>103</ele>
        <time>2026-09-01T12:22:52.798Z</time>
      </trkpt>
      <trkpt lat="49.50155" lon="1.31601">
        <ele>104</ele>
        <time>2026-09-01T12:22:57.112Z</time>
      </trkpt>
      <trkpt lat="49.5016" lon="1.31607">
        <ele>104</ele>
        <time>2026-09-01T12:23:01.724Z</time>
      </trkpt>
      <trkpt lat="49.50162" lon="1.31612">
        <ele>104</ele>
        <time>2026-09-01T12:23:06.114Z</time>
      </trkpt>
      <trkpt lat="49.50164" lon="1.3162">
        <ele>104</ele>
        <time>2026-09-01T12:23:10.759Z</time>
      </trkpt>
      <trkpt lat="49.50165" lon="1.31627">
        <ele>108</ele>
        <time>2026-09-01T12:23:15.396Z</time>
      </trkpt>
      <trkpt lat="49.50166" lon="1.31634">
        <ele>108</ele>
        <time>2026-09-01T12:23:19.844Z</time>
      </trkpt>
      <trkpt lat="49.50167" lon="1.3164">
        <ele>108</ele>
        <time>2026-09-01T12:23:23.876Z</time>
      </trkpt>
      <trkpt lat="49.50171" lon="1.31644">
        <ele>108</ele>
        <time>2026-09-01T12:23:27.917Z</time>
      </trkpt>
      <trkpt lat="49.50174" lon="1.31647">
        <ele>108</ele>
        <time>2026-09-01T12:23:32.110Z</time>
      </trkpt>
      <trkpt lat="49.50177" lon="1.31651">
        <ele>108</ele>
        <time>2026-09-01T12:23:36.664Z</time>
      </trkpt>
      <trkpt lat="49.50179" lon="1.31657">
        <ele>111</ele>
        <time>2026-09-01T12:23:41.113Z</time>
      </trkpt>
      <trkpt lat="49.50181" lon="1.31664">
        <ele>108</ele>
        <time>2026-09-01T12:23:45.362Z</time>
      </trkpt>
      <trkpt lat="49.50184" lon="1.3167">
        <ele>108</ele>
        <time>2026-09-01T12:23:49.999Z</time>
      </trkpt>
      <trkpt lat="49.50186" lon="1.31676">
        <ele>108</ele>
        <time>2026-09-01T12:23:54.377Z</time>
      </trkpt>
      <trkpt lat="49.50188" lon="1.31683">
        <ele>111</ele>
        <time>2026-09-01T12:23:58.935Z</time>
      </trkpt>
      <trkpt lat="49.50188" lon="1.3169">
        <ele>111</ele>
        <time>2026-09-01T12:24:03.442Z</time>
      </trkpt>
      <trkpt lat="49.50191" lon="1.31696">
        <ele>111</ele>
        <time>2026-09-01T12:24:07.762Z</time>
      </trkpt>
      <trkpt lat="49.50195" lon="1.31702">
        <ele>111</ele>
        <time>2026-09-01T12:24:12.111Z</time>
      </trkpt>
      <trkpt lat="49.50196" lon="1.31708">
        <ele>111</ele>
        <time>2026-09-01T12:24:16.102Z</time>
      </trkpt>
      <trkpt lat="49.502" lon="1.31713">
        <ele>114</ele>
        <time>2026-09-01T12:24:20.620Z</time>
      </trkpt>
      <trkpt lat="49.50204" lon="1.31719">
        <ele>114</ele>
        <time>2026-09-01T12:24:24.959Z</time>
      </trkpt>
      <trkpt lat="49.50207" lon="1.31726">
        <ele>114</ele>
        <time>2026-09-01T12:24:29.496Z</time>
      </trkpt>
      <trkpt lat="49.5021" lon="1.31731">
        <ele>110</ele>
        <time>2026-09-01T12:24:33.795Z</time>
      </trkpt>
      <trkpt lat="49.50214" lon="1.31737">
        <ele>112</ele>
        <time>2026-09-01T12:24:38.102Z</time>
      </trkpt>
      <trkpt lat="49.50218" lon="1.31743">
        <ele>112</ele>
        <time>2026-09-01T12:24:42.662Z</time>
      </trkpt>
      <trkpt lat="49.50222" lon="1.31748">
        <ele>112</ele>
        <time>2026-09-01T12:24:47.041Z</time>
      </trkpt>
      <trkpt lat="49.50224" lon="1.31754">
        <ele>112</ele>
        <time>2026-09-01T12:24:51.360Z</time>
      </trkpt>
      <trkpt lat="49.50228" lon="1.31759">
        <ele>112</ele>
        <time>2026-09-01T12:24:55.758Z</time>
      </trkpt>
      <trkpt lat="49.50231" lon="1.31763">
        <ele>112</ele>
        <time>2026-09-01T12:25:00.038Z</time>
      </trkpt>
      <trkpt lat="49.50236" lon="1.31767">
        <ele>116</ele>
        <time>2026-09-01T12:25:04.476Z</time>
      </trkpt>
      <trkpt lat="49.5024" lon="1.31771">
        <ele>113</ele>
        <time>2026-09-01T12:25:08.885Z</time>
      </trkpt>
      <trkpt lat="49.50243" lon="1.31778">
        <ele>113</ele>
        <time>2026-09-01T12:25:13.105Z</time>
      </trkpt>
      <trkpt lat="49.50246" lon="1.31783">
        <ele>113</ele>
        <time>2026-09-01T12:25:17.662Z</time>
      </trkpt>
      <trkpt lat="49.50251" lon="1.31786">
        <ele>113</ele>
        <time>2026-09-01T12:25:22.107Z</time>
      </trkpt>
      <trkpt lat="49.50256" lon="1.31788">
        <ele>113</ele>
        <time>2026-09-01T12:25:26.578Z</time>
      </trkpt>
      <trkpt lat="49.50262" lon="1.3179">
        <ele>113</ele>
        <time>2026-09-01T12:25:31.096Z</time>
      </trkpt>
      <trkpt lat="49.50267" lon="1.31793">
        <ele>115</ele>
        <time>2026-09-01T12:25:35.564Z</time>
      </trkpt>
      <trkpt lat="49.50272" lon="1.31795">
        <ele>115</ele>
        <time>2026-09-01T12:25:39.962Z</time>
      </trkpt>
      <trkpt lat="49.50276" lon="1.31795">
        <ele>115</ele>
        <time>2026-09-01T12:25:44.639Z</time>
      </trkpt>
      <trkpt lat="49.5028" lon="1.31796">
        <ele>115</ele>
        <time>2026-09-01T12:25:49.106Z</time>
      </trkpt>
      <trkpt lat="49.50284" lon="1.31796">
        <ele>115</ele>
        <time>2026-09-01T12:25:53.962Z</time>
      </trkpt>
      <trkpt lat="49.50288" lon="1.31794">
        <ele>115</ele>
        <time>2026-09-01T12:25:58.599Z</time>
      </trkpt>
      <trkpt lat="49.50292" lon="1.31792">
        <ele>116</ele>
        <time>2026-09-01T12:26:03.017Z</time>
      </trkpt>
      <trkpt lat="49.50297" lon="1.31792">
        <ele>116</ele>
        <time>2026-09-01T12:26:07.704Z</time>
      </trkpt>
      <trkpt lat="49.50302" lon="1.31794">
        <ele>116</ele>
        <time>2026-09-01T12:26:12.043Z</time>
      </trkpt>
      <trkpt lat="49.50307" lon="1.31796">
        <ele>116</ele>
        <time>2026-09-01T12:26:16.640Z</time>
      </trkpt>
      <trkpt lat="49.50313" lon="1.31795">
        <ele>116</ele>
        <time>2026-09-01T12:26:21.108Z</time>
      </trkpt>
      <trkpt lat="49.50317" lon="1.31798">
        <ele>116</ele>
        <time>2026-09-01T12:26:25.179Z</time>
      </trkpt>
      <trkpt lat="49.50321" lon="1.31799">
        <ele>117</ele>
        <time>2026-09-01T12:26:29.915Z</time>
      </trkpt>
      <trkpt lat="49.50326" lon="1.31798">
        <ele>117</ele>
        <time>2026-09-01T12:26:34.343Z</time>
      </trkpt>
      <trkpt lat="49.50331" lon="1.31798">
        <ele>117</ele>
        <time>2026-09-01T12:26:38.980Z</time>
      </trkpt>
      <trkpt lat="49.50336" lon="1.31803">
        <ele>117</ele>
        <time>2026-09-01T12:26:43.478Z</time>
      </trkpt>
      <trkpt lat="49.50341" lon="1.31806">
        <ele>117</ele>
        <time>2026-09-01T12:26:48.075Z</time>
      </trkpt>
      <trkpt lat="49.50345" lon="1.31806">
        <ele>117</ele>
        <time>2026-09-01T12:26:52.109Z</time>
      </trkpt>
      <trkpt lat="49.50349" lon="1.31808">
        <ele>120</ele>
        <time>2026-09-01T12:26:56.564Z</time>
      </trkpt>
      <trkpt lat="49.50353" lon="1.31808">
        <ele>120</ele>
        <time>2026-09-01T12:27:00.576Z</time>
      </trkpt>
      <trkpt lat="49.50358" lon="1.31809">
        <ele>120</ele>
        <time>2026-09-01T12:27:04.676Z</time>
      </trkpt>
      <trkpt lat="49.50361" lon="1.31809">
        <ele>120</ele>
        <time>2026-09-01T12:27:09.109Z</time>
      </trkpt>
      <trkpt lat="49.50365" lon="1.3181">
        <ele>120</ele>
        <time>2026-09-01T12:27:13.364Z</time>
      </trkpt>
      <trkpt lat="49.5037" lon="1.31811">
        <ele>120</ele>
        <time>2026-09-01T12:27:17.584Z</time>
      </trkpt>
      <trkpt lat="49.50374" lon="1.31813">
        <ele>120</ele>
        <time>2026-09-01T12:27:21.883Z</time>
      </trkpt>
      <trkpt lat="49.50378" lon="1.31817">
        <ele>122</ele>
        <time>2026-09-01T12:27:26.107Z</time>
      </trkpt>
      <trkpt lat="49.50382" lon="1.31822">
        <ele>121</ele>
        <time>2026-09-01T12:27:30.641Z</time>
      </trkpt>
      <trkpt lat="49.50386" lon="1.31826">
        <ele>121</ele>
        <time>2026-09-01T12:27:35.039Z</time>
      </trkpt>
      <trkpt lat="49.5039" lon="1.31829">
        <ele>121</ele>
        <time>2026-09-01T12:27:39.438Z</time>
      </trkpt>
      <trkpt lat="49.50394" lon="1.31833">
        <ele>121</ele>
        <time>2026-09-01T12:27:43.896Z</time>
      </trkpt>
      <trkpt lat="49.50396" lon="1.31839">
        <ele>121</ele>
        <time>2026-09-01T12:27:48.324Z</time>
      </trkpt>
      <trkpt lat="49.50399" lon="1.31845">
        <ele>121</ele>
        <time>2026-09-01T12:27:52.842Z</time>
      </trkpt>
      <trkpt lat="49.50402" lon="1.31851">
        <ele>120</ele>
        <time>2026-09-01T12:27:57.240Z</time>
      </trkpt>
      <trkpt lat="49.50406" lon="1.31857">
        <ele>122</ele>
        <time>2026-09-01T12:28:01.857Z</time>
      </trkpt>
      <trkpt lat="49.50409" lon="1.31861">
        <ele>122</ele>
        <time>2026-09-01T12:28:06.296Z</time>
      </trkpt>
      <trkpt lat="49.50412" lon="1.31868">
        <ele>122</ele>
        <time>2026-09-01T12:28:10.883Z</time>
      </trkpt>
      <trkpt lat="49.50415" lon="1.31875">
        <ele>122</ele>
        <time>2026-09-01T12:28:15.301Z</time>
      </trkpt>
      <trkpt lat="49.50417" lon="1.31882">
        <ele>121</ele>
        <time>2026-09-01T12:28:19.839Z</time>
      </trkpt>
      <trkpt lat="49.50417" lon="1.3189">
        <ele>121</ele>
        <time>2026-09-01T12:28:24.237Z</time>
      </trkpt>
      <trkpt lat="49.50418" lon="1.31897">
        <ele>121</ele>
        <time>2026-09-01T12:28:28.964Z</time>
      </trkpt>
      <trkpt lat="49.50419" lon="1.31904">
        <ele>121</ele>
        <time>2026-09-01T12:28:33.422Z</time>
      </trkpt>
      <trkpt lat="49.50419" lon="1.3191">
        <ele>121</ele>
        <time>2026-09-01T12:28:37.463Z</time>
      </trkpt>
      <trkpt lat="49.5042" lon="1.31918">
        <ele>121</ele>
        <time>2026-09-01T12:28:42.080Z</time>
      </trkpt>
      <trkpt lat="49.50421" lon="1.31924">
        <ele>121</ele>
        <time>2026-09-01T12:28:46.399Z</time>
      </trkpt>
      <trkpt lat="49.50422" lon="1.31931">
        <ele>121</ele>
        <time>2026-09-01T12:28:50.976Z</time>
      </trkpt>
      <trkpt lat="49.5042" lon="1.31938">
        <ele>120</ele>
        <time>2026-09-01T12:28:55.603Z</time>
      </trkpt>
      <trkpt lat="49.50419" lon="1.31942">
        <ele>120</ele>
        <time>2026-09-01T12:29:00.111Z</time>
      </trkpt>
      <trkpt lat="49.50426" lon="1.31947">
        <ele>120</ele>
        <time>2026-09-01T12:32:50.098Z</time>
      </trkpt>
      <trkpt lat="49.50426" lon="1.31948">
        <ele>120</ele>
        <time>2026-09-01T12:32:54.457Z</time>
      </trkpt>
      <trkpt lat="49.50426" lon="1.31953">
        <ele>120</ele>
        <time>2026-09-01T12:32:59.106Z</time>
      </trkpt>
      <trkpt lat="49.50424" lon="1.31961">
        <ele>119</ele>
        <time>2026-09-01T12:33:03.622Z</time>
      </trkpt>
      <trkpt lat="49.50423" lon="1.31968">
        <ele>119</ele>
        <time>2026-09-01T12:33:07.683Z</time>
      </trkpt>
      <trkpt lat="49.50422" lon="1.31975">
        <ele>119</ele>
        <time>2026-09-01T12:33:12.002Z</time>
      </trkpt>
      <trkpt lat="49.50422" lon="1.31982">
        <ele>119</ele>
        <time>2026-09-01T12:33:16.115Z</time>
      </trkpt>
      <trkpt lat="49.50422" lon="1.3199">
        <ele>121</ele>
        <time>2026-09-01T12:33:20.998Z</time>
      </trkpt>
      <trkpt lat="49.5042" lon="1.31996">
        <ele>121</ele>
        <time>2026-09-01T12:33:25.105Z</time>
      </trkpt>
      <trkpt lat="49.50419" lon="1.32003">
        <ele>121</ele>
        <time>2026-09-01T12:33:29.457Z</time>
      </trkpt>
      <trkpt lat="49.50419" lon="1.32011">
        <ele>121</ele>
        <time>2026-09-01T12:33:33.479Z</time>
      </trkpt>
      <trkpt lat="49.5042" lon="1.32018">
        <ele>123</ele>
        <time>2026-09-01T12:33:37.639Z</time>
      </trkpt>
      <trkpt lat="49.50421" lon="1.32025">
        <ele>123</ele>
        <time>2026-09-01T12:33:41.799Z</time>
      </trkpt>
      <trkpt lat="49.50421" lon="1.32032">
        <ele>123</ele>
        <time>2026-09-01T12:33:45.821Z</time>
      </trkpt>
      <trkpt lat="49.50422" lon="1.32038">
        <ele>123</ele>
        <time>2026-09-01T12:33:49.961Z</time>
      </trkpt>
      <trkpt lat="49.50422" lon="1.32045">
        <ele>124</ele>
        <time>2026-09-01T12:33:54.399Z</time>
      </trkpt>
      <trkpt lat="49.50422" lon="1.32053">
        <ele>124</ele>
        <time>2026-09-01T12:33:59.096Z</time>
      </trkpt>
      <trkpt lat="49.50423" lon="1.32059">
        <ele>124</ele>
        <time>2026-09-01T12:34:03.485Z</time>
      </trkpt>
      <trkpt lat="49.50423" lon="1.32063">
        <ele>124</ele>
        <time>2026-09-01T12:34:07.704Z</time>
      </trkpt>
      <trkpt lat="49.50424" lon="1.32068">
        <ele>124</ele>
        <time>2026-09-01T12:34:11.815Z</time>
      </trkpt>
      <trkpt lat="49.50423" lon="1.32073">
        <ele>125</ele>
        <time>2026-09-01T12:34:15.936Z</time>
      </trkpt>
      <trkpt lat="49.50425" lon="1.32079">
        <ele>125</ele>
        <time>2026-09-01T12:34:20.463Z</time>
      </trkpt>
      <trkpt lat="49.50426" lon="1.32085">
        <ele>125</ele>
        <time>2026-09-01T12:34:25.021Z</time>
      </trkpt>
      <trkpt lat="49.50429" lon="1.32092">
        <ele>125</ele>
        <time>2026-09-01T12:34:29.598Z</time>
      </trkpt>
      <trkpt lat="49.50433" lon="1.32099">
        <ele>127</ele>
        <time>2026-09-01T12:34:34.100Z</time>
      </trkpt>
      <trkpt lat="49.50436" lon="1.32103">
        <ele>127</ele>
        <time>2026-09-01T12:34:38.105Z</time>
      </trkpt>
      <trkpt lat="49.50439" lon="1.32107">
        <ele>127</ele>
        <time>2026-09-01T12:34:42.516Z</time>
      </trkpt>
      <trkpt lat="49.50441" lon="1.32114">
        <ele>127</ele>
        <time>2026-09-01T12:34:47.107Z</time>
      </trkpt>
      <trkpt lat="49.50442" lon="1.3212">
        <ele>127</ele>
        <time>2026-09-01T12:34:51.840Z</time>
      </trkpt>
      <trkpt lat="49.50444" lon="1.32126">
        <ele>127</ele>
        <time>2026-09-01T12:34:55.921Z</time>
      </trkpt>
      <trkpt lat="49.50446" lon="1.32131">
        <ele>127</ele>
        <time>2026-09-01T12:35:00.617Z</time>
      </trkpt>
      <trkpt lat="49.50448" lon="1.32137">
        <ele>127</ele>
        <time>2026-09-01T12:35:05.102Z</time>
      </trkpt>
      <trkpt lat="49.5045" lon="1.32145">
        <ele>127</ele>
        <time>2026-09-01T12:35:09.921Z</time>
      </trkpt>
      <trkpt lat="49.50452" lon="1.32152">
        <ele>127</ele>
        <time>2026-09-01T12:35:14.439Z</time>
      </trkpt>
      <trkpt lat="49.50454" lon="1.32159">
        <ele>129</ele>
        <time>2026-09-01T12:35:19.103Z</time>
      </trkpt>
      <trkpt lat="49.50455" lon="1.32165">
        <ele>129</ele>
        <time>2026-09-01T12:35:23.108Z</time>
      </trkpt>
      <trkpt lat="49.50457" lon="1.32172">
        <ele>129</ele>
        <time>2026-09-01T12:35:27.883Z</time>
      </trkpt>
      <trkpt lat="49.50459" lon="1.32179">
        <ele>133</ele>
        <time>2026-09-01T12:35:32.103Z</time>
      </trkpt>
      <trkpt lat="49.50462" lon="1.32186">
        <ele>133</ele>
        <time>2026-09-01T12:35:36.799Z</time>
      </trkpt>
      <trkpt lat="49.50464" lon="1.32193">
        <ele>133</ele>
        <time>2026-09-01T12:35:40.741Z</time>
      </trkpt>
      <trkpt lat="49.50466" lon="1.32198">
        <ele>133</ele>
        <time>2026-09-01T12:35:44.921Z</time>
      </trkpt>
      <trkpt lat="49.50469" lon="1.32203">
        <ele>133</ele>
        <time>2026-09-01T12:35:48.962Z</time>
      </trkpt>
      <trkpt lat="49.50471" lon="1.32206">
        <ele>133</ele>
        <time>2026-09-01T12:35:53.101Z</time>
      </trkpt>
      <trkpt lat="49.50475" lon="1.32209">
        <ele>133</ele>
        <time>2026-09-01T12:35:57.106Z</time>
      </trkpt>
      <trkpt lat="49.50478" lon="1.32211">
        <ele>133</ele>
        <time>2026-09-01T12:36:01.344Z</time>
      </trkpt>
      <trkpt lat="49.50481" lon="1.32214">
        <ele>133</ele>
        <time>2026-09-01T12:36:05.395Z</time>
      </trkpt>
      <trkpt lat="49.50483" lon="1.32218">
        <ele>133</ele>
        <time>2026-09-01T12:36:09.536Z</time>
      </trkpt>
      <trkpt lat="49.50485" lon="1.32223">
        <ele>133</ele>
        <time>2026-09-01T12:36:13.696Z</time>
      </trkpt>
      <trkpt lat="49.50487" lon="1.32231">
        <ele>135</ele>
        <time>2026-09-01T12:36:18.097Z</time>
      </trkpt>
      <trkpt lat="49.50489" lon="1.32238">
        <ele>134</ele>
        <time>2026-09-01T12:36:22.404Z</time>
      </trkpt>
      <trkpt lat="49.50491" lon="1.32244">
        <ele>134</ele>
        <time>2026-09-01T12:36:26.475Z</time>
      </trkpt>
      <trkpt lat="49.50491" lon="1.32249">
        <ele>134</ele>
        <time>2026-09-01T12:36:30.615Z</time>
      </trkpt>
      <trkpt lat="49.50493" lon="1.32256">
        <ele>134</ele>
        <time>2026-09-01T12:36:34.875Z</time>
      </trkpt>
      <trkpt lat="49.50494" lon="1.32263">
        <ele>134</ele>
        <time>2026-09-01T12:36:39.035Z</time>
      </trkpt>
      <trkpt lat="49.50495" lon="1.3227">
        <ele>132</ele>
        <time>2026-09-01T12:36:43.109Z</time>
      </trkpt>
      <trkpt lat="49.50496" lon="1.32276">
        <ele>132</ele>
        <time>2026-09-01T12:36:47.108Z</time>
      </trkpt>
      <trkpt lat="49.50497" lon="1.32285">
        <ele>132</ele>
        <time>2026-09-01T12:36:51.943Z</time>
      </trkpt>
      <trkpt lat="49.50497" lon="1.32294">
        <ele>132</ele>
        <time>2026-09-01T12:36:56.600Z</time>
      </trkpt>
      <trkpt lat="49.50498" lon="1.32302">
        <ele>132</ele>
        <time>2026-09-01T12:37:00.661Z</time>
      </trkpt>
      <trkpt lat="49.50499" lon="1.32311">
        <ele>132</ele>
        <time>2026-09-01T12:37:05.278Z</time>
      </trkpt>
      <trkpt lat="49.50499" lon="1.32317">
        <ele>132</ele>
        <time>2026-09-01T12:37:09.379Z</time>
      </trkpt>
      <trkpt lat="49.50498" lon="1.32322">
        <ele>132</ele>
        <time>2026-09-01T12:37:13.460Z</time>
      </trkpt>
      <trkpt lat="49.50498" lon="1.32327">
        <ele>132</ele>
        <time>2026-09-01T12:37:17.680Z</time>
      </trkpt>
      <trkpt lat="49.50498" lon="1.32332">
        <ele>132</ele>
        <time>2026-09-01T12:37:21.682Z</time>
      </trkpt>
      <trkpt lat="49.50496" lon="1.32337">
        <ele>132</ele>
        <time>2026-09-01T12:37:25.842Z</time>
      </trkpt>
      <trkpt lat="49.50495" lon="1.32344">
        <ele>132</ele>
        <time>2026-09-01T12:37:30.399Z</time>
      </trkpt>
      <trkpt lat="49.50494" lon="1.3235">
        <ele>134</ele>
        <time>2026-09-01T12:37:34.838Z</time>
      </trkpt>
      <trkpt lat="49.50493" lon="1.32356">
        <ele>134</ele>
        <time>2026-09-01T12:37:38.879Z</time>
      </trkpt>
      <trkpt lat="49.50492" lon="1.32362">
        <ele>134</ele>
        <time>2026-09-01T12:37:43.059Z</time>
      </trkpt>
      <trkpt lat="49.50492" lon="1.32369">
        <ele>134</ele>
        <time>2026-09-01T12:37:47.105Z</time>
      </trkpt>
      <trkpt lat="49.50493" lon="1.32375">
        <ele>136</ele>
        <time>2026-09-01T12:37:51.105Z</time>
      </trkpt>
      <trkpt lat="49.50494" lon="1.32381">
        <ele>136</ele>
        <time>2026-09-01T12:37:55.322Z</time>
      </trkpt>
      <trkpt lat="49.50493" lon="1.32387">
        <ele>136</ele>
        <time>2026-09-01T12:37:59.423Z</time>
      </trkpt>
      <trkpt lat="49.50494" lon="1.32393">
        <ele>136</ele>
        <time>2026-09-01T12:38:04.110Z</time>
      </trkpt>
      <trkpt lat="49.50496" lon="1.32399">
        <ele>136</ele>
        <time>2026-09-01T12:38:08.112Z</time>
      </trkpt>
      <trkpt lat="49.505" lon="1.32405">
        <ele>138</ele>
        <time>2026-09-01T12:38:12.519Z</time>
      </trkpt>
      <trkpt lat="49.50503" lon="1.32409">
        <ele>138</ele>
        <time>2026-09-01T12:38:16.660Z</time>
      </trkpt>
      <trkpt lat="49.50506" lon="1.32411">
        <ele>138</ele>
        <time>2026-09-01T12:38:21.111Z</time>
      </trkpt>
      <trkpt lat="49.50509" lon="1.32414">
        <ele>138</ele>
        <time>2026-09-01T12:38:25.111Z</time>
      </trkpt>
      <trkpt lat="49.50512" lon="1.32419">
        <ele>138</ele>
        <time>2026-09-01T12:38:29.439Z</time>
      </trkpt>
      <trkpt lat="49.50513" lon="1.32427">
        <ele>138</ele>
        <time>2026-09-01T12:38:33.758Z</time>
      </trkpt>
      <trkpt lat="49.50516" lon="1.32433">
        <ele>143</ele>
        <time>2026-09-01T12:38:38.077Z</time>
      </trkpt>
      <trkpt lat="49.50519" lon="1.32436">
        <ele>143</ele>
        <time>2026-09-01T12:38:42.106Z</time>
      </trkpt>
      <trkpt lat="49.50523" lon="1.32439">
        <ele>143</ele>
        <time>2026-09-01T12:38:46.676Z</time>
      </trkpt>
      <trkpt lat="49.50526" lon="1.32441">
        <ele>143</ele>
        <time>2026-09-01T12:38:51.102Z</time>
      </trkpt>
      <trkpt lat="49.50528" lon="1.32443">
        <ele>143</ele>
        <time>2026-09-01T12:38:55.102Z</time>
      </trkpt>
      <trkpt lat="49.50532" lon="1.32445">
        <ele>143</ele>
        <time>2026-09-01T12:38:59.683Z</time>
      </trkpt>
      <trkpt lat="49.50535" lon="1.32446">
        <ele>143</ele>
        <time>2026-09-01T12:39:03.824Z</time>
      </trkpt>
      <trkpt lat="49.50538" lon="1.32447">
        <ele>143</ele>
        <time>2026-09-01T12:39:08.101Z</time>
      </trkpt>
      <trkpt lat="49.50542" lon="1.3245">
        <ele>146</ele>
        <time>2026-09-01T12:39:12.860Z</time>
      </trkpt>
      <trkpt lat="49.50546" lon="1.32452">
        <ele>146</ele>
        <time>2026-09-01T12:39:17.477Z</time>
      </trkpt>
      <trkpt lat="49.5055" lon="1.32455">
        <ele>146</ele>
        <time>2026-09-01T12:39:22.044Z</time>
      </trkpt>
      <trkpt lat="49.50553" lon="1.32459">
        <ele>146</ele>
        <time>2026-09-01T12:39:26.443Z</time>
      </trkpt>
      <trkpt lat="49.50554" lon="1.32465">
        <ele>146</ele>
        <time>2026-09-01T12:39:30.981Z</time>
      </trkpt>
      <trkpt lat="49.50555" lon="1.32469">
        <ele>146</ele>
        <time>2026-09-01T12:39:35.105Z</time>
      </trkpt>
      <trkpt lat="49.50557" lon="1.32472">
        <ele>146</ele>
        <time>2026-09-01T12:39:40.036Z</time>
      </trkpt>
      <trkpt lat="49.5056" lon="1.32475">
        <ele>146</ele>
        <time>2026-09-01T12:39:44.415Z</time>
      </trkpt>
      <trkpt lat="49.50563" lon="1.32477">
        <ele>146</ele>
        <time>2026-09-01T12:39:48.784Z</time>
      </trkpt>
      <trkpt lat="49.50566" lon="1.32481">
        <ele>146</ele>
        <time>2026-09-01T12:39:53.105Z</time>
      </trkpt>
      <trkpt lat="49.50569" lon="1.32486">
        <ele>146</ele>
        <time>2026-09-01T12:39:57.363Z</time>
      </trkpt>
      <trkpt lat="49.50571" lon="1.32491">
        <ele>147</ele>
        <time>2026-09-01T12:40:01.622Z</time>
      </trkpt>
      <trkpt lat="49.50575" lon="1.32493">
        <ele>147</ele>
        <time>2026-09-01T12:40:05.783Z</time>
      </trkpt>
      <trkpt lat="49.50579" lon="1.32494">
        <ele>147</ele>
        <time>2026-09-01T12:40:10.082Z</time>
      </trkpt>
      <trkpt lat="49.50583" lon="1.32494">
        <ele>147</ele>
        <time>2026-09-01T12:40:14.421Z</time>
      </trkpt>
      <trkpt lat="49.50587" lon="1.32493">
        <ele>147</ele>
        <time>2026-09-01T12:40:18.721Z</time>
      </trkpt>
      <trkpt lat="49.50591" lon="1.32494">
        <ele>147</ele>
        <time>2026-09-01T12:40:23.107Z</time>
      </trkpt>
      <trkpt lat="49.50595" lon="1.32493">
        <ele>147</ele>
        <time>2026-09-01T12:40:27.320Z</time>
      </trkpt>
      <trkpt lat="49.506" lon="1.32488">
        <ele>149</ele>
        <time>2026-09-01T12:40:31.817Z</time>
      </trkpt>
      <trkpt lat="49.50604" lon="1.32488">
        <ele>149</ele>
        <time>2026-09-01T12:40:36.355Z</time>
      </trkpt>
      <trkpt lat="49.50607" lon="1.32491">
        <ele>149</ele>
        <time>2026-09-01T12:40:40.863Z</time>
      </trkpt>
      <trkpt lat="49.50609" lon="1.32495">
        <ele>149</ele>
        <time>2026-09-01T12:40:45.111Z</time>
      </trkpt>
      <trkpt lat="49.50611" lon="1.32501">
        <ele>149</ele>
        <time>2026-09-01T12:40:49.919Z</time>
      </trkpt>
      <trkpt lat="49.50614" lon="1.32503">
        <ele>149</ele>
        <time>2026-09-01T12:40:54.317Z</time>
      </trkpt>
      <trkpt lat="49.50617" lon="1.32508">
        <ele>149</ele>
        <time>2026-09-01T12:40:58.925Z</time>
      </trkpt>
      <trkpt lat="49.50619" lon="1.32514">
        <ele>149</ele>
        <time>2026-09-01T12:41:03.542Z</time>
      </trkpt>
      <trkpt lat="49.50622" lon="1.32518">
        <ele>149</ele>
        <time>2026-09-01T12:41:07.662Z</time>
      </trkpt>
      <trkpt lat="49.50624" lon="1.32525">
        <ele>149</ele>
        <time>2026-09-01T12:41:12.103Z</time>
      </trkpt>
      <trkpt lat="49.50626" lon="1.32533">
        <ele>150</ele>
        <time>2026-09-01T12:41:16.857Z</time>
      </trkpt>
      <trkpt lat="49.50628" lon="1.32539">
        <ele>150</ele>
        <time>2026-09-01T12:41:21.464Z</time>
      </trkpt>
      <trkpt lat="49.50631" lon="1.32544">
        <ele>150</ele>
        <time>2026-09-01T12:41:26.002Z</time>
      </trkpt>
      <trkpt lat="49.50633" lon="1.32549">
        <ele>150</ele>
        <time>2026-09-01T12:41:30.043Z</time>
      </trkpt>
      <trkpt lat="49.50637" lon="1.32551">
        <ele>150</ele>
        <time>2026-09-01T12:41:35.110Z</time>
      </trkpt>
      <trkpt lat="49.5064" lon="1.32552">
        <ele>150</ele>
        <time>2026-09-01T12:43:40.105Z</time>
      </trkpt>
      <trkpt lat="49.50643" lon="1.32551">
        <ele>150</ele>
        <time>2026-09-01T12:43:45.098Z</time>
      </trkpt>
      <trkpt lat="49.50643" lon="1.32549">
        <ele>150</ele>
        <time>2026-09-01T12:43:50.107Z</time>
      </trkpt>
      <trkpt lat="49.50644" lon="1.32549">
        <ele>150</ele>
        <time>2026-09-01T12:43:55.099Z</time>
      </trkpt>
      <trkpt lat="49.50646" lon="1.32546">
        <ele>150</ele>
        <time>2026-09-01T12:43:59.360Z</time>
      </trkpt>
      <trkpt lat="49.50652" lon="1.32546">
        <ele>150</ele>
        <time>2026-09-01T12:44:03.739Z</time>
      </trkpt>
      <trkpt lat="49.50657" lon="1.32545">
        <ele>150</ele>
        <time>2026-09-01T12:44:07.900Z</time>
      </trkpt>
      <trkpt lat="49.50661" lon="1.32541">
        <ele>150</ele>
        <time>2026-09-01T12:44:12Z</time>
      </trkpt>
      <trkpt lat="49.50667" lon="1.32538">
        <ele>150</ele>
        <time>2026-09-01T12:44:16.657Z</time>
      </trkpt>
      <trkpt lat="49.50673" lon="1.32535">
        <ele>150</ele>
        <time>2026-09-01T12:44:21.104Z</time>
      </trkpt>
      <trkpt lat="49.50677" lon="1.32532">
        <ele>150</ele>
        <time>2026-09-01T12:44:25.316Z</time>
      </trkpt>
      <trkpt lat="49.5068" lon="1.32528">
        <ele>150</ele>
        <time>2026-09-01T12:44:29.595Z</time>
      </trkpt>
      <trkpt lat="49.50684" lon="1.32523">
        <ele>151</ele>
        <time>2026-09-01T12:44:34.108Z</time>
      </trkpt>
      <trkpt lat="49.50689" lon="1.32521">
        <ele>151</ele>
        <time>2026-09-01T12:44:38.224Z</time>
      </trkpt>
      <trkpt lat="49.50695" lon="1.3252">
        <ele>151</ele>
        <time>2026-09-01T12:44:42.464Z</time>
      </trkpt>
      <trkpt lat="49.507" lon="1.32518">
        <ele>151</ele>
        <time>2026-09-01T12:44:46.565Z</time>
      </trkpt>
      <trkpt lat="49.50705" lon="1.32517">
        <ele>151</ele>
        <time>2026-09-01T12:44:50.655Z</time>
      </trkpt>
      <trkpt lat="49.50709" lon="1.32516">
        <ele>152</ele>
        <time>2026-09-01T12:44:55.100Z</time>
      </trkpt>
      <trkpt lat="49.50714" lon="1.32514">
        <ele>152</ele>
        <time>2026-09-01T12:44:59.463Z</time>
      </trkpt>
      <trkpt lat="49.50718" lon="1.32511">
        <ele>152</ele>
        <time>2026-09-01T12:45:03.683Z</time>
      </trkpt>
      <trkpt lat="49.50724" lon="1.32507">
        <ele>152</ele>
        <time>2026-09-01T12:45:08.260Z</time>
      </trkpt>
      <trkpt lat="49.50729" lon="1.32503">
        <ele>152</ele>
        <time>2026-09-01T12:45:12.877Z</time>
      </trkpt>
      <trkpt lat="49.50733" lon="1.32499">
        <ele>152</ele>
        <time>2026-09-01T12:45:17.475Z</time>
      </trkpt>
      <trkpt lat="49.50738" lon="1.32496">
        <ele>153</ele>
        <time>2026-09-01T12:45:21.457Z</time>
      </trkpt>
      <trkpt lat="49.50743" lon="1.32492">
        <ele>153</ele>
        <time>2026-09-01T12:45:25.677Z</time>
      </trkpt>
      <trkpt lat="49.50748" lon="1.32488">
        <ele>153</ele>
        <time>2026-09-01T12:45:30.102Z</time>
      </trkpt>
      <trkpt lat="49.50752" lon="1.32485">
        <ele>153</ele>
        <time>2026-09-01T12:45:34.176Z</time>
      </trkpt>
      <trkpt lat="49.50757" lon="1.3248">
        <ele>153</ele>
        <time>2026-09-01T12:45:38.744Z</time>
      </trkpt>
      <trkpt lat="49.50762" lon="1.32478">
        <ele>153</ele>
        <time>2026-09-01T12:45:42.825Z</time>
      </trkpt>
      <trkpt lat="49.50767" lon="1.32475">
        <ele>154</ele>
        <time>2026-09-01T12:45:47.343Z</time>
      </trkpt>
      <trkpt lat="49.50771" lon="1.32471">
        <ele>154</ele>
        <time>2026-09-01T12:45:51.324Z</time>
      </trkpt>
      <trkpt lat="49.50775" lon="1.32467">
        <ele>154</ele>
        <time>2026-09-01T12:45:55.455Z</time>
      </trkpt>
      <trkpt lat="49.5078" lon="1.32463">
        <ele>154</ele>
        <time>2026-09-01T12:46:00.082Z</time>
      </trkpt>
      <trkpt lat="49.50785" lon="1.32459">
        <ele>154</ele>
        <time>2026-09-01T12:46:04.659Z</time>
      </trkpt>
      <trkpt lat="49.50789" lon="1.32456">
        <ele>153</ele>
        <time>2026-09-01T12:46:09.107Z</time>
      </trkpt>
      <trkpt lat="49.50794" lon="1.32452">
        <ele>154</ele>
        <time>2026-09-01T12:46:13.824Z</time>
      </trkpt>
      <trkpt lat="49.50798" lon="1.32445">
        <ele>154</ele>
        <time>2026-09-01T12:46:18.402Z</time>
      </trkpt>
      <trkpt lat="49.50805" lon="1.32441">
        <ele>154</ele>
        <time>2026-09-01T12:46:23.019Z</time>
      </trkpt>
      <trkpt lat="49.50811" lon="1.32438">
        <ele>154</ele>
        <time>2026-09-01T12:46:27.497Z</time>
      </trkpt>
      <trkpt lat="49.50816" lon="1.32435">
        <ele>154</ele>
        <time>2026-09-01T12:46:32.085Z</time>
      </trkpt>
      <trkpt lat="49.50821" lon="1.32432">
        <ele>154</ele>
        <time>2026-09-01T12:46:36.642Z</time>
      </trkpt>
      <trkpt lat="49.50826" lon="1.32428">
        <ele>152</ele>
        <time>2026-09-01T12:46:41.107Z</time>
      </trkpt>
      <trkpt lat="49.5083" lon="1.32425">
        <ele>152</ele>
        <time>2026-09-01T12:46:45.201Z</time>
      </trkpt>
      <trkpt lat="49.50835" lon="1.32422">
        <ele>152</ele>
        <time>2026-09-01T12:46:49.719Z</time>
      </trkpt>
      <trkpt lat="49.50839" lon="1.32419">
        <ele>152</ele>
        <time>2026-09-01T12:46:53.761Z</time>
      </trkpt>
      <trkpt lat="49.50845" lon="1.32416">
        <ele>152</ele>
        <time>2026-09-01T12:46:58.318Z</time>
      </trkpt>
      <trkpt lat="49.5085" lon="1.32412">
        <ele>153</ele>
        <time>2026-09-01T12:47:02.915Z</time>
      </trkpt>
      <trkpt lat="49.50855" lon="1.32409">
        <ele>153</ele>
        <time>2026-09-01T12:47:07.523Z</time>
      </trkpt>
      <trkpt lat="49.5086" lon="1.32407">
        <ele>153</ele>
        <time>2026-09-01T12:47:12.041Z</time>
      </trkpt>
      <trkpt lat="49.50865" lon="1.32403">
        <ele>153</ele>
        <time>2026-09-01T12:47:16.062Z</time>
      </trkpt>
      <trkpt lat="49.5087" lon="1.32402">
        <ele>152</ele>
        <time>2026-09-01T12:47:20.064Z</time>
      </trkpt>
      <trkpt lat="49.50874" lon="1.32399">
        <ele>152</ele>
        <time>2026-09-01T12:47:24.098Z</time>
      </trkpt>
      <trkpt lat="49.50878" lon="1.32396">
        <ele>154</ele>
        <time>2026-09-01T12:47:28.702Z</time>
      </trkpt>
      <trkpt lat="49.50882" lon="1.32394">
        <ele>154</ele>
        <time>2026-09-01T12:47:32.764Z</time>
      </trkpt>
      <trkpt lat="49.50887" lon="1.32391">
        <ele>154</ele>
        <time>2026-09-01T12:47:37.421Z</time>
      </trkpt>
      <trkpt lat="49.50893" lon="1.32388">
        <ele>154</ele>
        <time>2026-09-01T12:47:42.018Z</time>
      </trkpt>
      <trkpt lat="49.50898" lon="1.32386">
        <ele>154</ele>
        <time>2026-09-01T12:47:46.059Z</time>
      </trkpt>
      <trkpt lat="49.50902" lon="1.32384">
        <ele>154</ele>
        <time>2026-09-01T12:47:50.107Z</time>
      </trkpt>
      <trkpt lat="49.50908" lon="1.32381">
        <ele>155</ele>
        <time>2026-09-01T12:47:54.718Z</time>
      </trkpt>
      <trkpt lat="49.50913" lon="1.32378">
        <ele>155</ele>
        <time>2026-09-01T12:47:59.365Z</time>
      </trkpt>
      <trkpt lat="49.50918" lon="1.32376">
        <ele>155</ele>
        <time>2026-09-01T12:48:03.883Z</time>
      </trkpt>
      <trkpt lat="49.50924" lon="1.32376">
        <ele>155</ele>
        <time>2026-09-01T12:48:08.460Z</time>
      </trkpt>
      <trkpt lat="49.50931" lon="1.32376">
        <ele>155</ele>
        <time>2026-09-01T12:48:12.998Z</time>
      </trkpt>
      <trkpt lat="49.50937" lon="1.32376">
        <ele>155</ele>
        <time>2026-09-01T12:48:17.575Z</time>
      </trkpt>
      <trkpt lat="49.50943" lon="1.32373">
        <ele>156</ele>
        <time>2026-09-01T12:48:22.115Z</time>
      </trkpt>
      <trkpt lat="49.50948" lon="1.32369">
        <ele>156</ele>
        <time>2026-09-01T12:48:26.283Z</time>
      </trkpt>
      <trkpt lat="49.50954" lon="1.32368">
        <ele>156</ele>
        <time>2026-09-01T12:48:30.762Z</time>
      </trkpt>
      <trkpt lat="49.50958" lon="1.32366">
        <ele>156</ele>
        <time>2026-09-01T12:48:34.942Z</time>
      </trkpt>
      <trkpt lat="49.50965" lon="1.32367">
        <ele>156</ele>
        <time>2026-09-01T12:48:39.480Z</time>
      </trkpt>
      <trkpt lat="49.5097" lon="1.32366">
        <ele>156</ele>
        <time>2026-09-01T12:48:43.501Z</time>
      </trkpt>
      <trkpt lat="49.50975" lon="1.32365">
        <ele>156</ele>
        <time>2026-09-01T12:48:47.642Z</time>
      </trkpt>
      <trkpt lat="49.50981" lon="1.32363">
        <ele>156</ele>
        <time>2026-09-01T12:48:52.103Z</time>
      </trkpt>
      <trkpt lat="49.50985" lon="1.32359">
        <ele>156</ele>
        <time>2026-09-01T12:48:56.380Z</time>
      </trkpt>
      <trkpt lat="49.5099" lon="1.32358">
        <ele>156</ele>
        <time>2026-09-01T12:49:00.600Z</time>
      </trkpt>
      <trkpt lat="49.50993" lon="1.32357">
        <ele>156</ele>
        <time>2026-09-01T12:49:04.681Z</time>
      </trkpt>
      <trkpt lat="49.50998" lon="1.32358">
        <ele>156</ele>
        <time>2026-09-01T12:49:08.702Z</time>
      </trkpt>
      <trkpt lat="49.51004" lon="1.32358">
        <ele>156</ele>
        <time>2026-09-01T12:49:13.220Z</time>
      </trkpt>
      <trkpt lat="49.51008" lon="1.32358">
        <ele>156</ele>
        <time>2026-09-01T12:49:17.837Z</time>
      </trkpt>
      <trkpt lat="49.51013" lon="1.32359">
        <ele>156</ele>
        <time>2026-09-01T12:49:22.395Z</time>
      </trkpt>
      <trkpt lat="49.51019" lon="1.3236">
        <ele>156</ele>
        <time>2026-09-01T12:49:26.456Z</time>
      </trkpt>
      <trkpt lat="49.51024" lon="1.32361">
        <ele>156</ele>
        <time>2026-09-01T12:49:30.776Z</time>
      </trkpt>
      <trkpt lat="49.51029" lon="1.32363">
        <ele>156</ele>
        <time>2026-09-01T12:49:35.423Z</time>
      </trkpt>
      <trkpt lat="49.51033" lon="1.32364">
        <ele>156</ele>
        <time>2026-09-01T12:49:39.464Z</time>
      </trkpt>
      <trkpt lat="49.51038" lon="1.32367">
        <ele>156</ele>
        <time>2026-09-01T12:49:43.704Z</time>
      </trkpt>
      <trkpt lat="49.51044" lon="1.32369">
        <ele>157</ele>
        <time>2026-09-01T12:49:47.755Z</time>
      </trkpt>
      <trkpt lat="49.51051" lon="1.32364">
        <ele>157</ele>
        <time>2026-09-01T12:50:05.102Z</time>
      </trkpt>
      <trkpt lat="49.51051" lon="1.32364">
        <ele>157</ele>
        <time>2026-09-01T12:50:09.104Z</time>
      </trkpt>
      <trkpt lat="49.51055" lon="1.32365">
        <ele>157</ele>
        <time>2026-09-01T12:50:13.104Z</time>
      </trkpt>
      <trkpt lat="49.5106" lon="1.32369">
        <ele>157</ele>
        <time>2026-09-01T12:50:17.464Z</time>
      </trkpt>
      <trkpt lat="49.51065" lon="1.32372">
        <ele>157</ele>
        <time>2026-09-01T12:50:21.704Z</time>
      </trkpt>
      <trkpt lat="49.5107" lon="1.32373">
        <ele>157</ele>
        <time>2026-09-01T12:50:25.865Z</time>
      </trkpt>
      <trkpt lat="49.51075" lon="1.32374">
        <ele>157</ele>
        <time>2026-09-01T12:50:29.936Z</time>
      </trkpt>
      <trkpt lat="49.5108" lon="1.32373">
        <ele>157</ele>
        <time>2026-09-01T12:50:33.937Z</time>
      </trkpt>
      <trkpt lat="49.51085" lon="1.32373">
        <ele>157</ele>
        <time>2026-09-01T12:50:38.105Z</time>
      </trkpt>
      <trkpt lat="49.5109" lon="1.32372">
        <ele>157</ele>
        <time>2026-09-01T12:50:42.278Z</time>
      </trkpt>
      <trkpt lat="49.51095" lon="1.32374">
        <ele>157</ele>
        <time>2026-09-01T12:50:46.438Z</time>
      </trkpt>
      <trkpt lat="49.51101" lon="1.32375">
        <ele>157</ele>
        <time>2026-09-01T12:50:50.976Z</time>
      </trkpt>
      <trkpt lat="49.51106" lon="1.32377">
        <ele>157</ele>
        <time>2026-09-01T12:50:55.057Z</time>
      </trkpt>
      <trkpt lat="49.51111" lon="1.32377">
        <ele>157</ele>
        <time>2026-09-01T12:50:59.764Z</time>
      </trkpt>
      <trkpt lat="49.51117" lon="1.32378">
        <ele>157</ele>
        <time>2026-09-01T12:51:03.964Z</time>
      </trkpt>
      <trkpt lat="49.51122" lon="1.32378">
        <ele>157</ele>
        <time>2026-09-01T12:51:08.105Z</time>
      </trkpt>
      <trkpt lat="49.51126" lon="1.32381">
        <ele>157</ele>
        <time>2026-09-01T12:51:12.107Z</time>
      </trkpt>
      <trkpt lat="49.51129" lon="1.32385">
        <ele>157</ele>
        <time>2026-09-01T12:51:16.157Z</time>
      </trkpt>
      <trkpt lat="49.51132" lon="1.32389">
        <ele>157</ele>
        <time>2026-09-01T12:51:20.437Z</time>
      </trkpt>
      <trkpt lat="49.51133" lon="1.32395">
        <ele>157</ele>
        <time>2026-09-01T12:51:24.558Z</time>
      </trkpt>
      <trkpt lat="49.51134" lon="1.32401">
        <ele>157</ele>
        <time>2026-09-01T12:51:28.778Z</time>
      </trkpt>
      <trkpt lat="49.51135" lon="1.32408">
        <ele>157</ele>
        <time>2026-09-01T12:51:32.799Z</time>
      </trkpt>
      <trkpt lat="49.51136" lon="1.32415">
        <ele>157</ele>
        <time>2026-09-01T12:51:37.059Z</time>
      </trkpt>
      <trkpt lat="49.51137" lon="1.32422">
        <ele>157</ele>
        <time>2026-09-01T12:51:41.061Z</time>
      </trkpt>
      <trkpt lat="49.51139" lon="1.32429">
        <ele>157</ele>
        <time>2026-09-01T12:51:45.102Z</time>
      </trkpt>
      <trkpt lat="49.51141" lon="1.32435">
        <ele>158</ele>
        <time>2026-09-01T12:51:49.183Z</time>
      </trkpt>
      <trkpt lat="49.51142" lon="1.32442">
        <ele>158</ele>
        <time>2026-09-01T12:51:53.463Z</time>
      </trkpt>
      <trkpt lat="49.51142" lon="1.32451">
        <ele>158</ele>
        <time>2026-09-01T12:51:58.080Z</time>
      </trkpt>
      <trkpt lat="49.51142" lon="1.32459">
        <ele>158</ele>
        <time>2026-09-01T12:52:02.757Z</time>
      </trkpt>
      <trkpt lat="49.51142" lon="1.32467">
        <ele>158</ele>
        <time>2026-09-01T12:52:06.838Z</time>
      </trkpt>
      <trkpt lat="49.51143" lon="1.32474">
        <ele>158</ele>
        <time>2026-09-01T12:52:11.100Z</time>
      </trkpt>
      <trkpt lat="49.51145" lon="1.32481">
        <ele>158</ele>
        <time>2026-09-01T12:52:15.098Z</time>
      </trkpt>
      <trkpt lat="49.51146" lon="1.32488">
        <ele>158</ele>
        <time>2026-09-01T12:52:19.098Z</time>
      </trkpt>
      <trkpt lat="49.51148" lon="1.32494">
        <ele>158</ele>
        <time>2026-09-01T12:52:23.380Z</time>
      </trkpt>
      <trkpt lat="49.51149" lon="1.32501">
        <ele>158</ele>
        <time>2026-09-01T12:52:27.620Z</time>
      </trkpt>
      <trkpt lat="49.51149" lon="1.32507">
        <ele>158</ele>
        <time>2026-09-01T12:52:31.721Z</time>
      </trkpt>
      <trkpt lat="49.5115" lon="1.32515">
        <ele>158</ele>
        <time>2026-09-01T12:52:35.961Z</time>
      </trkpt>
      <trkpt lat="49.5115" lon="1.32522">
        <ele>158</ele>
        <time>2026-09-01T12:52:40.082Z</time>
      </trkpt>
      <trkpt lat="49.5115" lon="1.3253">
        <ele>158</ele>
        <time>2026-09-01T12:52:44.401Z</time>
      </trkpt>
      <trkpt lat="49.51149" lon="1.32539">
        <ele>158</ele>
        <time>2026-09-01T12:52:48.403Z</time>
      </trkpt>
      <trkpt lat="49.51148" lon="1.32546">
        <ele>159</ele>
        <time>2026-09-01T12:52:52.662Z</time>
      </trkpt>
      <trkpt lat="49.51149" lon="1.32553">
        <ele>159</ele>
        <time>2026-09-01T12:52:56.783Z</time>
      </trkpt>
      <trkpt lat="49.51149" lon="1.3256">
        <ele>159</ele>
        <time>2026-09-01T12:53:00.944Z</time>
      </trkpt>
      <trkpt lat="49.51149" lon="1.32568">
        <ele>159</ele>
        <time>2026-09-01T12:53:05.541Z</time>
      </trkpt>
      <trkpt lat="49.51149" lon="1.32575">
        <ele>159</ele>
        <time>2026-09-01T12:53:09.642Z</time>
      </trkpt>
      <trkpt lat="49.51152" lon="1.32585">
        <ele>159</ele>
        <time>2026-09-01T12:55:52.099Z</time>
      </trkpt>
      <trkpt lat="49.51153" lon="1.32586">
        <ele>160</ele>
        <time>2026-09-01T12:55:56.106Z</time>
      </trkpt>
      <trkpt lat="49.51153" lon="1.32587">
        <ele>160</ele>
        <time>2026-09-01T12:56:02.102Z</time>
      </trkpt>
      <trkpt lat="49.51155" lon="1.3259">
        <ele>160</ele>
        <time>2026-09-01T12:56:06.102Z</time>
      </trkpt>
      <trkpt lat="49.51158" lon="1.32596">
        <ele>160</ele>
        <time>2026-09-01T12:56:10.944Z</time>
      </trkpt>
      <trkpt lat="49.51162" lon="1.32604">
        <ele>160</ele>
        <time>2026-09-01T12:56:15.363Z</time>
      </trkpt>
      <trkpt lat="49.51167" lon="1.32611">
        <ele>160</ele>
        <time>2026-09-01T12:56:19.901Z</time>
      </trkpt>
      <trkpt lat="49.51172" lon="1.32617">
        <ele>160</ele>
        <time>2026-09-01T12:56:24.379Z</time>
      </trkpt>
      <trkpt lat="49.51175" lon="1.32624">
        <ele>160</ele>
        <time>2026-09-01T12:56:28.996Z</time>
      </trkpt>
      <trkpt lat="49.51178" lon="1.3263">
        <ele>161</ele>
        <time>2026-09-01T12:56:33.603Z</time>
      </trkpt>
      <trkpt lat="49.51181" lon="1.32636">
        <ele>162</ele>
        <time>2026-09-01T12:56:38.099Z</time>
      </trkpt>
      <trkpt lat="49.51184" lon="1.32643">
        <ele>162</ele>
        <time>2026-09-01T12:56:42.098Z</time>
      </trkpt>
      <trkpt lat="49.51187" lon="1.3265">
        <ele>162</ele>
        <time>2026-09-01T12:56:46.107Z</time>
      </trkpt>
      <trkpt lat="49.51189" lon="1.32657">
        <ele>161</ele>
        <time>2026-09-01T12:56:50.176Z</time>
      </trkpt>
      <trkpt lat="49.51192" lon="1.32664">
        <ele>161</ele>
        <time>2026-09-01T12:56:54.803Z</time>
      </trkpt>
      <trkpt lat="49.51195" lon="1.32668">
        <ele>161</ele>
        <time>2026-09-01T12:56:58.884Z</time>
      </trkpt>
      <trkpt lat="49.512" lon="1.32672">
        <ele>161</ele>
        <time>2026-09-01T12:57:03.481Z</time>
      </trkpt>
      <trkpt lat="49.51205" lon="1.32674">
        <ele>161</ele>
        <time>2026-09-01T12:57:08.019Z</time>
      </trkpt>
      <trkpt lat="49.5121" lon="1.32677">
        <ele>161</ele>
        <time>2026-09-01T12:57:12.100Z</time>
      </trkpt>
      <trkpt lat="49.51215" lon="1.32679">
        <ele>161</ele>
        <time>2026-09-01T12:57:16.420Z</time>
      </trkpt>
      <trkpt lat="49.51218" lon="1.32681">
        <ele>162</ele>
        <time>2026-09-01T12:57:20.421Z</time>
      </trkpt>
      <trkpt lat="49.51223" lon="1.32683">
        <ele>162</ele>
        <time>2026-09-01T12:57:24.621Z</time>
      </trkpt>
      <trkpt lat="49.51228" lon="1.32687">
        <ele>162</ele>
        <time>2026-09-01T12:57:29.105Z</time>
      </trkpt>
      <trkpt lat="49.51232" lon="1.32691">
        <ele>162</ele>
        <time>2026-09-01T12:57:33.340Z</time>
      </trkpt>
      <trkpt lat="49.51238" lon="1.32695">
        <ele>161</ele>
        <time>2026-09-01T12:57:37.401Z</time>
      </trkpt>
      <trkpt lat="49.51243" lon="1.32697">
        <ele>161</ele>
        <time>2026-09-01T12:57:41.998Z</time>
      </trkpt>
      <trkpt lat="49.51248" lon="1.32702">
        <ele>161</ele>
        <time>2026-09-01T12:57:46.596Z</time>
      </trkpt>
      <trkpt lat="49.51253" lon="1.32707">
        <ele>161</ele>
        <time>2026-09-01T12:57:51.100Z</time>
      </trkpt>
      <trkpt lat="49.51257" lon="1.32712">
        <ele>161</ele>
        <time>2026-09-01T12:57:55.110Z</time>
      </trkpt>
      <trkpt lat="49.51262" lon="1.32717">
        <ele>161</ele>
        <time>2026-09-01T12:57:59.742Z</time>
      </trkpt>
      <trkpt lat="49.51265" lon="1.32723">
        <ele>160</ele>
        <time>2026-09-01T12:58:03.923Z</time>
      </trkpt>
      <trkpt lat="49.51269" lon="1.32728">
        <ele>160</ele>
        <time>2026-09-01T12:58:07.904Z</time>
      </trkpt>
      <trkpt lat="49.51273" lon="1.32733">
        <ele>160</ele>
        <time>2026-09-01T12:58:12.101Z</time>
      </trkpt>
      <trkpt lat="49.51277" lon="1.32738">
        <ele>161</ele>
        <time>2026-09-01T12:58:16.216Z</time>
      </trkpt>
      <trkpt lat="49.51282" lon="1.3274">
        <ele>161</ele>
        <time>2026-09-01T12:58:20.823Z</time>
      </trkpt>
      <trkpt lat="49.51285" lon="1.32743">
        <ele>161</ele>
        <time>2026-09-01T12:58:25.098Z</time>
      </trkpt>
      <trkpt lat="49.51289" lon="1.32746">
        <ele>161</ele>
        <time>2026-09-01T12:58:29.601Z</time>
      </trkpt>
      <trkpt lat="49.51293" lon="1.3275">
        <ele>160</ele>
        <time>2026-09-01T12:58:34.100Z</time>
      </trkpt>
      <trkpt lat="49.51297" lon="1.32752">
        <ele>160</ele>
        <time>2026-09-01T12:58:38.617Z</time>
      </trkpt>
      <trkpt lat="49.513" lon="1.32756">
        <ele>160</ele>
        <time>2026-09-01T12:58:43.100Z</time>
      </trkpt>
      <trkpt lat="49.51303" lon="1.32759">
        <ele>160</ele>
        <time>2026-09-01T12:58:47.682Z</time>
      </trkpt>
      <trkpt lat="49.51307" lon="1.32761">
        <ele>160</ele>
        <time>2026-09-01T12:58:52.106Z</time>
      </trkpt>
      <trkpt lat="49.51311" lon="1.32762">
        <ele>160</ele>
        <time>2026-09-01T12:58:56.222Z</time>
      </trkpt>
      <trkpt lat="49.51317" lon="1.32764">
        <ele>161</ele>
        <time>2026-09-01T12:59:00.521Z</time>
      </trkpt>
      <trkpt lat="49.51321" lon="1.32768">
        <ele>161</ele>
        <time>2026-09-01T12:59:04.602Z</time>
      </trkpt>
      <trkpt lat="49.51324" lon="1.32773">
        <ele>161</ele>
        <time>2026-09-01T12:59:08.882Z</time>
      </trkpt>
      <trkpt lat="49.51328" lon="1.32778">
        <ele>161</ele>
        <time>2026-09-01T12:59:13.003Z</time>
      </trkpt>
      <trkpt lat="49.51331" lon="1.32781">
        <ele>161</ele>
        <time>2026-09-01T12:59:17.109Z</time>
      </trkpt>
      <trkpt lat="49.51336" lon="1.32785">
        <ele>161</ele>
        <time>2026-09-01T12:59:21.383Z</time>
      </trkpt>
      <trkpt lat="49.51342" lon="1.32787">
        <ele>161</ele>
        <time>2026-09-01T12:59:25.524Z</time>
      </trkpt>
      <trkpt lat="49.51346" lon="1.32791">
        <ele>161</ele>
        <time>2026-09-01T12:59:29.575Z</time>
      </trkpt>
      <trkpt lat="49.51351" lon="1.32792">
        <ele>160</ele>
        <time>2026-09-01T12:59:33.775Z</time>
      </trkpt>
      <trkpt lat="49.51356" lon="1.3279">
        <ele>161</ele>
        <time>2026-09-01T12:59:37.797Z</time>
      </trkpt>
      <trkpt lat="49.51358" lon="1.32788">
        <ele>161</ele>
        <time>2026-09-01T12:59:42.099Z</time>
      </trkpt>
      <trkpt lat="49.51362" lon="1.32789">
        <ele>161</ele>
        <time>2026-09-01T12:59:46.743Z</time>
      </trkpt>
      <trkpt lat="49.51366" lon="1.3279">
        <ele>161</ele>
        <time>2026-09-01T12:59:51.100Z</time>
      </trkpt>
      <trkpt lat="49.51371" lon="1.32791">
        <ele>161</ele>
        <time>2026-09-01T12:59:55.422Z</time>
      </trkpt>
      <trkpt lat="49.51376" lon="1.32792">
        <ele>161</ele>
        <time>2026-09-01T12:59:59.662Z</time>
      </trkpt>
      <trkpt lat="49.51381" lon="1.32793">
        <ele>160</ele>
        <time>2026-09-01T13:00:03.683Z</time>
      </trkpt>
      <trkpt lat="49.51386" lon="1.32794">
        <ele>160</ele>
        <time>2026-09-01T13:00:07.824Z</time>
      </trkpt>
      <trkpt lat="49.51392" lon="1.32794">
        <ele>160</ele>
        <time>2026-09-01T13:00:12.461Z</time>
      </trkpt>
      <trkpt lat="49.51398" lon="1.32794">
        <ele>160</ele>
        <time>2026-09-01T13:00:17.059Z</time>
      </trkpt>
      <trkpt lat="49.51402" lon="1.32795">
        <ele>160</ele>
        <time>2026-09-01T13:00:21.109Z</time>
      </trkpt>
      <trkpt lat="49.51408" lon="1.32797">
        <ele>160</ele>
        <time>2026-09-01T13:00:25.737Z</time>
      </trkpt>
      <trkpt lat="49.51412" lon="1.32797">
        <ele>160</ele>
        <time>2026-09-01T13:00:29.818Z</time>
      </trkpt>
      <trkpt lat="49.51417" lon="1.32797">
        <ele>160</ele>
        <time>2026-09-01T13:00:33.919Z</time>
      </trkpt>
      <trkpt lat="49.51421" lon="1.32797">
        <ele>160</ele>
        <time>2026-09-01T13:00:38.080Z</time>
      </trkpt>
      <trkpt lat="49.51427" lon="1.32797">
        <ele>160</ele>
        <time>2026-09-01T13:00:42.816Z</time>
      </trkpt>
      <trkpt lat="49.51431" lon="1.32797">
        <ele>160</ele>
        <time>2026-09-01T13:00:46.897Z</time>
      </trkpt>
      <trkpt lat="49.51437" lon="1.32797">
        <ele>160</ele>
        <time>2026-09-01T13:00:51.058Z</time>
      </trkpt>
      <trkpt lat="49.51443" lon="1.32798">
        <ele>160</ele>
        <time>2026-09-01T13:00:55.635Z</time>
      </trkpt>
      <trkpt lat="49.51449" lon="1.32799">
        <ele>160</ele>
        <time>2026-09-01T13:01:00.282Z</time>
      </trkpt>
      <trkpt lat="49.51455" lon="1.32798">
        <ele>160</ele>
        <time>2026-09-01T13:01:04.383Z</time>
      </trkpt>
      <trkpt lat="49.5146" lon="1.32797">
        <ele>160</ele>
        <time>2026-09-01T13:01:08.881Z</time>
      </trkpt>
      <trkpt lat="49.51465" lon="1.32795">
        <ele>160</ele>
        <time>2026-09-01T13:01:12.962Z</time>
      </trkpt>
      <trkpt lat="49.5147" lon="1.32794">
        <ele>160</ele>
        <time>2026-09-01T13:01:17.004Z</time>
      </trkpt>
      <trkpt lat="49.51474" lon="1.32793">
        <ele>160</ele>
        <time>2026-09-01T13:01:21.105Z</time>
      </trkpt>
      <trkpt lat="49.51479" lon="1.32794">
        <ele>160</ele>
        <time>2026-09-01T13:01:25.196Z</time>
      </trkpt>
      <trkpt lat="49.51484" lon="1.32793">
        <ele>160</ele>
        <time>2026-09-01T13:01:29.257Z</time>
      </trkpt>
      <trkpt lat="49.51488" lon="1.32791">
        <ele>159</ele>
        <time>2026-09-01T13:01:33.298Z</time>
      </trkpt>
      <trkpt lat="49.51493" lon="1.32791">
        <ele>159</ele>
        <time>2026-09-01T13:01:37.459Z</time>
      </trkpt>
      <trkpt lat="49.515" lon="1.3279">
        <ele>159</ele>
        <time>2026-09-01T13:01:41.957Z</time>
      </trkpt>
      <trkpt lat="49.51506" lon="1.3279">
        <ele>159</ele>
        <time>2026-09-01T13:01:46.564Z</time>
      </trkpt>
      <trkpt lat="49.5151" lon="1.32788">
        <ele>159</ele>
        <time>2026-09-01T13:01:50.675Z</time>
      </trkpt>
      <trkpt lat="49.51515" lon="1.32787">
        <ele>157</ele>
        <time>2026-09-01T13:01:54.816Z</time>
      </trkpt>
      <trkpt lat="49.51519" lon="1.32785">
        <ele>157</ele>
        <time>2026-09-01T13:01:58.877Z</time>
      </trkpt>
      <trkpt lat="49.51523" lon="1.32782">
        <ele>157</ele>
        <time>2026-09-01T13:02:03.077Z</time>
      </trkpt>
      <trkpt lat="49.51528" lon="1.3278">
        <ele>157</ele>
        <time>2026-09-01T13:02:07.704Z</time>
      </trkpt>
      <trkpt lat="49.51533" lon="1.32778">
        <ele>157</ele>
        <time>2026-09-01T13:02:11.696Z</time>
      </trkpt>
      <trkpt lat="49.51537" lon="1.32777">
        <ele>157</ele>
        <time>2026-09-01T13:02:15.678Z</time>
      </trkpt>
      <trkpt lat="49.51542" lon="1.32777">
        <ele>156</ele>
        <time>2026-09-01T13:02:20.099Z</time>
      </trkpt>
      <trkpt lat="49.51547" lon="1.32776">
        <ele>156</ele>
        <time>2026-09-01T13:02:24.317Z</time>
      </trkpt>
      <trkpt lat="49.51551" lon="1.32774">
        <ele>156</ele>
        <time>2026-09-01T13:02:28.656Z</time>
      </trkpt>
      <trkpt lat="49.51555" lon="1.32772">
        <ele>156</ele>
        <time>2026-09-01T13:02:32.936Z</time>
      </trkpt>
      <trkpt lat="49.51559" lon="1.32769">
        <ele>156</ele>
        <time>2026-09-01T13:02:37.057Z</time>
      </trkpt>
      <trkpt lat="49.51564" lon="1.32768">
        <ele>156</ele>
        <time>2026-09-01T13:02:41.684Z</time>
      </trkpt>
      <trkpt lat="49.51569" lon="1.32767">
        <ele>156</ele>
        <time>2026-09-01T13:02:45.695Z</time>
      </trkpt>
      <trkpt lat="49.51575" lon="1.32766">
        <ele>156</ele>
        <time>2026-09-01T13:02:50.342Z</time>
      </trkpt>
      <trkpt lat="49.5158" lon="1.32764">
        <ele>156</ele>
        <time>2026-09-01T13:02:54.364Z</time>
      </trkpt>
      <trkpt lat="49.51585" lon="1.32762">
        <ele>155</ele>
        <time>2026-09-01T13:02:58.435Z</time>
      </trkpt>
      <trkpt lat="49.5159" lon="1.32759">
        <ele>155</ele>
        <time>2026-09-01T13:03:02.963Z</time>
      </trkpt>
      <trkpt lat="49.51595" lon="1.32756">
        <ele>155</ele>
        <time>2026-09-01T13:03:07.064Z</time>
      </trkpt>
      <trkpt lat="49.51601" lon="1.32754">
        <ele>155</ele>
        <time>2026-09-01T13:03:11.681Z</time>
      </trkpt>
      <trkpt lat="49.51606" lon="1.32753">
        <ele>155</ele>
        <time>2026-09-01T13:03:16.101Z</time>
      </trkpt>
      <trkpt lat="49.51611" lon="1.32753">
        <ele>155</ele>
        <time>2026-09-01T13:03:20.141Z</time>
      </trkpt>
      <trkpt lat="49.51617" lon="1.32752">
        <ele>155</ele>
        <time>2026-09-01T13:03:24.620Z</time>
      </trkpt>
      <trkpt lat="49.51622" lon="1.32749">
        <ele>155</ele>
        <time>2026-09-01T13:03:29.098Z</time>
      </trkpt>
      <trkpt lat="49.51626" lon="1.32746">
        <ele>154</ele>
        <time>2026-09-01T13:03:33.102Z</time>
      </trkpt>
      <trkpt lat="49.51631" lon="1.32742">
        <ele>154</ele>
        <time>2026-09-01T13:03:37.260Z</time>
      </trkpt>
      <trkpt lat="49.51636" lon="1.32741">
        <ele>154</ele>
        <time>2026-09-01T13:03:41.758Z</time>
      </trkpt>
      <trkpt lat="49.51641" lon="1.3274">
        <ele>154</ele>
        <time>2026-09-01T13:03:45.780Z</time>
      </trkpt>
      <trkpt lat="49.51647" lon="1.32738">
        <ele>154</ele>
        <time>2026-09-01T13:03:50.397Z</time>
      </trkpt>
      <trkpt lat="49.51653" lon="1.32736">
        <ele>154</ele>
        <time>2026-09-01T13:03:55.084Z</time>
      </trkpt>
      <trkpt lat="49.51658" lon="1.32733">
        <ele>153</ele>
        <time>2026-09-01T13:03:59.642Z</time>
      </trkpt>
      <trkpt lat="49.51664" lon="1.32732">
        <ele>153</ele>
        <time>2026-09-01T13:04:04.099Z</time>
      </trkpt>
      <trkpt lat="49.51669" lon="1.32729">
        <ele>153</ele>
        <time>2026-09-01T13:04:08.658Z</time>
      </trkpt>
      <trkpt lat="49.51674" lon="1.32727">
        <ele>153</ele>
        <time>2026-09-01T13:04:13.105Z</time>
      </trkpt>
      <trkpt lat="49.51679" lon="1.32726">
        <ele>153</ele>
        <time>2026-09-01T13:04:17.197Z</time>
      </trkpt>
      <trkpt lat="49.51684" lon="1.32725">
        <ele>153</ele>
        <time>2026-09-01T13:04:21.417Z</time>
      </trkpt>
      <trkpt lat="49.5169" lon="1.32723">
        <ele>153</ele>
        <time>2026-09-01T13:04:26.065Z</time>
      </trkpt>
      <trkpt lat="49.51696" lon="1.32721">
        <ele>153</ele>
        <time>2026-09-01T13:04:30.722Z</time>
      </trkpt>
      <trkpt lat="49.517" lon="1.32718">
        <ele>153</ele>
        <time>2026-09-01T13:04:35.339Z</time>
      </trkpt>
      <trkpt lat="49.51706" lon="1.32715">
        <ele>153</ele>
        <time>2026-09-01T13:04:39.897Z</time>
      </trkpt>
      <trkpt lat="49.51711" lon="1.32713">
        <ele>154</ele>
        <time>2026-09-01T13:04:44.504Z</time>
      </trkpt>
      <trkpt lat="49.51716" lon="1.32712">
        <ele>154</ele>
        <time>2026-09-01T13:04:48.516Z</time>
      </trkpt>
      <trkpt lat="49.51726" lon="1.32704">
        <ele>153</ele>
        <time>2026-09-01T13:05:17.104Z</time>
      </trkpt>
      <trkpt lat="49.51726" lon="1.32704">
        <ele>153</ele>
        <time>2026-09-01T13:05:21.107Z</time>
      </trkpt>
      <trkpt lat="49.51727" lon="1.32704">
        <ele>153</ele>
        <time>2026-09-01T13:05:26.103Z</time>
      </trkpt>
      <trkpt lat="49.51727" lon="1.32704">
        <ele>153</ele>
        <time>2026-09-01T13:05:32.104Z</time>
      </trkpt>
      <trkpt lat="49.51728" lon="1.32701">
        <ele>153</ele>
        <time>2026-09-01T13:05:36.943Z</time>
      </trkpt>
      <trkpt lat="49.51731" lon="1.32696">
        <ele>153</ele>
        <time>2026-09-01T13:05:50.103Z</time>
      </trkpt>
      <trkpt lat="49.51732" lon="1.32694">
        <ele>153</ele>
        <time>2026-09-01T13:05:54.104Z</time>
      </trkpt>
      <trkpt lat="49.51735" lon="1.32687">
        <ele>153</ele>
        <time>2026-09-01T13:05:58.381Z</time>
      </trkpt>
      <trkpt lat="49.51737" lon="1.3268">
        <ele>154</ele>
        <time>2026-09-01T13:06:03.098Z</time>
      </trkpt>
      <trkpt lat="49.5174" lon="1.32676">
        <ele>154</ele>
        <time>2026-09-01T13:06:07.477Z</time>
      </trkpt>
      <trkpt lat="49.51745" lon="1.32666">
        <ele>154</ele>
        <time>2026-09-01T13:06:21.100Z</time>
      </trkpt>
      <trkpt lat="49.51745" lon="1.32666">
        <ele>154</ele>
        <time>2026-09-01T13:06:27.103Z</time>
      </trkpt>
      <trkpt lat="49.51745" lon="1.32664">
        <ele>154</ele>
        <time>2026-09-01T13:06:31.278Z</time>
      </trkpt>
      <trkpt lat="49.51741" lon="1.32656">
        <ele>154</ele>
        <time>2026-09-01T13:06:35.836Z</time>
      </trkpt>
      <trkpt lat="49.51736" lon="1.3265">
        <ele>153</ele>
        <time>2026-09-01T13:06:39.977Z</time>
      </trkpt>
      <trkpt lat="49.51732" lon="1.32645">
        <ele>152</ele>
        <time>2026-09-01T13:06:44.098Z</time>
      </trkpt>
      <trkpt lat="49.51728" lon="1.3264">
        <ele>152</ele>
        <time>2026-09-01T13:06:48.079Z</time>
      </trkpt>
      <trkpt lat="49.51724" lon="1.32634">
        <ele>152</ele>
        <time>2026-09-01T13:06:52.717Z</time>
      </trkpt>
      <trkpt lat="49.51719" lon="1.32628">
        <ele>152</ele>
        <time>2026-09-01T13:06:57.225Z</time>
      </trkpt>
      <trkpt lat="49.51716" lon="1.32622">
        <ele>152</ele>
        <time>2026-09-01T13:07:01.703Z</time>
      </trkpt>
      <trkpt lat="49.51713" lon="1.32615">
        <ele>152</ele>
        <time>2026-09-01T13:07:05.744Z</time>
      </trkpt>
      <trkpt lat="49.51709" lon="1.32609">
        <ele>152</ele>
        <time>2026-09-01T13:07:10.099Z</time>
      </trkpt>
      <trkpt lat="49.51705" lon="1.32603">
        <ele>151</ele>
        <time>2026-09-01T13:07:14.741Z</time>
      </trkpt>
      <trkpt lat="49.51702" lon="1.32596">
        <ele>151</ele>
        <time>2026-09-01T13:07:19.279Z</time>
      </trkpt>
      <trkpt lat="49.51697" lon="1.32591">
        <ele>151</ele>
        <time>2026-09-01T13:07:23.777Z</time>
      </trkpt>
      <trkpt lat="49.51693" lon="1.32585">
        <ele>151</ele>
        <time>2026-09-01T13:07:28.344Z</time>
      </trkpt>
      <trkpt lat="49.51689" lon="1.32579">
        <ele>151</ele>
        <time>2026-09-01T13:07:32.396Z</time>
      </trkpt>
      <trkpt lat="49.51687" lon="1.32572">
        <ele>151</ele>
        <time>2026-09-01T13:07:36.805Z</time>
      </trkpt>
      <trkpt lat="49.51684" lon="1.32567">
        <ele>150</ele>
        <time>2026-09-01T13:07:40.777Z</time>
      </trkpt>
      <trkpt lat="49.5168" lon="1.32569">
        <ele>149</ele>
        <time>2026-09-01T13:07:45.017Z</time>
      </trkpt>
      <trkpt lat="49.51677" lon="1.32565">
        <ele>149</ele>
        <time>2026-09-01T13:07:49.099Z</time>
      </trkpt>
      <trkpt lat="49.51674" lon="1.32551">
        <ele>149</ele>
        <time>2026-09-01T13:08:42.099Z</time>
      </trkpt>
      <trkpt lat="49.51675" lon="1.3255">
        <ele>149</ele>
        <time>2026-09-01T13:08:46.343Z</time>
      </trkpt>
      <trkpt lat="49.51678" lon="1.32548">
        <ele>149</ele>
        <time>2026-09-01T13:08:51Z</time>
      </trkpt>
      <trkpt lat="49.51683" lon="1.32544">
        <ele>150</ele>
        <time>2026-09-01T13:08:55.001Z</time>
      </trkpt>
      <trkpt lat="49.51687" lon="1.32538">
        <ele>150</ele>
        <time>2026-09-01T13:08:59.400Z</time>
      </trkpt>
      <trkpt lat="49.5169" lon="1.32533">
        <ele>150</ele>
        <time>2026-09-01T13:09:03.680Z</time>
      </trkpt>
      <trkpt lat="49.51693" lon="1.32527">
        <ele>150</ele>
        <time>2026-09-01T13:09:07.940Z</time>
      </trkpt>
      <trkpt lat="49.51697" lon="1.32521">
        <ele>150</ele>
        <time>2026-09-01T13:09:12.094Z</time>
      </trkpt>
      <trkpt lat="49.51701" lon="1.32517">
        <ele>150</ele>
        <time>2026-09-01T13:09:16.100Z</time>
      </trkpt>
      <trkpt lat="49.51705" lon="1.32512">
        <ele>150</ele>
        <time>2026-09-01T13:09:20.561Z</time>
      </trkpt>
      <trkpt lat="49.51709" lon="1.32508">
        <ele>151</ele>
        <time>2026-09-01T13:09:25.100Z</time>
      </trkpt>
      <trkpt lat="49.51715" lon="1.32504">
        <ele>151</ele>
        <time>2026-09-01T13:09:29.636Z</time>
      </trkpt>
      <trkpt lat="49.51718" lon="1.32499">
        <ele>151</ele>
        <time>2026-09-01T13:09:34.106Z</time>
      </trkpt>
      <trkpt lat="49.5172" lon="1.32493">
        <ele>151</ele>
        <time>2026-09-01T13:09:38.742Z</time>
      </trkpt>
      <trkpt lat="49.51722" lon="1.3249">
        <ele>151</ele>
        <time>2026-09-01T13:09:42.784Z</time>
      </trkpt>
      <trkpt lat="49.51724" lon="1.32488">
        <ele>151</ele>
        <time>2026-09-01T13:09:46.885Z</time>
      </trkpt>
      <trkpt lat="49.51725" lon="1.32484">
        <ele>152</ele>
        <time>2026-09-01T13:09:50.936Z</time>
      </trkpt>
      <trkpt lat="49.51727" lon="1.32479">
        <ele>152</ele>
        <time>2026-09-01T13:09:55.017Z</time>
      </trkpt>
      <trkpt lat="49.51731" lon="1.32476">
        <ele>152</ele>
        <time>2026-09-01T13:09:59.297Z</time>
      </trkpt>
      <trkpt lat="49.51736" lon="1.32472">
        <ele>152</ele>
        <time>2026-09-01T13:10:04.043Z</time>
      </trkpt>
      <trkpt lat="49.51739" lon="1.3247">
        <ele>153</ele>
        <time>2026-09-01T13:10:08.601Z</time>
      </trkpt>
      <trkpt lat="49.51742" lon="1.32466">
        <ele>153</ele>
        <time>2026-09-01T13:10:13.020Z</time>
      </trkpt>
      <trkpt lat="49.51744" lon="1.32462">
        <ele>153</ele>
        <time>2026-09-01T13:10:17.098Z</time>
      </trkpt>
      <trkpt lat="49.51747" lon="1.32458">
        <ele>155</ele>
        <time>2026-09-01T13:10:21.738Z</time>
      </trkpt>
      <trkpt lat="49.5175" lon="1.32453">
        <ele>155</ele>
        <time>2026-09-01T13:10:25.879Z</time>
      </trkpt>
      <trkpt lat="49.51752" lon="1.32449">
        <ele>155</ele>
        <time>2026-09-01T13:10:30.103Z</time>
      </trkpt>
      <trkpt lat="49.51756" lon="1.32444">
        <ele>155</ele>
        <time>2026-09-01T13:10:34.657Z</time>
      </trkpt>
      <trkpt lat="49.51758" lon="1.3244">
        <ele>155</ele>
        <time>2026-09-01T13:10:38.877Z</time>
      </trkpt>
      <trkpt lat="49.51763" lon="1.32437">
        <ele>155</ele>
        <time>2026-09-01T13:10:43.101Z</time>
      </trkpt>
      <trkpt lat="49.51766" lon="1.32434">
        <ele>155</ele>
        <time>2026-09-01T13:10:47.377Z</time>
      </trkpt>
      <trkpt lat="49.51769" lon="1.32429">
        <ele>156</ele>
        <time>2026-09-01T13:10:51.398Z</time>
      </trkpt>
      <trkpt lat="49.51771" lon="1.32425">
        <ele>156</ele>
        <time>2026-09-01T13:10:55.658Z</time>
      </trkpt>
      <trkpt lat="49.51774" lon="1.32422">
        <ele>156</ele>
        <time>2026-09-01T13:10:59.878Z</time>
      </trkpt>
      <trkpt lat="49.51778" lon="1.32419">
        <ele>156</ele>
        <time>2026-09-01T13:11:03.999Z</time>
      </trkpt>
      <trkpt lat="49.51782" lon="1.32416">
        <ele>156</ele>
        <time>2026-09-01T13:11:08.080Z</time>
      </trkpt>
      <trkpt lat="49.51785" lon="1.32411">
        <ele>156</ele>
        <time>2026-09-01T13:11:12.578Z</time>
      </trkpt>
      <trkpt lat="49.51788" lon="1.32407">
        <ele>156</ele>
        <time>2026-09-01T13:11:17.101Z</time>
      </trkpt>
      <trkpt lat="49.51791" lon="1.32403">
        <ele>156</ele>
        <time>2026-09-01T13:11:21.396Z</time>
      </trkpt>
      <trkpt lat="49.51793" lon="1.32397">
        <ele>157</ele>
        <time>2026-09-01T13:11:25.676Z</time>
      </trkpt>
      <trkpt lat="49.51794" lon="1.32392">
        <ele>157</ele>
        <time>2026-09-01T13:11:29.797Z</time>
      </trkpt>
      <trkpt lat="49.51796" lon="1.32385">
        <ele>157</ele>
        <time>2026-09-01T13:11:34.056Z</time>
      </trkpt>
      <trkpt lat="49.518" lon="1.3238">
        <ele>157</ele>
        <time>2026-09-01T13:11:38.644Z</time>
      </trkpt>
      <trkpt lat="49.51803" lon="1.32376">
        <ele>157</ele>
        <time>2026-09-01T13:11:42.864Z</time>
      </trkpt>
      <trkpt lat="49.51803" lon="1.32374">
        <ele>158</ele>
        <time>2026-09-01T13:11:47.104Z</time>
      </trkpt>
      <trkpt lat="49.51802" lon="1.32367">
        <ele>158</ele>
        <time>2026-09-01T13:11:51.821Z</time>
      </trkpt>
      <trkpt lat="49.51806" lon="1.32363">
        <ele>158</ele>
        <time>2026-09-01T13:11:56.103Z</time>
      </trkpt>
      <trkpt lat="49.51809" lon="1.32356">
        <ele>158</ele>
        <time>2026-09-01T13:12:00.579Z</time>
      </trkpt>
      <trkpt lat="49.51812" lon="1.3235">
        <ele>158</ele>
        <time>2026-09-01T13:12:04.978Z</time>
      </trkpt>
      <trkpt lat="49.51816" lon="1.32345">
        <ele>158</ele>
        <time>2026-09-01T13:12:09.496Z</time>
      </trkpt>
      <trkpt lat="49.51819" lon="1.32339">
        <ele>158</ele>
        <time>2026-09-01T13:12:13.835Z</time>
      </trkpt>
      <trkpt lat="49.51822" lon="1.32334">
        <ele>159</ele>
        <time>2026-09-01T13:12:18.075Z</time>
      </trkpt>
      <trkpt lat="49.51825" lon="1.32328">
        <ele>159</ele>
        <time>2026-09-01T13:12:22.099Z</time>
      </trkpt>
      <trkpt lat="49.51829" lon="1.32322">
        <ele>159</ele>
        <time>2026-09-01T13:12:26.436Z</time>
      </trkpt>
      <trkpt lat="49.51833" lon="1.32317">
        <ele>159</ele>
        <time>2026-09-01T13:12:30.656Z</time>
      </trkpt>
      <trkpt lat="49.51837" lon="1.32312">
        <ele>159</ele>
        <time>2026-09-01T13:12:34.797Z</time>
      </trkpt>
      <trkpt lat="49.5184" lon="1.32307">
        <ele>159</ele>
        <time>2026-09-01T13:12:39.102Z</time>
      </trkpt>
      <trkpt lat="49.51843" lon="1.32302">
        <ele>159</ele>
        <time>2026-09-01T13:12:43.336Z</time>
      </trkpt>
      <trkpt lat="49.51846" lon="1.32295">
        <ele>159</ele>
        <time>2026-09-01T13:12:47.556Z</time>
      </trkpt>
      <trkpt lat="49.51849" lon="1.3229">
        <ele>160</ele>
        <time>2026-09-01T13:12:51.578Z</time>
      </trkpt>
      <trkpt lat="49.51853" lon="1.32284">
        <ele>160</ele>
        <time>2026-09-01T13:12:55.798Z</time>
      </trkpt>
      <trkpt lat="49.51856" lon="1.3228">
        <ele>160</ele>
        <time>2026-09-01T13:12:59.879Z</time>
      </trkpt>
      <trkpt lat="49.51859" lon="1.32275">
        <ele>160</ele>
        <time>2026-09-01T13:13:04.099Z</time>
      </trkpt>
      <trkpt lat="49.51862" lon="1.32271">
        <ele>160</ele>
        <time>2026-09-01T13:13:08.099Z</time>
      </trkpt>
      <trkpt lat="49.51864" lon="1.32264">
        <ele>160</ele>
        <time>2026-09-01T13:13:12.361Z</time>
      </trkpt>
      <trkpt lat="49.51866" lon="1.32258">
        <ele>160</ele>
        <time>2026-09-01T13:13:16.581Z</time>
      </trkpt>
      <trkpt lat="49.51869" lon="1.3225">
        <ele>160</ele>
        <time>2026-09-01T13:13:20.682Z</time>
      </trkpt>
      <trkpt lat="49.51873" lon="1.32245">
        <ele>160</ele>
        <time>2026-09-01T13:13:24.783Z</time>
      </trkpt>
      <trkpt lat="49.51877" lon="1.32242">
        <ele>162</ele>
        <time>2026-09-01T13:13:28.944Z</time>
      </trkpt>
      <trkpt lat="49.51879" lon="1.32236">
        <ele>162</ele>
        <time>2026-09-01T13:13:33.105Z</time>
      </trkpt>
      <trkpt lat="49.51882" lon="1.32229">
        <ele>161</ele>
        <time>2026-09-01T13:13:37.781Z</time>
      </trkpt>
      <trkpt lat="49.51886" lon="1.32222">
        <ele>161</ele>
        <time>2026-09-01T13:13:41.981Z</time>
      </trkpt>
      <trkpt lat="49.51888" lon="1.32217">
        <ele>161</ele>
        <time>2026-09-01T13:13:46.102Z</time>
      </trkpt>
      <trkpt lat="49.51891" lon="1.32212">
        <ele>161</ele>
        <time>2026-09-01T13:13:50.263Z</time>
      </trkpt>
      <trkpt lat="49.51895" lon="1.32206">
        <ele>160</ele>
        <time>2026-09-01T13:13:54.403Z</time>
      </trkpt>
      <trkpt lat="49.51898" lon="1.32201">
        <ele>160</ele>
        <time>2026-09-01T13:13:58.604Z</time>
      </trkpt>
      <trkpt lat="49.519" lon="1.32196">
        <ele>160</ele>
        <time>2026-09-01T13:14:02.635Z</time>
      </trkpt>
      <trkpt lat="49.51905" lon="1.32194">
        <ele>162</ele>
        <time>2026-09-01T13:14:06.855Z</time>
      </trkpt>
      <trkpt lat="49.5191" lon="1.32189">
        <ele>162</ele>
        <time>2026-09-01T13:14:10.936Z</time>
      </trkpt>
      <trkpt lat="49.51913" lon="1.32184">
        <ele>162</ele>
        <time>2026-09-01T13:14:15.095Z</time>
      </trkpt>
      <trkpt lat="49.51917" lon="1.32176">
        <ele>161</ele>
        <time>2026-09-01T13:14:19.317Z</time>
      </trkpt>
      <trkpt lat="49.51921" lon="1.3217">
        <ele>161</ele>
        <time>2026-09-01T13:14:23.358Z</time>
      </trkpt>
      <trkpt lat="49.51925" lon="1.32165">
        <ele>161</ele>
        <time>2026-09-01T13:14:27.400Z</time>
      </trkpt>
      <trkpt lat="49.51927" lon="1.3216">
        <ele>161</ele>
        <time>2026-09-01T13:14:31.481Z</time>
      </trkpt>
      <trkpt lat="49.5193" lon="1.32156">
        <ele>161</ele>
        <time>2026-09-01T13:14:35.542Z</time>
      </trkpt>
      <trkpt lat="49.51931" lon="1.32151">
        <ele>160</ele>
        <time>2026-09-01T13:14:39.643Z</time>
      </trkpt>
      <trkpt lat="49.51932" lon="1.32143">
        <ele>160</ele>
        <time>2026-09-01T13:14:43.804Z</time>
      </trkpt>
      <trkpt lat="49.51936" lon="1.32139">
        <ele>160</ele>
        <time>2026-09-01T13:14:47.944Z</time>
      </trkpt>
      <trkpt lat="49.5194" lon="1.32135">
        <ele>160</ele>
        <time>2026-09-01T13:14:51.976Z</time>
      </trkpt>
      <trkpt lat="49.51944" lon="1.32131">
        <ele>160</ele>
        <time>2026-09-01T13:14:56.097Z</time>
      </trkpt>
      <trkpt lat="49.5195" lon="1.32123">
        <ele>157</ele>
        <time>2026-09-01T13:15:00.784Z</time>
      </trkpt>
      <trkpt lat="49.51953" lon="1.32115">
        <ele>157</ele>
        <time>2026-09-01T13:15:04.835Z</time>
      </trkpt>
      <trkpt lat="49.51955" lon="1.32108">
        <ele>157</ele>
        <time>2026-09-01T13:15:09.095Z</time>
      </trkpt>
      <trkpt lat="49.51958" lon="1.32103">
        <ele>157</ele>
        <time>2026-09-01T13:15:13.315Z</time>
      </trkpt>
      <trkpt lat="49.51961" lon="1.32099">
        <ele>157</ele>
        <time>2026-09-01T13:15:17.724Z</time>
      </trkpt>
      <trkpt lat="49.51965" lon="1.32098">
        <ele>157</ele>
        <time>2026-09-01T13:15:21.864Z</time>
      </trkpt>
      <trkpt lat="49.51969" lon="1.32092">
        <ele>155</ele>
        <time>2026-09-01T13:15:26.090Z</time>
      </trkpt>
      <trkpt lat="49.51971" lon="1.32086">
        <ele>155</ele>
        <time>2026-09-01T13:15:30.583Z</time>
      </trkpt>
      <trkpt lat="49.51974" lon="1.3208">
        <ele>155</ele>
        <time>2026-09-01T13:15:35.021Z</time>
      </trkpt>
      <trkpt lat="49.51976" lon="1.32074">
        <ele>155</ele>
        <time>2026-09-01T13:15:39.182Z</time>
      </trkpt>
      <trkpt lat="49.51979" lon="1.32067">
        <ele>154</ele>
        <time>2026-09-01T13:15:43.362Z</time>
      </trkpt>
      <trkpt lat="49.51982" lon="1.32061">
        <ele>154</ele>
        <time>2026-09-01T13:15:47.582Z</time>
      </trkpt>
      <trkpt lat="49.51984" lon="1.32055">
        <ele>154</ele>
        <time>2026-09-01T13:15:51.644Z</time>
      </trkpt>
      <trkpt lat="49.51987" lon="1.32049">
        <ele>155</ele>
        <time>2026-09-01T13:15:56.095Z</time>
      </trkpt>
      <trkpt lat="49.5199" lon="1.32044">
        <ele>155</ele>
        <time>2026-09-01T13:16:00.481Z</time>
      </trkpt>
      <trkpt lat="49.51991" lon="1.32038">
        <ele>155</ele>
        <time>2026-09-01T13:16:05.096Z</time>
      </trkpt>
      <trkpt lat="49.51993" lon="1.32033">
        <ele>155</ele>
        <time>2026-09-01T13:16:09.099Z</time>
      </trkpt>
      <trkpt lat="49.51996" lon="1.32028">
        <ele>155</ele>
        <time>2026-09-01T13:16:13.519Z</time>
      </trkpt>
      <trkpt lat="49.52" lon="1.32023">
        <ele>155</ele>
        <time>2026-09-01T13:16:17.679Z</time>
      </trkpt>
      <trkpt lat="49.52003" lon="1.32018">
        <ele>155</ele>
        <time>2026-09-01T13:16:21.800Z</time>
      </trkpt>
      <trkpt lat="49.52006" lon="1.32012">
        <ele>154</ele>
        <time>2026-09-01T13:16:25.881Z</time>
      </trkpt>
      <trkpt lat="49.52009" lon="1.32006">
        <ele>154</ele>
        <time>2026-09-01T13:16:30.082Z</time>
      </trkpt>
      <trkpt lat="49.52013" lon="1.32001">
        <ele>154</ele>
        <time>2026-09-01T13:16:34.094Z</time>
      </trkpt>
      <trkpt lat="49.52016" lon="1.31996">
        <ele>155</ele>
        <time>2026-09-01T13:16:38.363Z</time>
      </trkpt>
      <trkpt lat="49.52019" lon="1.31989">
        <ele>155</ele>
        <time>2026-09-01T13:16:42.663Z</time>
      </trkpt>
      <trkpt lat="49.52022" lon="1.31985">
        <ele>155</ele>
        <time>2026-09-01T13:16:46.644Z</time>
      </trkpt>
      <trkpt lat="49.52025" lon="1.31979">
        <ele>155</ele>
        <time>2026-09-01T13:16:51.024Z</time>
      </trkpt>
      <trkpt lat="49.52028" lon="1.31974">
        <ele>155</ele>
        <time>2026-09-01T13:16:55.099Z</time>
      </trkpt>
      <trkpt lat="49.52032" lon="1.31967">
        <ele>155</ele>
        <time>2026-09-01T13:16:59.523Z</time>
      </trkpt>
      <trkpt lat="49.52035" lon="1.31962">
        <ele>155</ele>
        <time>2026-09-01T13:17:03.744Z</time>
      </trkpt>
      <trkpt lat="49.52039" lon="1.31956">
        <ele>154</ele>
        <time>2026-09-01T13:17:08.063Z</time>
      </trkpt>
      <trkpt lat="49.52042" lon="1.3195">
        <ele>154</ele>
        <time>2026-09-01T13:17:12.283Z</time>
      </trkpt>
      <trkpt lat="49.52045" lon="1.31944">
        <ele>154</ele>
        <time>2026-09-01T13:17:16.444Z</time>
      </trkpt>
      <trkpt lat="49.52049" lon="1.31939">
        <ele>154</ele>
        <time>2026-09-01T13:17:20.515Z</time>
      </trkpt>
      <trkpt lat="49.52052" lon="1.31933">
        <ele>154</ele>
        <time>2026-09-01T13:17:24.805Z</time>
      </trkpt>
      <trkpt lat="49.52055" lon="1.31927">
        <ele>153</ele>
        <time>2026-09-01T13:17:28.836Z</time>
      </trkpt>
      <trkpt lat="49.52058" lon="1.31921">
        <ele>153</ele>
        <time>2026-09-01T13:17:32.977Z</time>
      </trkpt>
      <trkpt lat="49.52062" lon="1.31915">
        <ele>153</ele>
        <time>2026-09-01T13:17:37.683Z</time>
      </trkpt>
      <trkpt lat="49.52065" lon="1.31909">
        <ele>153</ele>
        <time>2026-09-01T13:17:41.943Z</time>
      </trkpt>
      <trkpt lat="49.52068" lon="1.31904">
        <ele>153</ele>
        <time>2026-09-01T13:17:46.097Z</time>
      </trkpt>
      <trkpt lat="49.52072" lon="1.31898">
        <ele>152</ele>
        <time>2026-09-01T13:17:50.820Z</time>
      </trkpt>
      <trkpt lat="49.52074" lon="1.31892">
        <ele>152</ele>
        <time>2026-09-01T13:17:55.021Z</time>
      </trkpt>
      <trkpt lat="49.52077" lon="1.31886">
        <ele>152</ele>
        <time>2026-09-01T13:17:59.103Z</time>
      </trkpt>
      <trkpt lat="49.5208" lon="1.3188">
        <ele>152</ele>
        <time>2026-09-01T13:18:03.262Z</time>
      </trkpt>
      <trkpt lat="49.52083" lon="1.31874">
        <ele>152</ele>
        <time>2026-09-01T13:18:07.542Z</time>
      </trkpt>
      <trkpt lat="49.52086" lon="1.31868">
        <ele>152</ele>
        <time>2026-09-01T13:18:11.683Z</time>
      </trkpt>
      <trkpt lat="49.52089" lon="1.31862">
        <ele>152</ele>
        <time>2026-09-01T13:18:15.724Z</time>
      </trkpt>
      <trkpt lat="49.52092" lon="1.31857">
        <ele>152</ele>
        <time>2026-09-01T13:18:19.676Z</time>
      </trkpt>
      <trkpt lat="49.52097" lon="1.3185">
        <ele>152</ele>
        <time>2026-09-01T13:18:24.383Z</time>
      </trkpt>
      <trkpt lat="49.521" lon="1.31844">
        <ele>151</ele>
        <time>2026-09-01T13:18:28.504Z</time>
      </trkpt>
      <trkpt lat="49.52103" lon="1.31838">
        <ele>151</ele>
        <time>2026-09-01T13:18:32.704Z</time>
      </trkpt>
      <trkpt lat="49.52107" lon="1.31833">
        <ele>151</ele>
        <time>2026-09-01T13:18:36.885Z</time>
      </trkpt>
      <trkpt lat="49.5211" lon="1.31827">
        <ele>151</ele>
        <time>2026-09-01T13:18:41.363Z</time>
      </trkpt>
      <trkpt lat="49.52114" lon="1.31822">
        <ele>151</ele>
        <time>2026-09-01T13:18:45.345Z</time>
      </trkpt>
      <trkpt lat="49.52117" lon="1.31817">
        <ele>152</ele>
        <time>2026-09-01T13:18:49.555Z</time>
      </trkpt>
      <trkpt lat="49.5212" lon="1.31811">
        <ele>152</ele>
        <time>2026-09-01T13:18:53.676Z</time>
      </trkpt>
      <trkpt lat="49.52124" lon="1.31806">
        <ele>152</ele>
        <time>2026-09-01T13:18:58.035Z</time>
      </trkpt>
      <trkpt lat="49.52126" lon="1.318">
        <ele>152</ele>
        <time>2026-09-01T13:19:02.275Z</time>
      </trkpt>
      <trkpt lat="49.52128" lon="1.31793">
        <ele>152</ele>
        <time>2026-09-01T13:19:06.545Z</time>
      </trkpt>
      <trkpt lat="49.52131" lon="1.31787">
        <ele>153</ele>
        <time>2026-09-01T13:19:10.556Z</time>
      </trkpt>
      <trkpt lat="49.52134" lon="1.31781">
        <ele>153</ele>
        <time>2026-09-01T13:19:14.935Z</time>
      </trkpt>
      <trkpt lat="49.52136" lon="1.31776">
        <ele>153</ele>
        <time>2026-09-01T13:19:19.056Z</time>
      </trkpt>
      <trkpt lat="49.52139" lon="1.31771">
        <ele>153</ele>
        <time>2026-09-01T13:19:23.564Z</time>
      </trkpt>
      <trkpt lat="49.52142" lon="1.31765">
        <ele>153</ele>
        <time>2026-09-01T13:19:27.745Z</time>
      </trkpt>
      <trkpt lat="49.52143" lon="1.31765">
        <ele>153</ele>
        <time>2026-09-01T13:19:32.099Z</time>
      </trkpt>
      <trkpt lat="49.52142" lon="1.31763">
        <ele>154</ele>
        <time>2026-09-01T13:19:36.364Z</time>
      </trkpt>
      <trkpt lat="49.52145" lon="1.31755">
        <ele>154</ele>
        <time>2026-09-01T13:19:40.584Z</time>
      </trkpt>
      <trkpt lat="49.52149" lon="1.31749">
        <ele>154</ele>
        <time>2026-09-01T13:19:45.095Z</time>
      </trkpt>
      <trkpt lat="49.52153" lon="1.31744">
        <ele>154</ele>
        <time>2026-09-01T13:19:49.898Z</time>
      </trkpt>
      <trkpt lat="49.52155" lon="1.31739">
        <ele>154</ele>
        <time>2026-09-01T13:19:53.939Z</time>
      </trkpt>
      <trkpt lat="49.52159" lon="1.31734">
        <ele>156</ele>
        <time>2026-09-01T13:19:58.398Z</time>
      </trkpt>
      <trkpt lat="49.52162" lon="1.31729">
        <ele>156</ele>
        <time>2026-09-01T13:20:02.797Z</time>
      </trkpt>
      <trkpt lat="49.52165" lon="1.31723">
        <ele>156</ele>
        <time>2026-09-01T13:20:07.464Z</time>
      </trkpt>
      <trkpt lat="49.52167" lon="1.31717">
        <ele>156</ele>
        <time>2026-09-01T13:20:11.783Z</time>
      </trkpt>
      <trkpt lat="49.52171" lon="1.31711">
        <ele>156</ele>
        <time>2026-09-01T13:20:16.111Z</time>
      </trkpt>
      <trkpt lat="49.52176" lon="1.31707">
        <ele>158</ele>
        <time>2026-09-01T13:20:20.700Z</time>
      </trkpt>
      <trkpt lat="49.52179" lon="1.31702">
        <ele>158</ele>
        <time>2026-09-01T13:20:25.019Z</time>
      </trkpt>
      <trkpt lat="49.52182" lon="1.31696">
        <ele>156</ele>
        <time>2026-09-01T13:20:29.220Z</time>
      </trkpt>
      <trkpt lat="49.52186" lon="1.3169">
        <ele>156</ele>
        <time>2026-09-01T13:20:33.519Z</time>
      </trkpt>
      <trkpt lat="49.5219" lon="1.31686">
        <ele>156</ele>
        <time>2026-09-01T13:20:37.720Z</time>
      </trkpt>
      <trkpt lat="49.52195" lon="1.31681">
        <ele>156</ele>
        <time>2026-09-01T13:20:42.101Z</time>
      </trkpt>
      <trkpt lat="49.52198" lon="1.31676">
        <ele>158</ele>
        <time>2026-09-01T13:20:46.358Z</time>
      </trkpt>
      <trkpt lat="49.52202" lon="1.31671">
        <ele>158</ele>
        <time>2026-09-01T13:20:50.678Z</time>
      </trkpt>
      <trkpt lat="49.52206" lon="1.31667">
        <ele>158</ele>
        <time>2026-09-01T13:20:55.057Z</time>
      </trkpt>
      <trkpt lat="49.52209" lon="1.31663">
        <ele>156</ele>
        <time>2026-09-01T13:20:59.376Z</time>
      </trkpt>
      <trkpt lat="49.52213" lon="1.31658">
        <ele>156</ele>
        <time>2026-09-01T13:21:03.815Z</time>
      </trkpt>
      <trkpt lat="49.52215" lon="1.31652">
        <ele>157</ele>
        <time>2026-09-01T13:21:08.055Z</time>
      </trkpt>
      <trkpt lat="49.52219" lon="1.31647">
        <ele>157</ele>
        <time>2026-09-01T13:21:12.523Z</time>
      </trkpt>
      <trkpt lat="49.52223" lon="1.31642">
        <ele>157</ele>
        <time>2026-09-01T13:21:16.823Z</time>
      </trkpt>
      <trkpt lat="49.52228" lon="1.31638">
        <ele>157</ele>
        <time>2026-09-01T13:21:21.063Z</time>
      </trkpt>
      <trkpt lat="49.52232" lon="1.31633">
        <ele>157</ele>
        <time>2026-09-01T13:21:25.343Z</time>
      </trkpt>
      <trkpt lat="49.52236" lon="1.31629">
        <ele>157</ele>
        <time>2026-09-01T13:21:29.543Z</time>
      </trkpt>
      <trkpt lat="49.5224" lon="1.31624">
        <ele>156</ele>
        <time>2026-09-01T13:21:33.942Z</time>
      </trkpt>
      <trkpt lat="49.52244" lon="1.3162">
        <ele>156</ele>
        <time>2026-09-01T13:21:38.202Z</time>
      </trkpt>
      <trkpt lat="49.52249" lon="1.31616">
        <ele>156</ele>
        <time>2026-09-01T13:21:42.620Z</time>
      </trkpt>
      <trkpt lat="49.52252" lon="1.31611">
        <ele>156</ele>
        <time>2026-09-01T13:21:47.103Z</time>
      </trkpt>
      <trkpt lat="49.52256" lon="1.31608">
        <ele>156</ele>
        <time>2026-09-01T13:21:51.577Z</time>
      </trkpt>
      <trkpt lat="49.52259" lon="1.31603">
        <ele>156</ele>
        <time>2026-09-01T13:21:56.035Z</time>
      </trkpt>
      <trkpt lat="49.52262" lon="1.31598">
        <ele>156</ele>
        <time>2026-09-01T13:22:00.102Z</time>
      </trkpt>
      <trkpt lat="49.52267" lon="1.31595">
        <ele>156</ele>
        <time>2026-09-01T13:22:04.357Z</time>
      </trkpt>
      <trkpt lat="49.52268" lon="1.31589">
        <ele>156</ele>
        <time>2026-09-01T13:22:08.517Z</time>
      </trkpt>
      <trkpt lat="49.52273" lon="1.31585">
        <ele>156</ele>
        <time>2026-09-01T13:22:12.697Z</time>
      </trkpt>
      <trkpt lat="49.52275" lon="1.31579">
        <ele>156</ele>
        <time>2026-09-01T13:22:16.838Z</time>
      </trkpt>
      <trkpt lat="49.5228" lon="1.31575">
        <ele>156</ele>
        <time>2026-09-01T13:22:21.088Z</time>
      </trkpt>
      <trkpt lat="49.52284" lon="1.3157">
        <ele>156</ele>
        <time>2026-09-01T13:22:26.004Z</time>
      </trkpt>
      <trkpt lat="49.52287" lon="1.31567">
        <ele>155</ele>
        <time>2026-09-01T13:22:30.422Z</time>
      </trkpt>
      <trkpt lat="49.5229" lon="1.31563">
        <ele>155</ele>
        <time>2026-09-01T13:22:34.762Z</time>
      </trkpt>
      <trkpt lat="49.52294" lon="1.3156">
        <ele>156</ele>
        <time>2026-09-01T13:22:38.863Z</time>
      </trkpt>
      <trkpt lat="49.52297" lon="1.31556">
        <ele>156</ele>
        <time>2026-09-01T13:22:43.302Z</time>
      </trkpt>
      <trkpt lat="49.523" lon="1.3155">
        <ele>156</ele>
        <time>2026-09-01T13:22:47.959Z</time>
      </trkpt>
      <trkpt lat="49.52302" lon="1.31545">
        <ele>156</ele>
        <time>2026-09-01T13:22:52.105Z</time>
      </trkpt>
      <trkpt lat="49.52306" lon="1.31539">
        <ele>155</ele>
        <time>2026-09-01T13:22:56.519Z</time>
      </trkpt>
      <trkpt lat="49.52311" lon="1.31534">
        <ele>155</ele>
        <time>2026-09-01T13:23:00.679Z</time>
      </trkpt>
      <trkpt lat="49.52316" lon="1.3153">
        <ele>155</ele>
        <time>2026-09-01T13:23:04.939Z</time>
      </trkpt>
      <trkpt lat="49.52322" lon="1.31528">
        <ele>155</ele>
        <time>2026-09-01T13:23:09.080Z</time>
      </trkpt>
      <trkpt lat="49.52328" lon="1.31526">
        <ele>155</ele>
        <time>2026-09-01T13:23:13.916Z</time>
      </trkpt>
      <trkpt lat="49.52332" lon="1.31521">
        <ele>155</ele>
        <time>2026-09-01T13:23:18.077Z</time>
      </trkpt>
      <trkpt lat="49.52337" lon="1.31517">
        <ele>155</ele>
        <time>2026-09-01T13:23:22.277Z</time>
      </trkpt>
      <trkpt lat="49.52341" lon="1.31512">
        <ele>155</ele>
        <time>2026-09-01T13:23:26.497Z</time>
      </trkpt>
      <trkpt lat="49.52344" lon="1.31507">
        <ele>155</ele>
        <time>2026-09-01T13:23:30.578Z</time>
      </trkpt>
      <trkpt lat="49.52348" lon="1.31502">
        <ele>155</ele>
        <time>2026-09-01T13:23:34.779Z</time>
      </trkpt>
      <trkpt lat="49.52352" lon="1.31498">
        <ele>155</ele>
        <time>2026-09-01T13:23:38.910Z</time>
      </trkpt>
      <trkpt lat="49.52356" lon="1.31493">
        <ele>155</ele>
        <time>2026-09-01T13:23:43.099Z</time>
      </trkpt>
      <trkpt lat="49.5236" lon="1.31489">
        <ele>155</ele>
        <time>2026-09-01T13:23:47.241Z</time>
      </trkpt>
      <trkpt lat="49.52364" lon="1.31484">
        <ele>154</ele>
        <time>2026-09-01T13:23:51.401Z</time>
      </trkpt>
      <trkpt lat="49.52368" lon="1.31479">
        <ele>154</ele>
        <time>2026-09-01T13:23:55.522Z</time>
      </trkpt>
      <trkpt lat="49.52372" lon="1.31475">
        <ele>154</ele>
        <time>2026-09-01T13:23:59.643Z</time>
      </trkpt>
      <trkpt lat="49.52375" lon="1.3147">
        <ele>154</ele>
        <time>2026-09-01T13:24:03.923Z</time>
      </trkpt>
      <trkpt lat="49.52379" lon="1.31465">
        <ele>154</ele>
        <time>2026-09-01T13:24:08.097Z</time>
      </trkpt>
      <trkpt lat="49.52383" lon="1.31461">
        <ele>154</ele>
        <time>2026-09-01T13:24:12.442Z</time>
      </trkpt>
      <trkpt lat="49.52388" lon="1.31457">
        <ele>154</ele>
        <time>2026-09-01T13:24:16.424Z</time>
      </trkpt>
      <trkpt lat="49.52392" lon="1.31452">
        <ele>154</ele>
        <time>2026-09-01T13:24:21.095Z</time>
      </trkpt>
      <trkpt lat="49.52395" lon="1.31447">
        <ele>154</ele>
        <time>2026-09-01T13:24:25.093Z</time>
      </trkpt>
      <trkpt lat="49.52398" lon="1.31442">
        <ele>154</ele>
        <time>2026-09-01T13:24:29.283Z</time>
      </trkpt>
      <trkpt lat="49.52402" lon="1.31438">
        <ele>154</ele>
        <time>2026-09-01T13:24:33.345Z</time>
      </trkpt>
      <trkpt lat="49.52406" lon="1.31434">
        <ele>154</ele>
        <time>2026-09-01T13:24:37.455Z</time>
      </trkpt>
      <trkpt lat="49.5241" lon="1.31429">
        <ele>153</ele>
        <time>2026-09-01T13:24:41.576Z</time>
      </trkpt>
      <trkpt lat="49.52415" lon="1.31425">
        <ele>153</ele>
        <time>2026-09-01T13:24:45.737Z</time>
      </trkpt>
      <trkpt lat="49.52419" lon="1.31421">
        <ele>153</ele>
        <time>2026-09-01T13:24:49.798Z</time>
      </trkpt>
      <trkpt lat="49.52423" lon="1.31416">
        <ele>153</ele>
        <time>2026-09-01T13:24:53.879Z</time>
      </trkpt>
      <trkpt lat="49.52427" lon="1.31411">
        <ele>153</ele>
        <time>2026-09-01T13:24:58.020Z</time>
      </trkpt>
      <trkpt lat="49.52431" lon="1.31407">
        <ele>153</ele>
        <time>2026-09-01T13:25:02.102Z</time>
      </trkpt>
      <trkpt lat="49.52435" lon="1.31401">
        <ele>153</ele>
        <time>2026-09-01T13:25:06.778Z</time>
      </trkpt>
      <trkpt lat="49.52439" lon="1.31396">
        <ele>153</ele>
        <time>2026-09-01T13:25:11.100Z</time>
      </trkpt>
      <trkpt lat="49.52443" lon="1.3139">
        <ele>153</ele>
        <time>2026-09-01T13:25:15.655Z</time>
      </trkpt>
      <trkpt lat="49.52447" lon="1.31385">
        <ele>153</ele>
        <time>2026-09-01T13:25:19.895Z</time>
      </trkpt>
      <trkpt lat="49.5245" lon="1.3138">
        <ele>153</ele>
        <time>2026-09-01T13:25:24.094Z</time>
      </trkpt>
      <trkpt lat="49.52454" lon="1.31375">
        <ele>153</ele>
        <time>2026-09-01T13:25:28.425Z</time>
      </trkpt>
      <trkpt lat="49.52457" lon="1.31369">
        <ele>153</ele>
        <time>2026-09-01T13:25:32.664Z</time>
      </trkpt>
      <trkpt lat="49.52461" lon="1.31364">
        <ele>153</ele>
        <time>2026-09-01T13:25:36.865Z</time>
      </trkpt>
      <trkpt lat="49.52464" lon="1.31358">
        <ele>153</ele>
        <time>2026-09-01T13:25:41.075Z</time>
      </trkpt>
      <trkpt lat="49.52467" lon="1.31353">
        <ele>153</ele>
        <time>2026-09-01T13:25:45.097Z</time>
      </trkpt>
      <trkpt lat="49.5247" lon="1.31346">
        <ele>152</ele>
        <time>2026-09-01T13:25:49.436Z</time>
      </trkpt>
      <trkpt lat="49.52473" lon="1.31339">
        <ele>152</ele>
        <time>2026-09-01T13:25:53.556Z</time>
      </trkpt>
      <trkpt lat="49.52475" lon="1.31333">
        <ele>152</ele>
        <time>2026-09-01T13:25:57.836Z</time>
      </trkpt>
      <trkpt lat="49.52478" lon="1.31328">
        <ele>152</ele>
        <time>2026-09-01T13:26:02.076Z</time>
      </trkpt>
      <trkpt lat="49.52481" lon="1.31323">
        <ele>152</ele>
        <time>2026-09-01T13:26:06.237Z</time>
      </trkpt>
      <trkpt lat="49.52484" lon="1.31317">
        <ele>151</ele>
        <time>2026-09-01T13:26:10.476Z</time>
      </trkpt>
      <trkpt lat="49.52488" lon="1.31311">
        <ele>150</ele>
        <time>2026-09-01T13:26:14.637Z</time>
      </trkpt>
      <trkpt lat="49.5249" lon="1.31305">
        <ele>150</ele>
        <time>2026-09-01T13:26:18.798Z</time>
      </trkpt>
      <trkpt lat="49.52494" lon="1.31301">
        <ele>150</ele>
        <time>2026-09-01T13:26:22.918Z</time>
      </trkpt>
      <trkpt lat="49.52496" lon="1.31296">
        <ele>150</ele>
        <time>2026-09-01T13:26:27.099Z</time>
      </trkpt>
      <trkpt lat="49.52498" lon="1.31289">
        <ele>148</ele>
        <time>2026-09-01T13:26:31.319Z</time>
      </trkpt>
      <trkpt lat="49.525" lon="1.31283">
        <ele>148</ele>
        <time>2026-09-01T13:26:35.479Z</time>
      </trkpt>
      <trkpt lat="49.52502" lon="1.31276">
        <ele>148</ele>
        <time>2026-09-01T13:26:39.679Z</time>
      </trkpt>
      <trkpt lat="49.52506" lon="1.31269">
        <ele>148</ele>
        <time>2026-09-01T13:26:43.880Z</time>
      </trkpt>
      <trkpt lat="49.5251" lon="1.31264">
        <ele>148</ele>
        <time>2026-09-01T13:26:48.080Z</time>
      </trkpt>
      <trkpt lat="49.52513" lon="1.31258">
        <ele>147</ele>
        <time>2026-09-01T13:26:52.113Z</time>
      </trkpt>
      <trkpt lat="49.52516" lon="1.31252">
        <ele>146</ele>
        <time>2026-09-01T13:26:56.421Z</time>
      </trkpt>
      <trkpt lat="49.52519" lon="1.31245">
        <ele>146</ele>
        <time>2026-09-01T13:27:00.581Z</time>
      </trkpt>
      <trkpt lat="49.52522" lon="1.31239">
        <ele>146</ele>
        <time>2026-09-01T13:27:04.742Z</time>
      </trkpt>
      <trkpt lat="49.52525" lon="1.31232">
        <ele>145</ele>
        <time>2026-09-01T13:27:08.922Z</time>
      </trkpt>
      <trkpt lat="49.52528" lon="1.31226">
        <ele>145</ele>
        <time>2026-09-01T13:27:13.003Z</time>
      </trkpt>
      <trkpt lat="49.52531" lon="1.3122">
        <ele>145</ele>
        <time>2026-09-01T13:27:17.095Z</time>
      </trkpt>
      <trkpt lat="49.52533" lon="1.31214">
        <ele>145</ele>
        <time>2026-09-01T13:27:21.364Z</time>
      </trkpt>
      <trkpt lat="49.52536" lon="1.31208">
        <ele>143</ele>
        <time>2026-09-01T13:27:25.505Z</time>
      </trkpt>
      <trkpt lat="49.52538" lon="1.31204">
        <ele>143</ele>
        <time>2026-09-01T13:27:29.536Z</time>
      </trkpt>
      <trkpt lat="49.52543" lon="1.31201">
        <ele>142</ele>
        <time>2026-09-01T13:27:33.776Z</time>
      </trkpt>
      <trkpt lat="49.52547" lon="1.31199">
        <ele>142</ele>
        <time>2026-09-01T13:27:38.090Z</time>
      </trkpt>
      <trkpt lat="49.52546" lon="1.31197">
        <ele>142</ele>
        <time>2026-09-01T13:29:11.101Z</time>
      </trkpt>
      <trkpt lat="49.52546" lon="1.31195">
        <ele>142</ele>
        <time>2026-09-01T13:29:15.475Z</time>
      </trkpt>
      <trkpt lat="49.5255" lon="1.31189">
        <ele>142</ele>
        <time>2026-09-01T13:29:19.725Z</time>
      </trkpt>
      <trkpt lat="49.52554" lon="1.31184">
        <ele>142</ele>
        <time>2026-09-01T13:29:23.836Z</time>
      </trkpt>
      <trkpt lat="49.52557" lon="1.3118">
        <ele>141</ele>
        <time>2026-09-01T13:29:27.976Z</time>
      </trkpt>
      <trkpt lat="49.52562" lon="1.31177">
        <ele>141</ele>
        <time>2026-09-01T13:29:32.098Z</time>
      </trkpt>
      <trkpt lat="49.52564" lon="1.31171">
        <ele>141</ele>
        <time>2026-09-01T13:29:36.297Z</time>
      </trkpt>
      <trkpt lat="49.52568" lon="1.31167">
        <ele>141</ele>
        <time>2026-09-01T13:29:40.458Z</time>
      </trkpt>
      <trkpt lat="49.52571" lon="1.31164">
        <ele>138</ele>
        <time>2026-09-01T13:29:44.598Z</time>
      </trkpt>
      <trkpt lat="49.52576" lon="1.3116">
        <ele>138</ele>
        <time>2026-09-01T13:29:49.102Z</time>
      </trkpt>
      <trkpt lat="49.5258" lon="1.31155">
        <ele>138</ele>
        <time>2026-09-01T13:29:53.106Z</time>
      </trkpt>
      <trkpt lat="49.52583" lon="1.31151">
        <ele>136</ele>
        <time>2026-09-01T13:29:57.338Z</time>
      </trkpt>
      <trkpt lat="49.52587" lon="1.31147">
        <ele>136</ele>
        <time>2026-09-01T13:30:01.478Z</time>
      </trkpt>
      <trkpt lat="49.52591" lon="1.31144">
        <ele>136</ele>
        <time>2026-09-01T13:30:05.560Z</time>
      </trkpt>
      <trkpt lat="49.52594" lon="1.31141">
        <ele>136</ele>
        <time>2026-09-01T13:30:09.581Z</time>
      </trkpt>
      <trkpt lat="49.52597" lon="1.31135">
        <ele>136</ele>
        <time>2026-09-01T13:30:13.642Z</time>
      </trkpt>
      <trkpt lat="49.52599" lon="1.31129">
        <ele>134</ele>
        <time>2026-09-01T13:30:17.743Z</time>
      </trkpt>
      <trkpt lat="49.52601" lon="1.31122">
        <ele>136</ele>
        <time>2026-09-01T13:30:22.086Z</time>
      </trkpt>
      <trkpt lat="49.52604" lon="1.31117">
        <ele>136</ele>
        <time>2026-09-01T13:30:26.541Z</time>
      </trkpt>
      <trkpt lat="49.52608" lon="1.31114">
        <ele>136</ele>
        <time>2026-09-01T13:30:30.681Z</time>
      </trkpt>
      <trkpt lat="49.52612" lon="1.3111">
        <ele>136</ele>
        <time>2026-09-01T13:30:34.882Z</time>
      </trkpt>
      <trkpt lat="49.52615" lon="1.31106">
        <ele>136</ele>
        <time>2026-09-01T13:30:39.094Z</time>
      </trkpt>
      <trkpt lat="49.52618" lon="1.31101">
        <ele>136</ele>
        <time>2026-09-01T13:30:43.421Z</time>
      </trkpt>
      <trkpt lat="49.52622" lon="1.31096">
        <ele>138</ele>
        <time>2026-09-01T13:30:47.601Z</time>
      </trkpt>
      <trkpt lat="49.52627" lon="1.31092">
        <ele>135</ele>
        <time>2026-09-01T13:30:51.861Z</time>
      </trkpt>
      <trkpt lat="49.52631" lon="1.3109">
        <ele>135</ele>
        <time>2026-09-01T13:31:18.522Z</time>
      </trkpt>
      <trkpt lat="49.52633" lon="1.31083">
        <ele>135</ele>
        <time>2026-09-01T13:31:23.097Z</time>
      </trkpt>
      <trkpt lat="49.52635" lon="1.31076">
        <ele>135</ele>
        <time>2026-09-01T13:31:27.339Z</time>
      </trkpt>
      <trkpt lat="49.52639" lon="1.31072">
        <ele>135</ele>
        <time>2026-09-01T13:31:31.619Z</time>
      </trkpt>
      <trkpt lat="49.52643" lon="1.31067">
        <ele>136</ele>
        <time>2026-09-01T13:31:35.779Z</time>
      </trkpt>
      <trkpt lat="49.52646" lon="1.31063">
        <ele>136</ele>
        <time>2026-09-01T13:31:40.059Z</time>
      </trkpt>
      <trkpt lat="49.52651" lon="1.31059">
        <ele>136</ele>
        <time>2026-09-01T13:31:44.096Z</time>
      </trkpt>
      <trkpt lat="49.52654" lon="1.31055">
        <ele>128</ele>
        <time>2026-09-01T13:31:48.400Z</time>
      </trkpt>
      <trkpt lat="49.52658" lon="1.31051">
        <ele>128</ele>
        <time>2026-09-01T13:31:52.699Z</time>
      </trkpt>
      <trkpt lat="49.52661" lon="1.31048">
        <ele>128</ele>
        <time>2026-09-01T13:31:56.939Z</time>
      </trkpt>
      <trkpt lat="49.52665" lon="1.31044">
        <ele>128</ele>
        <time>2026-09-01T13:32:01.089Z</time>
      </trkpt>
      <trkpt lat="49.52668" lon="1.31039">
        <ele>128</ele>
        <time>2026-09-01T13:32:05.399Z</time>
      </trkpt>
      <trkpt lat="49.5267" lon="1.31034">
        <ele>128</ele>
        <time>2026-09-01T13:32:10.097Z</time>
      </trkpt>
      <trkpt lat="49.52673" lon="1.31035">
        <ele>128</ele>
        <time>2026-09-01T13:32:19.096Z</time>
      </trkpt>
      <trkpt lat="49.52673" lon="1.31035">
        <ele>128</ele>
        <time>2026-09-01T13:32:23.094Z</time>
      </trkpt>
      <trkpt lat="49.52674" lon="1.31035">
        <ele>128</ele>
        <time>2026-09-01T13:32:27.096Z</time>
      </trkpt>
      <trkpt lat="49.52678" lon="1.31031">
        <ele>128</ele>
        <time>2026-09-01T13:32:31.881Z</time>
      </trkpt>
      <trkpt lat="49.5268" lon="1.31026">
        <ele>128</ele>
        <time>2026-09-01T13:32:36.042Z</time>
      </trkpt>
      <trkpt lat="49.52683" lon="1.31021">
        <ele>121</ele>
        <time>2026-09-01T13:32:40.481Z</time>
      </trkpt>
      <trkpt lat="49.52686" lon="1.31014">
        <ele>121</ele>
        <time>2026-09-01T13:32:44.641Z</time>
      </trkpt>
      <trkpt lat="49.52686" lon="1.31009">
        <ele>120</ele>
        <time>2026-09-01T13:32:49.080Z</time>
      </trkpt>
      <trkpt lat="49.52686" lon="1.31004">
        <ele>120</ele>
        <time>2026-09-01T13:32:54.098Z</time>
      </trkpt>
      <trkpt lat="49.52684" lon="1.31005">
        <ele>120</ele>
        <time>2026-09-01T13:33:51.100Z</time>
      </trkpt>
      <trkpt lat="49.52685" lon="1.31007">
        <ele>120</ele>
        <time>2026-09-01T13:33:56.095Z</time>
      </trkpt>
      <trkpt lat="49.52685" lon="1.31012">
        <ele>120</ele>
        <time>2026-09-01T13:34:00.092Z</time>
      </trkpt>
      <trkpt lat="49.52686" lon="1.31015">
        <ele>121</ele>
        <time>2026-09-01T13:34:04.098Z</time>
      </trkpt>
      <trkpt lat="49.52688" lon="1.31018">
        <ele>121</ele>
        <time>2026-09-01T13:34:09.095Z</time>
      </trkpt>
      <trkpt lat="49.52691" lon="1.31023">
        <ele>121</ele>
        <time>2026-09-01T13:34:13.097Z</time>
      </trkpt>
      <trkpt lat="49.52697" lon="1.31025">
        <ele>121</ele>
        <time>2026-09-01T13:34:18.094Z</time>
      </trkpt>
      <trkpt lat="49.527" lon="1.31029">
        <ele>121</ele>
        <time>2026-09-01T13:34:22.107Z</time>
      </trkpt>
      <trkpt lat="49.52703" lon="1.31038">
        <ele>121</ele>
        <time>2026-09-01T13:34:26.737Z</time>
      </trkpt>
      <trkpt lat="49.52707" lon="1.31041">
        <ele>121</ele>
        <time>2026-09-01T13:34:31.093Z</time>
      </trkpt>
      <trkpt lat="49.52713" lon="1.31044">
        <ele>117</ele>
        <time>2026-09-01T13:34:35.644Z</time>
      </trkpt>
      <trkpt lat="49.52716" lon="1.31048">
        <ele>117</ele>
        <time>2026-09-01T13:34:40.091Z</time>
      </trkpt>
      <trkpt lat="49.52719" lon="1.31052">
        <ele>117</ele>
        <time>2026-09-01T13:34:44.094Z</time>
      </trkpt>
      <trkpt lat="49.52723" lon="1.31057">
        <ele>117</ele>
        <time>2026-09-01T13:34:48.582Z</time>
      </trkpt>
      <trkpt lat="49.52725" lon="1.31061">
        <ele>117</ele>
        <time>2026-09-01T13:34:53.098Z</time>
      </trkpt>
      <trkpt lat="49.52729" lon="1.31065">
        <ele>117</ele>
        <time>2026-09-01T13:34:57.479Z</time>
      </trkpt>
      <trkpt lat="49.52733" lon="1.31068">
        <ele>117</ele>
        <time>2026-09-01T13:35:01.480Z</time>
      </trkpt>
      <trkpt lat="49.52739" lon="1.31072">
        <ele>114</ele>
        <time>2026-09-01T13:35:05.820Z</time>
      </trkpt>
      <trkpt lat="49.52743" lon="1.31078">
        <ele>114</ele>
        <time>2026-09-01T13:35:10.357Z</time>
      </trkpt>
      <trkpt lat="49.52748" lon="1.31081">
        <ele>114</ele>
        <time>2026-09-01T13:35:14.816Z</time>
      </trkpt>
      <trkpt lat="49.52754" lon="1.31083">
        <ele>114</ele>
        <time>2026-09-01T13:35:19.304Z</time>
      </trkpt>
      <trkpt lat="49.52758" lon="1.31086">
        <ele>114</ele>
        <time>2026-09-01T13:35:23.375Z</time>
      </trkpt>
      <trkpt lat="49.52764" lon="1.31088">
        <ele>114</ele>
        <time>2026-09-01T13:35:28.022Z</time>
      </trkpt>
      <trkpt lat="49.5277" lon="1.31092">
        <ele>112</ele>
        <time>2026-09-01T13:35:32.381Z</time>
      </trkpt>
      <trkpt lat="49.52775" lon="1.31094">
        <ele>112</ele>
        <time>2026-09-01T13:35:36.403Z</time>
      </trkpt>
      <trkpt lat="49.52788" lon="1.31101">
        <ele>113</ele>
        <time>2026-09-01T13:35:55.092Z</time>
      </trkpt>
      <trkpt lat="49.5279" lon="1.31099">
        <ele>113</ele>
        <time>2026-09-01T13:35:59.559Z</time>
      </trkpt>
      <trkpt lat="49.52795" lon="1.31094">
        <ele>111</ele>
        <time>2026-09-01T13:36:03.640Z</time>
      </trkpt>
      <trkpt lat="49.528" lon="1.31092">
        <ele>111</ele>
        <time>2026-09-01T13:36:07.979Z</time>
      </trkpt>
      <trkpt lat="49.52801" lon="1.31091">
        <ele>111</ele>
        <time>2026-09-01T13:36:13.091Z</time>
      </trkpt>
      <trkpt lat="49.52801" lon="1.31091">
        <ele>111</ele>
        <time>2026-09-01T13:36:17.620Z</time>
      </trkpt>
      <trkpt lat="49.52804" lon="1.31088">
        <ele>111</ele>
        <time>2026-09-01T13:36:21.960Z</time>
      </trkpt>
      <trkpt lat="49.52807" lon="1.31087">
        <ele>111</ele>
        <time>2026-09-01T13:36:26.458Z</time>
      </trkpt>
      <trkpt lat="49.52811" lon="1.31085">
        <ele>111</ele>
        <time>2026-09-01T13:36:30.717Z</time>
      </trkpt>
      <trkpt lat="49.52814" lon="1.31081">
        <ele>111</ele>
        <time>2026-09-01T13:36:34.858Z</time>
      </trkpt>
      <trkpt lat="49.52817" lon="1.3108">
        <ele>111</ele>
        <time>2026-09-01T13:36:38.979Z</time>
      </trkpt>
      <trkpt lat="49.5282" lon="1.31077">
        <ele>111</ele>
        <time>2026-09-01T13:36:43.040Z</time>
      </trkpt>
      <trkpt lat="49.52824" lon="1.31077">
        <ele>111</ele>
        <time>2026-09-01T13:36:47.096Z</time>
      </trkpt>
      <trkpt lat="49.52828" lon="1.31078">
        <ele>111</ele>
        <time>2026-09-01T13:36:51.500Z</time>
      </trkpt>
      <trkpt lat="49.52833" lon="1.31079">
        <ele>111</ele>
        <time>2026-09-01T13:36:55.958Z</time>
      </trkpt>
      <trkpt lat="49.52838" lon="1.31082">
        <ele>111</ele>
        <time>2026-09-01T13:37:00.090Z</time>
      </trkpt>
      <trkpt lat="49.52842" lon="1.31085">
        <ele>111</ele>
        <time>2026-09-01T13:37:04.478Z</time>
      </trkpt>
      <trkpt lat="49.52846" lon="1.31087">
        <ele>111</ele>
        <time>2026-09-01T13:37:08.499Z</time>
      </trkpt>
      <trkpt lat="49.5285" lon="1.31089">
        <ele>110</ele>
        <time>2026-09-01T13:37:12.799Z</time>
      </trkpt>
      <trkpt lat="49.52854" lon="1.31092">
        <ele>110</ele>
        <time>2026-09-01T13:37:17.297Z</time>
      </trkpt>
      <trkpt lat="49.52856" lon="1.31096">
        <ele>110</ele>
        <time>2026-09-01T13:37:21.676Z</time>
      </trkpt>
      <trkpt lat="49.52859" lon="1.31095">
        <ele>110</ele>
        <time>2026-09-01T13:37:25.975Z</time>
      </trkpt>
      <trkpt lat="49.52862" lon="1.31092">
        <ele>110</ele>
        <time>2026-09-01T13:37:30.089Z</time>
      </trkpt>
      <trkpt lat="49.52866" lon="1.31088">
        <ele>110</ele>
        <time>2026-09-01T13:37:35.061Z</time>
      </trkpt>
      <trkpt lat="49.5287" lon="1.31082">
        <ele>110</ele>
        <time>2026-09-01T13:37:39.182Z</time>
      </trkpt>
      <trkpt lat="49.5287" lon="1.3108">
        <ele>110</ele>
        <time>2026-09-01T13:41:12.091Z</time>
      </trkpt>
      <trkpt lat="49.52869" lon="1.31077">
        <ele>110</ele>
        <time>2026-09-01T13:41:17.092Z</time>
      </trkpt>
      <trkpt lat="49.52869" lon="1.31077">
        <ele>110</ele>
        <time>2026-09-01T13:41:21.097Z</time>
      </trkpt>
      <trkpt lat="49.5287" lon="1.3107">
        <ele>110</ele>
        <time>2026-09-01T13:41:26.095Z</time>
      </trkpt>
      <trkpt lat="49.52872" lon="1.31063">
        <ele>109</ele>
        <time>2026-09-01T13:41:31.092Z</time>
      </trkpt>
      <trkpt lat="49.52874" lon="1.31055">
        <ele>109</ele>
        <time>2026-09-01T13:41:36.091Z</time>
      </trkpt>
      <trkpt lat="49.52876" lon="1.3105">
        <ele>109</ele>
        <time>2026-09-01T13:41:40.094Z</time>
      </trkpt>
      <trkpt lat="49.52878" lon="1.31042">
        <ele>108</ele>
        <time>2026-09-01T13:41:45.090Z</time>
      </trkpt>
      <trkpt lat="49.5288" lon="1.31034">
        <ele>108</ele>
        <time>2026-09-01T13:41:49.376Z</time>
      </trkpt>
      <trkpt lat="49.52882" lon="1.31027">
        <ele>108</ele>
        <time>2026-09-01T13:41:53.576Z</time>
      </trkpt>
      <trkpt lat="49.52884" lon="1.31019">
        <ele>108</ele>
        <time>2026-09-01T13:41:58.092Z</time>
      </trkpt>
      <trkpt lat="49.52886" lon="1.3101">
        <ele>109</ele>
        <time>2026-09-01T13:42:02.741Z</time>
      </trkpt>
      <trkpt lat="49.52888" lon="1.31002">
        <ele>109</ele>
        <time>2026-09-01T13:42:06.762Z</time>
      </trkpt>
      <trkpt lat="49.5289" lon="1.30995">
        <ele>109</ele>
        <time>2026-09-01T13:42:10.883Z</time>
      </trkpt>
      <trkpt lat="49.52893" lon="1.30987">
        <ele>109</ele>
        <time>2026-09-01T13:42:15.520Z</time>
      </trkpt>
      <trkpt lat="49.52895" lon="1.30979">
        <ele>109</ele>
        <time>2026-09-01T13:42:20.093Z</time>
      </trkpt>
      <trkpt lat="49.52896" lon="1.30972">
        <ele>109</ele>
        <time>2026-09-01T13:42:24.091Z</time>
      </trkpt>
      <trkpt lat="49.52901" lon="1.30968">
        <ele>109</ele>
        <time>2026-09-01T13:43:06.097Z</time>
      </trkpt>
      <trkpt lat="49.52902" lon="1.30968">
        <ele>109</ele>
        <time>2026-09-01T13:43:11.090Z</time>
      </trkpt>
      <trkpt lat="49.52903" lon="1.30968">
        <ele>108</ele>
        <time>2026-09-01T13:43:17.997Z</time>
      </trkpt>
      <trkpt lat="49.52903" lon="1.30962">
        <ele>109</ele>
        <time>2026-09-01T13:43:22.237Z</time>
      </trkpt>
      <trkpt lat="49.52903" lon="1.30954">
        <ele>109</ele>
        <time>2026-09-01T13:43:26.338Z</time>
      </trkpt>
      <trkpt lat="49.52904" lon="1.30946">
        <ele>109</ele>
        <time>2026-09-01T13:43:45.096Z</time>
      </trkpt>
      <trkpt lat="49.52905" lon="1.30942">
        <ele>109</ele>
        <time>2026-09-01T13:43:49.742Z</time>
      </trkpt>
      <trkpt lat="49.52907" lon="1.30934">
        <ele>109</ele>
        <time>2026-09-01T13:43:54.021Z</time>
      </trkpt>
      <trkpt lat="49.5291" lon="1.30928">
        <ele>109</ele>
        <time>2026-09-01T13:43:58.639Z</time>
      </trkpt>
      <trkpt lat="49.52912" lon="1.30923">
        <ele>109</ele>
        <time>2026-09-01T13:44:02.819Z</time>
      </trkpt>
      <trkpt lat="49.52912" lon="1.30916">
        <ele>109</ele>
        <time>2026-09-01T13:44:07.096Z</time>
      </trkpt>
      <trkpt lat="49.52913" lon="1.3091">
        <ele>109</ele>
        <time>2026-09-01T13:44:11.358Z</time>
      </trkpt>
      <trkpt lat="49.52914" lon="1.30904">
        <ele>109</ele>
        <time>2026-09-01T13:44:15.618Z</time>
      </trkpt>
      <trkpt lat="49.52917" lon="1.30898">
        <ele>110</ele>
        <time>2026-09-01T13:44:19.818Z</time>
      </trkpt>
      <trkpt lat="49.52918" lon="1.30892">
        <ele>110</ele>
        <time>2026-09-01T13:44:24.092Z</time>
      </trkpt>
      <trkpt lat="49.52919" lon="1.30889">
        <ele>110</ele>
        <time>2026-09-01T13:44:28.656Z</time>
      </trkpt>
      <trkpt lat="49.52921" lon="1.30883">
        <ele>110</ele>
        <time>2026-09-01T13:44:32.677Z</time>
      </trkpt>
      <trkpt lat="49.52922" lon="1.30876">
        <ele>110</ele>
        <time>2026-09-01T13:44:36.957Z</time>
      </trkpt>
      <trkpt lat="49.52921" lon="1.30868">
        <ele>111</ele>
        <time>2026-09-01T13:44:41.096Z</time>
      </trkpt>
      <trkpt lat="49.52921" lon="1.30861">
        <ele>111</ele>
        <time>2026-09-01T13:44:45.357Z</time>
      </trkpt>
      <trkpt lat="49.52921" lon="1.30854">
        <ele>111</ele>
        <time>2026-09-01T13:44:49.518Z</time>
      </trkpt>
      <trkpt lat="49.52921" lon="1.30848">
        <ele>111</ele>
        <time>2026-09-01T13:44:53.837Z</time>
      </trkpt>
      <trkpt lat="49.52921" lon="1.3084">
        <ele>112</ele>
        <time>2026-09-01T13:44:58.037Z</time>
      </trkpt>
      <trkpt lat="49.52921" lon="1.30834">
        <ele>112</ele>
        <time>2026-09-01T13:45:02.095Z</time>
      </trkpt>
      <trkpt lat="49.52921" lon="1.30825">
        <ele>112</ele>
        <time>2026-09-01T13:45:06.815Z</time>
      </trkpt>
      <trkpt lat="49.52919" lon="1.30818">
        <ele>112</ele>
        <time>2026-09-01T13:45:11.283Z</time>
      </trkpt>
      <trkpt lat="49.5292" lon="1.30813">
        <ele>112</ele>
        <time>2026-09-01T13:46:22.083Z</time>
      </trkpt>
      <trkpt lat="49.5292" lon="1.30813">
        <ele>112</ele>
        <time>2026-09-01T13:46:26.090Z</time>
      </trkpt>
      <trkpt lat="49.5292" lon="1.30813">
        <ele>112</ele>
        <time>2026-09-01T13:46:31.091Z</time>
      </trkpt>
      <trkpt lat="49.52919" lon="1.30809">
        <ele>112</ele>
        <time>2026-09-01T13:46:35.476Z</time>
      </trkpt>
      <trkpt lat="49.52916" lon="1.30802">
        <ele>112</ele>
        <time>2026-09-01T13:46:39.756Z</time>
      </trkpt>
      <trkpt lat="49.52912" lon="1.30801">
        <ele>112</ele>
        <time>2026-09-01T13:46:43.837Z</time>
      </trkpt>
      <trkpt lat="49.52908" lon="1.30796">
        <ele>112</ele>
        <time>2026-09-01T13:46:48.097Z</time>
      </trkpt>
      <trkpt lat="49.52904" lon="1.3079">
        <ele>113</ele>
        <time>2026-09-01T13:46:52.297Z</time>
      </trkpt>
      <trkpt lat="49.52901" lon="1.30785">
        <ele>112</ele>
        <time>2026-09-01T13:46:56.517Z</time>
      </trkpt>
      <trkpt lat="49.52897" lon="1.3078">
        <ele>112</ele>
        <time>2026-09-01T13:47:00.559Z</time>
      </trkpt>
      <trkpt lat="49.52894" lon="1.30775">
        <ele>112</ele>
        <time>2026-09-01T13:47:04.838Z</time>
      </trkpt>
      <trkpt lat="49.52891" lon="1.3077">
        <ele>112</ele>
        <time>2026-09-01T13:47:09.094Z</time>
      </trkpt>
      <trkpt lat="49.52887" lon="1.30764">
        <ele>112</ele>
        <time>2026-09-01T13:47:13.338Z</time>
      </trkpt>
      <trkpt lat="49.52884" lon="1.30759">
        <ele>111</ele>
        <time>2026-09-01T13:47:17.538Z</time>
      </trkpt>
      <trkpt lat="49.5288" lon="1.30755">
        <ele>111</ele>
        <time>2026-09-01T13:47:21.659Z</time>
      </trkpt>
      <trkpt lat="49.52876" lon="1.30748">
        <ele>111</ele>
        <time>2026-09-01T13:47:26.375Z</time>
      </trkpt>
      <trkpt lat="49.52871" lon="1.30742">
        <ele>112</ele>
        <time>2026-09-01T13:47:31.022Z</time>
      </trkpt>
      <trkpt lat="49.52867" lon="1.30736">
        <ele>111</ele>
        <time>2026-09-01T13:47:35.679Z</time>
      </trkpt>
      <trkpt lat="49.52863" lon="1.3073">
        <ele>111</ele>
        <time>2026-09-01T13:47:40.092Z</time>
      </trkpt>
      <trkpt lat="49.52858" lon="1.30724">
        <ele>111</ele>
        <time>2026-09-01T13:47:44.924Z</time>
      </trkpt>
      <trkpt lat="49.52854" lon="1.30718">
        <ele>111</ele>
        <time>2026-09-01T13:47:49.025Z</time>
      </trkpt>
      <trkpt lat="49.5285" lon="1.30712">
        <ele>111</ele>
        <time>2026-09-01T13:47:53.056Z</time>
      </trkpt>
      <trkpt lat="49.52847" lon="1.30707">
        <ele>111</ele>
        <time>2026-09-01T13:47:57.097Z</time>
      </trkpt>
      <trkpt lat="49.52843" lon="1.30703">
        <ele>111</ele>
        <time>2026-09-01T13:48:01.238Z</time>
      </trkpt>
      <trkpt lat="49.52841" lon="1.307">
        <ele>111</ele>
        <time>2026-09-01T13:48:05.299Z</time>
      </trkpt>
      <trkpt lat="49.52836" lon="1.30698">
        <ele>111</ele>
        <time>2026-09-01T13:48:09.995Z</time>
      </trkpt>
      <trkpt lat="49.52831" lon="1.30695">
        <ele>111</ele>
        <time>2026-09-01T13:48:14.037Z</time>
      </trkpt>
      <trkpt lat="49.52829" lon="1.30691">
        <ele>111</ele>
        <time>2026-09-01T13:48:18.095Z</time>
      </trkpt>
      <trkpt lat="49.52826" lon="1.30686">
        <ele>111</ele>
        <time>2026-09-01T13:48:22.804Z</time>
      </trkpt>
      <trkpt lat="49.52822" lon="1.3068">
        <ele>113</ele>
        <time>2026-09-01T13:48:27.461Z</time>
      </trkpt>
      <trkpt lat="49.52819" lon="1.30674">
        <ele>111</ele>
        <time>2026-09-01T13:48:32.039Z</time>
      </trkpt>
      <trkpt lat="49.52813" lon="1.30671">
        <ele>111</ele>
        <time>2026-09-01T13:48:36.378Z</time>
      </trkpt>
      <trkpt lat="49.52808" lon="1.30665">
        <ele>111</ele>
        <time>2026-09-01T13:48:41.092Z</time>
      </trkpt>
      <trkpt lat="49.52806" lon="1.30658">
        <ele>111</ele>
        <time>2026-09-01T13:48:45.523Z</time>
      </trkpt>
      <trkpt lat="49.52801" lon="1.3065">
        <ele>113</ele>
        <time>2026-09-01T13:48:50.095Z</time>
      </trkpt>
      <trkpt lat="49.52797" lon="1.30643">
        <ele>113</ele>
        <time>2026-09-01T13:48:54.579Z</time>
      </trkpt>
      <trkpt lat="49.52793" lon="1.30636">
        <ele>113</ele>
        <time>2026-09-01T13:48:59.090Z</time>
      </trkpt>
      <trkpt lat="49.5279" lon="1.30629">
        <ele>109</ele>
        <time>2026-09-01T13:49:03.356Z</time>
      </trkpt>
      <trkpt lat="49.52787" lon="1.30624">
        <ele>110</ele>
        <time>2026-09-01T13:49:07.497Z</time>
      </trkpt>
      <trkpt lat="49.52785" lon="1.30619">
        <ele>110</ele>
        <time>2026-09-01T13:49:12.087Z</time>
      </trkpt>
      <trkpt lat="49.52783" lon="1.30611">
        <ele>110</ele>
        <time>2026-09-01T13:49:16.741Z</time>
      </trkpt>
      <trkpt lat="49.52779" lon="1.30605">
        <ele>110</ele>
        <time>2026-09-01T13:49:21.219Z</time>
      </trkpt>
      <trkpt lat="49.52775" lon="1.30598">
        <ele>110</ele>
        <time>2026-09-01T13:49:25.856Z</time>
      </trkpt>
      <trkpt lat="49.52772" lon="1.30591">
        <ele>111</ele>
        <time>2026-09-01T13:49:29.878Z</time>
      </trkpt>
      <trkpt lat="49.52768" lon="1.30584">
        <ele>111</ele>
        <time>2026-09-01T13:49:33.899Z</time>
      </trkpt>
      <trkpt lat="49.52765" lon="1.30579">
        <ele>111</ele>
        <time>2026-09-01T13:49:37.940Z</time>
      </trkpt>
      <trkpt lat="49.52761" lon="1.30573">
        <ele>108</ele>
        <time>2026-09-01T13:49:42.021Z</time>
      </trkpt>
      <trkpt lat="49.52757" lon="1.30565">
        <ele>109</ele>
        <time>2026-09-01T13:49:46.599Z</time>
      </trkpt>
      <trkpt lat="49.52753" lon="1.30557">
        <ele>109</ele>
        <time>2026-09-01T13:49:51.086Z</time>
      </trkpt>
      <trkpt lat="49.52749" lon="1.30551">
        <ele>109</ele>
        <time>2026-09-01T13:49:55.197Z</time>
      </trkpt>
      <trkpt lat="49.52746" lon="1.30547">
        <ele>109</ele>
        <time>2026-09-01T13:49:59.318Z</time>
      </trkpt>
      <trkpt lat="49.52742" lon="1.30541">
        <ele>110</ele>
        <time>2026-09-01T13:50:03.876Z</time>
      </trkpt>
      <trkpt lat="49.52739" lon="1.30533">
        <ele>110</ele>
        <time>2026-09-01T13:50:07.897Z</time>
      </trkpt>
      <trkpt lat="49.52736" lon="1.30526">
        <ele>109</ele>
        <time>2026-09-01T13:50:11.958Z</time>
      </trkpt>
      <trkpt lat="49.52732" lon="1.30521">
        <ele>109</ele>
        <time>2026-09-01T13:50:15.980Z</time>
      </trkpt>
      <trkpt lat="49.52727" lon="1.30517">
        <ele>109</ele>
        <time>2026-09-01T13:50:20.021Z</time>
      </trkpt>
      <trkpt lat="49.52723" lon="1.30512">
        <ele>110</ele>
        <time>2026-09-01T13:50:24.598Z</time>
      </trkpt>
      <trkpt lat="49.52718" lon="1.30509">
        <ele>110</ele>
        <time>2026-09-01T13:50:29.094Z</time>
      </trkpt>
      <trkpt lat="49.52714" lon="1.30504">
        <ele>110</ele>
        <time>2026-09-01T13:50:33.091Z</time>
      </trkpt>
      <trkpt lat="49.52709" lon="1.30498">
        <ele>110</ele>
        <time>2026-09-01T13:50:37.785Z</time>
      </trkpt>
      <trkpt lat="49.52704" lon="1.30493">
        <ele>108</ele>
        <time>2026-09-01T13:50:42.263Z</time>
      </trkpt>
      <trkpt lat="49.52699" lon="1.30489">
        <ele>108</ele>
        <time>2026-09-01T13:50:46.324Z</time>
      </trkpt>
      <trkpt lat="49.52694" lon="1.30485">
        <ele>109</ele>
        <time>2026-09-01T13:50:50.842Z</time>
      </trkpt>
      <trkpt lat="49.52689" lon="1.30482">
        <ele>109</ele>
        <time>2026-09-01T13:50:55.360Z</time>
      </trkpt>
      <trkpt lat="49.52684" lon="1.30478">
        <ele>109</ele>
        <time>2026-09-01T13:50:59.858Z</time>
      </trkpt>
      <trkpt lat="49.52679" lon="1.30472">
        <ele>108</ele>
        <time>2026-09-01T13:51:04.375Z</time>
      </trkpt>
      <trkpt lat="49.52675" lon="1.30468">
        <ele>108</ele>
        <time>2026-09-01T13:51:08.983Z</time>
      </trkpt>
      <trkpt lat="49.5267" lon="1.30466">
        <ele>108</ele>
        <time>2026-09-01T13:51:13.461Z</time>
      </trkpt>
      <trkpt lat="49.52665" lon="1.30463">
        <ele>108</ele>
        <time>2026-09-01T13:51:17.919Z</time>
      </trkpt>
      <trkpt lat="49.5266" lon="1.30459">
        <ele>108</ele>
        <time>2026-09-01T13:51:22.536Z</time>
      </trkpt>
      <trkpt lat="49.52655" lon="1.30456">
        <ele>110</ele>
        <time>2026-09-01T13:51:27.091Z</time>
      </trkpt>
      <trkpt lat="49.52649" lon="1.30453">
        <ele>108</ele>
        <time>2026-09-01T13:51:31.781Z</time>
      </trkpt>
      <trkpt lat="49.52644" lon="1.3045">
        <ele>108</ele>
        <time>2026-09-01T13:51:36.298Z</time>
      </trkpt>
      <trkpt lat="49.52638" lon="1.30446">
        <ele>108</ele>
        <time>2026-09-01T13:51:40.876Z</time>
      </trkpt>
      <trkpt lat="49.52633" lon="1.30443">
        <ele>108</ele>
        <time>2026-09-01T13:51:45.463Z</time>
      </trkpt>
      <trkpt lat="49.52629" lon="1.30438">
        <ele>108</ele>
        <time>2026-09-01T13:51:49.505Z</time>
      </trkpt>
      <trkpt lat="49.52624" lon="1.30435">
        <ele>106</ele>
        <time>2026-09-01T13:51:53.963Z</time>
      </trkpt>
      <trkpt lat="49.52618" lon="1.30433">
        <ele>106</ele>
        <time>2026-09-01T13:51:58.421Z</time>
      </trkpt>
      <trkpt lat="49.52613" lon="1.30432">
        <ele>106</ele>
        <time>2026-09-01T13:52:02.502Z</time>
      </trkpt>
      <trkpt lat="49.52608" lon="1.30429">
        <ele>109</ele>
        <time>2026-09-01T13:52:07.096Z</time>
      </trkpt>
      <trkpt lat="49.52604" lon="1.30424">
        <ele>109</ele>
        <time>2026-09-01T13:52:11.637Z</time>
      </trkpt>
      <trkpt lat="49.52598" lon="1.3042">
        <ele>109</ele>
        <time>2026-09-01T13:52:16.090Z</time>
      </trkpt>
      <trkpt lat="49.52593" lon="1.30417">
        <ele>108</ele>
        <time>2026-09-01T13:52:20.802Z</time>
      </trkpt>
      <trkpt lat="49.52587" lon="1.30413">
        <ele>108</ele>
        <time>2026-09-01T13:52:25.399Z</time>
      </trkpt>
      <trkpt lat="49.52582" lon="1.3041">
        <ele>108</ele>
        <time>2026-09-01T13:52:29.857Z</time>
      </trkpt>
      <trkpt lat="49.5258" lon="1.30406">
        <ele>108</ele>
        <time>2026-09-01T13:52:34.018Z</time>
      </trkpt>
      <trkpt lat="49.52575" lon="1.30402">
        <ele>112</ele>
        <time>2026-09-01T13:52:38.090Z</time>
      </trkpt>
      <trkpt lat="49.52569" lon="1.304">
        <ele>112</ele>
        <time>2026-09-01T13:52:42.815Z</time>
      </trkpt>
      <trkpt lat="49.52564" lon="1.30398">
        <ele>112</ele>
        <time>2026-09-01T13:52:47.561Z</time>
      </trkpt>
      <trkpt lat="49.5256" lon="1.30395">
        <ele>112</ele>
        <time>2026-09-01T13:52:51.583Z</time>
      </trkpt>
      <trkpt lat="49.52555" lon="1.30391">
        <ele>112</ele>
        <time>2026-09-01T13:52:55.823Z</time>
      </trkpt>
      <trkpt lat="49.5255" lon="1.30388">
        <ele>112</ele>
        <time>2026-09-01T13:52:59.864Z</time>
      </trkpt>
      <trkpt lat="49.52546" lon="1.30385">
        <ele>112</ele>
        <time>2026-09-01T13:53:04.004Z</time>
      </trkpt>
      <trkpt lat="49.52542" lon="1.30382">
        <ele>112</ele>
        <time>2026-09-01T13:53:08.016Z</time>
      </trkpt>
      <trkpt lat="49.52537" lon="1.30377">
        <ele>114</ele>
        <time>2026-09-01T13:53:12.096Z</time>
      </trkpt>
      <trkpt lat="49.52533" lon="1.30374">
        <ele>117</ele>
        <time>2026-09-01T13:53:16.237Z</time>
      </trkpt>
      <trkpt lat="49.52528" lon="1.30372">
        <ele>117</ele>
        <time>2026-09-01T13:53:20.418Z</time>
      </trkpt>
      <trkpt lat="49.52524" lon="1.30369">
        <ele>117</ele>
        <time>2026-09-01T13:53:24.459Z</time>
      </trkpt>
      <trkpt lat="49.52519" lon="1.30366">
        <ele>117</ele>
        <time>2026-09-01T13:53:28.699Z</time>
      </trkpt>
      <trkpt lat="49.52515" lon="1.30363">
        <ele>117</ele>
        <time>2026-09-01T13:53:32.859Z</time>
      </trkpt>
      <trkpt lat="49.5251" lon="1.30361">
        <ele>118</ele>
        <time>2026-09-01T13:53:37.059Z</time>
      </trkpt>
      <trkpt lat="49.52505" lon="1.30358">
        <ele>118</ele>
        <time>2026-09-01T13:53:41.239Z</time>
      </trkpt>
      <trkpt lat="49.525" lon="1.30356">
        <ele>118</ele>
        <time>2026-09-01T13:53:45.400Z</time>
      </trkpt>
      <trkpt lat="49.52497" lon="1.30359">
        <ele>118</ele>
        <time>2026-09-01T13:53:49.501Z</time>
      </trkpt>
      <trkpt lat="49.52492" lon="1.30359">
        <ele>118</ele>
        <time>2026-09-01T13:53:53.780Z</time>
      </trkpt>
      <trkpt lat="49.52488" lon="1.30356">
        <ele>118</ele>
        <time>2026-09-01T13:53:57.841Z</time>
      </trkpt>
      <trkpt lat="49.52483" lon="1.30353">
        <ele>116</ele>
        <time>2026-09-01T13:54:02.002Z</time>
      </trkpt>
      <trkpt lat="49.52479" lon="1.30349">
        <ele>116</ele>
        <time>2026-09-01T13:54:06.088Z</time>
      </trkpt>
      <trkpt lat="49.52473" lon="1.30348">
        <ele>116</ele>
        <time>2026-09-01T13:54:10.740Z</time>
      </trkpt>
      <trkpt lat="49.52468" lon="1.30349">
        <ele>116</ele>
        <time>2026-09-01T13:54:14.999Z</time>
      </trkpt>
      <trkpt lat="49.52463" lon="1.30351">
        <ele>116</ele>
        <time>2026-09-01T13:54:19.358Z</time>
      </trkpt>
      <trkpt lat="49.52458" lon="1.30353">
        <ele>116</ele>
        <time>2026-09-01T13:54:23.658Z</time>
      </trkpt>
      <trkpt lat="49.52453" lon="1.30354">
        <ele>113</ele>
        <time>2026-09-01T13:54:27.858Z</time>
      </trkpt>
      <trkpt lat="49.52449" lon="1.30354">
        <ele>113</ele>
        <time>2026-09-01T13:54:31.979Z</time>
      </trkpt>
      <trkpt lat="49.52445" lon="1.30353">
        <ele>113</ele>
        <time>2026-09-01T13:54:36.199Z</time>
      </trkpt>
      <trkpt lat="49.5244" lon="1.30351">
        <ele>113</ele>
        <time>2026-09-01T13:54:40.260Z</time>
      </trkpt>
      <trkpt lat="49.52436" lon="1.30351">
        <ele>113</ele>
        <time>2026-09-01T13:54:44.619Z</time>
      </trkpt>
      <trkpt lat="49.52432" lon="1.30352">
        <ele>113</ele>
        <time>2026-09-01T13:54:48.899Z</time>
      </trkpt>
      <trkpt lat="49.52427" lon="1.30351">
        <ele>112</ele>
        <time>2026-09-01T13:54:53.158Z</time>
      </trkpt>
      <trkpt lat="49.52423" lon="1.30351">
        <ele>112</ele>
        <time>2026-09-01T13:54:57.696Z</time>
      </trkpt>
      <trkpt lat="49.52419" lon="1.30351">
        <ele>112</ele>
        <time>2026-09-01T13:55:01.916Z</time>
      </trkpt>
      <trkpt lat="49.52415" lon="1.30349">
        <ele>112</ele>
        <time>2026-09-01T13:55:06.603Z</time>
      </trkpt>
      <trkpt lat="49.5241" lon="1.30349">
        <ele>112</ele>
        <time>2026-09-01T13:55:10.903Z</time>
      </trkpt>
      <trkpt lat="49.52406" lon="1.30349">
        <ele>112</ele>
        <time>2026-09-01T13:55:15.341Z</time>
      </trkpt>
      <trkpt lat="49.52402" lon="1.30347">
        <ele>114</ele>
        <time>2026-09-01T13:55:19.621Z</time>
      </trkpt>
      <trkpt lat="49.52397" lon="1.30346">
        <ele>114</ele>
        <time>2026-09-01T13:55:24.083Z</time>
      </trkpt>
      <trkpt lat="49.52392" lon="1.30345">
        <ele>114</ele>
        <time>2026-09-01T13:55:28.578Z</time>
      </trkpt>
      <trkpt lat="49.52387" lon="1.30344">
        <ele>114</ele>
        <time>2026-09-01T13:55:32.639Z</time>
      </trkpt>
      <trkpt lat="49.52382" lon="1.30344">
        <ele>114</ele>
        <time>2026-09-01T13:55:36.700Z</time>
      </trkpt>
      <trkpt lat="49.52378" lon="1.30345">
        <ele>114</ele>
        <time>2026-09-01T13:55:40.761Z</time>
      </trkpt>
      <trkpt lat="49.52374" lon="1.30343">
        <ele>113</ele>
        <time>2026-09-01T13:55:44.882Z</time>
      </trkpt>
      <trkpt lat="49.52369" lon="1.30339">
        <ele>113</ele>
        <time>2026-09-01T13:55:48.963Z</time>
      </trkpt>
      <trkpt lat="49.52364" lon="1.30336">
        <ele>113</ele>
        <time>2026-09-01T13:55:53.089Z</time>
      </trkpt>
      <trkpt lat="49.52359" lon="1.30335">
        <ele>113</ele>
        <time>2026-09-01T13:55:57.155Z</time>
      </trkpt>
      <trkpt lat="49.52354" lon="1.30334">
        <ele>113</ele>
        <time>2026-09-01T13:56:01.395Z</time>
      </trkpt>
      <trkpt lat="49.5235" lon="1.30332">
        <ele>113</ele>
        <time>2026-09-01T13:56:05.536Z</time>
      </trkpt>
      <trkpt lat="49.52345" lon="1.30331">
        <ele>113</ele>
        <time>2026-09-01T13:56:09.657Z</time>
      </trkpt>
      <trkpt lat="49.5234" lon="1.30329">
        <ele>113</ele>
        <time>2026-09-01T13:56:13.718Z</time>
      </trkpt>
      <trkpt lat="49.52335" lon="1.30328">
        <ele>113</ele>
        <time>2026-09-01T13:56:17.839Z</time>
      </trkpt>
      <trkpt lat="49.52331" lon="1.30327">
        <ele>113</ele>
        <time>2026-09-01T13:56:21.940Z</time>
      </trkpt>
      <trkpt lat="49.52326" lon="1.30324">
        <ele>113</ele>
        <time>2026-09-01T13:56:26.021Z</time>
      </trkpt>
      <trkpt lat="49.52322" lon="1.30319">
        <ele>114</ele>
        <time>2026-09-01T13:56:30.086Z</time>
      </trkpt>
      <trkpt lat="49.52317" lon="1.30314">
        <ele>112</ele>
        <time>2026-09-01T13:56:34.086Z</time>
      </trkpt>
      <trkpt lat="49.52313" lon="1.3031">
        <ele>112</ele>
        <time>2026-09-01T13:56:38.264Z</time>
      </trkpt>
      <trkpt lat="49.52308" lon="1.30307">
        <ele>112</ele>
        <time>2026-09-01T13:56:42.355Z</time>
      </trkpt>
      <trkpt lat="49.52303" lon="1.30305">
        <ele>112</ele>
        <time>2026-09-01T13:56:46.436Z</time>
      </trkpt>
      <trkpt lat="49.52299" lon="1.30303">
        <ele>112</ele>
        <time>2026-09-01T13:56:50.596Z</time>
      </trkpt>
      <trkpt lat="49.52294" lon="1.30301">
        <ele>112</ele>
        <time>2026-09-01T13:56:54.638Z</time>
      </trkpt>
      <trkpt lat="49.52289" lon="1.303">
        <ele>110</ele>
        <time>2026-09-01T13:56:59.195Z</time>
      </trkpt>
      <trkpt lat="49.52284" lon="1.30299">
        <ele>110</ele>
        <time>2026-09-01T13:57:03.336Z</time>
      </trkpt>
      <trkpt lat="49.5228" lon="1.30298">
        <ele>110</ele>
        <time>2026-09-01T13:57:07.397Z</time>
      </trkpt>
      <trkpt lat="49.52276" lon="1.30296">
        <ele>110</ele>
        <time>2026-09-01T13:57:11.617Z</time>
      </trkpt>
      <trkpt lat="49.52271" lon="1.30295">
        <ele>110</ele>
        <time>2026-09-01T13:57:15.678Z</time>
      </trkpt>
      <trkpt lat="49.52258" lon="1.3029">
        <ele>111</ele>
        <time>2026-09-01T13:57:37.094Z</time>
      </trkpt>
      <trkpt lat="49.52256" lon="1.30287">
        <ele>111</ele>
        <time>2026-09-01T13:57:41.544Z</time>
      </trkpt>
      <trkpt lat="49.52252" lon="1.30282">
        <ele>111</ele>
        <time>2026-09-01T13:57:45.844Z</time>
      </trkpt>
      <trkpt lat="49.52247" lon="1.30277">
        <ele>111</ele>
        <time>2026-09-01T13:57:50.092Z</time>
      </trkpt>
      <trkpt lat="49.52243" lon="1.30274">
        <ele>111</ele>
        <time>2026-09-01T13:57:54.562Z</time>
      </trkpt>
      <trkpt lat="49.52238" lon="1.30272">
        <ele>111</ele>
        <time>2026-09-01T13:57:58.861Z</time>
      </trkpt>
      <trkpt lat="49.52234" lon="1.30271">
        <ele>110</ele>
        <time>2026-09-01T13:58:03.081Z</time>
      </trkpt>
      <trkpt lat="49.5223" lon="1.30269">
        <ele>110</ele>
        <time>2026-09-01T13:58:07.222Z</time>
      </trkpt>
      <trkpt lat="49.52226" lon="1.30265">
        <ele>110</ele>
        <time>2026-09-01T13:58:11.462Z</time>
      </trkpt>
      <trkpt lat="49.52222" lon="1.3026">
        <ele>110</ele>
        <time>2026-09-01T13:58:15.642Z</time>
      </trkpt>
      <trkpt lat="49.52218" lon="1.30255">
        <ele>110</ele>
        <time>2026-09-01T13:58:19.882Z</time>
      </trkpt>
      <trkpt lat="49.52214" lon="1.30251">
        <ele>110</ele>
        <time>2026-09-01T13:58:24.022Z</time>
      </trkpt>
      <trkpt lat="49.5221" lon="1.30247">
        <ele>110</ele>
        <time>2026-09-01T13:58:28.083Z</time>
      </trkpt>
      <trkpt lat="49.52206" lon="1.30242">
        <ele>108</ele>
        <time>2026-09-01T13:58:32.264Z</time>
      </trkpt>
      <trkpt lat="49.52202" lon="1.30237">
        <ele>108</ele>
        <time>2026-09-01T13:58:36.384Z</time>
      </trkpt>
      <trkpt lat="49.52197" lon="1.30232">
        <ele>109</ele>
        <time>2026-09-01T13:58:41.061Z</time>
      </trkpt>
      <trkpt lat="49.52192" lon="1.30227">
        <ele>109</ele>
        <time>2026-09-01T13:58:45.089Z</time>
      </trkpt>
      <trkpt lat="49.52189" lon="1.30221">
        <ele>109</ele>
        <time>2026-09-01T13:58:49.263Z</time>
      </trkpt>
      <trkpt lat="49.52185" lon="1.30216">
        <ele>109</ele>
        <time>2026-09-01T13:58:53.364Z</time>
      </trkpt>
      <trkpt lat="49.52181" lon="1.30211">
        <ele>109</ele>
        <time>2026-09-01T13:58:57.584Z</time>
      </trkpt>
      <trkpt lat="49.52178" lon="1.30207">
        <ele>108</ele>
        <time>2026-09-01T13:59:01.764Z</time>
      </trkpt>
      <trkpt lat="49.52174" lon="1.30204">
        <ele>108</ele>
        <time>2026-09-01T13:59:06.024Z</time>
      </trkpt>
      <trkpt lat="49.5217" lon="1.30202">
        <ele>108</ele>
        <time>2026-09-01T13:59:10.164Z</time>
      </trkpt>
      <trkpt lat="49.52166" lon="1.30199">
        <ele>108</ele>
        <time>2026-09-01T13:59:14.503Z</time>
      </trkpt>
      <trkpt lat="49.52163" lon="1.30195">
        <ele>108</ele>
        <time>2026-09-01T13:59:18.803Z</time>
      </trkpt>
      <trkpt lat="49.52159" lon="1.30192">
        <ele>108</ele>
        <time>2026-09-01T13:59:23.043Z</time>
      </trkpt>
      <trkpt lat="49.52155" lon="1.30189">
        <ele>108</ele>
        <time>2026-09-01T13:59:27.243Z</time>
      </trkpt>
      <trkpt lat="49.52151" lon="1.30183">
        <ele>106</ele>
        <time>2026-09-01T13:59:31.522Z</time>
      </trkpt>
      <trkpt lat="49.52147" lon="1.30177">
        <ele>107</ele>
        <time>2026-09-01T13:59:36.087Z</time>
      </trkpt>
      <trkpt lat="49.52147" lon="1.30177">
        <ele>107</ele>
        <time>2026-09-01T13:59:40.095Z</time>
      </trkpt>
      <trkpt lat="49.52146" lon="1.30177">
        <ele>107</ele>
        <time>2026-09-01T13:59:44.897Z</time>
      </trkpt>
      <trkpt lat="49.52142" lon="1.30174">
        <ele>107</ele>
        <time>2026-09-01T13:59:49.038Z</time>
      </trkpt>
      <trkpt lat="49.52139" lon="1.30171">
        <ele>107</ele>
        <time>2026-09-01T13:59:53.456Z</time>
      </trkpt>
      <trkpt lat="49.52133" lon="1.30168">
        <ele>107</ele>
        <time>2026-09-01T14:01:26.093Z</time>
      </trkpt>
      <trkpt lat="49.52129" lon="1.30162">
        <ele>107</ele>
        <time>2026-09-01T14:01:31.099Z</time>
      </trkpt>
      <trkpt lat="49.52123" lon="1.30154">
        <ele>106</ele>
        <time>2026-09-01T14:01:36.088Z</time>
      </trkpt>
      <trkpt lat="49.52118" lon="1.30149">
        <ele>107</ele>
        <time>2026-09-01T14:01:40.093Z</time>
      </trkpt>
      <trkpt lat="49.52115" lon="1.30144">
        <ele>107</ele>
        <time>2026-09-01T14:01:44.161Z</time>
      </trkpt>
      <trkpt lat="49.52111" lon="1.30139">
        <ele>107</ele>
        <time>2026-09-01T14:01:48.778Z</time>
      </trkpt>
      <trkpt lat="49.52107" lon="1.30135">
        <ele>107</ele>
        <time>2026-09-01T14:01:52.819Z</time>
      </trkpt>
      <trkpt lat="49.52102" lon="1.30131">
        <ele>107</ele>
        <time>2026-09-01T14:01:57.357Z</time>
      </trkpt>
      <trkpt lat="49.52097" lon="1.30126">
        <ele>106</ele>
        <time>2026-09-01T14:02:01.964Z</time>
      </trkpt>
      <trkpt lat="49.52094" lon="1.30116">
        <ele>108</ele>
        <time>2026-09-01T14:15:03.088Z</time>
      </trkpt>
      <trkpt lat="49.52093" lon="1.30115">
        <ele>108</ele>
        <time>2026-09-01T14:15:07.557Z</time>
      </trkpt>
      <trkpt lat="49.52088" lon="1.3012">
        <ele>108</ele>
        <time>2026-09-01T14:15:11.678Z</time>
      </trkpt>
      <trkpt lat="49.52084" lon="1.30115">
        <ele>108</ele>
        <time>2026-09-01T14:15:15.699Z</time>
      </trkpt>
      <trkpt lat="49.5208" lon="1.30111">
        <ele>108</ele>
        <time>2026-09-01T14:15:19.999Z</time>
      </trkpt>
      <trkpt lat="49.52075" lon="1.30107">
        <ele>108</ele>
        <time>2026-09-01T14:15:24.040Z</time>
      </trkpt>
      <trkpt lat="49.52072" lon="1.30104">
        <ele>108</ele>
        <time>2026-09-01T14:15:28.093Z</time>
      </trkpt>
      <trkpt lat="49.52067" lon="1.301">
        <ele>105</ele>
        <time>2026-09-01T14:15:32.182Z</time>
      </trkpt>
      <trkpt lat="49.52062" lon="1.30097">
        <ele>106</ele>
        <time>2026-09-01T14:15:36.263Z</time>
      </trkpt>
      <trkpt lat="49.52057" lon="1.30094">
        <ele>106</ele>
        <time>2026-09-01T14:15:40.344Z</time>
      </trkpt>
      <trkpt lat="49.52053" lon="1.3009">
        <ele>106</ele>
        <time>2026-09-01T14:15:44.375Z</time>
      </trkpt>
      <trkpt lat="49.52048" lon="1.30085">
        <ele>106</ele>
        <time>2026-09-01T14:15:48.982Z</time>
      </trkpt>
      <trkpt lat="49.52044" lon="1.30081">
        <ele>106</ele>
        <time>2026-09-01T14:15:53.540Z</time>
      </trkpt>
      <trkpt lat="49.5204" lon="1.30078">
        <ele>104</ele>
        <time>2026-09-01T14:15:57.561Z</time>
      </trkpt>
      <trkpt lat="49.52035" lon="1.30076">
        <ele>104</ele>
        <time>2026-09-01T14:16:01.602Z</time>
      </trkpt>
      <trkpt lat="49.52028" lon="1.30074">
        <ele>104</ele>
        <time>2026-09-01T14:16:06.085Z</time>
      </trkpt>
      <trkpt lat="49.52023" lon="1.30071">
        <ele>104</ele>
        <time>2026-09-01T14:16:10.221Z</time>
      </trkpt>
      <trkpt lat="49.52019" lon="1.30066">
        <ele>106</ele>
        <time>2026-09-01T14:16:14.362Z</time>
      </trkpt>
      <trkpt lat="49.52013" lon="1.30061">
        <ele>105</ele>
        <time>2026-09-01T14:16:18.840Z</time>
      </trkpt>
      <trkpt lat="49.52007" lon="1.30056">
        <ele>105</ele>
        <time>2026-09-01T14:16:23.417Z</time>
      </trkpt>
      <trkpt lat="49.52001" lon="1.30051">
        <ele>105</ele>
        <time>2026-09-01T14:16:28.024Z</time>
      </trkpt>
      <trkpt lat="49.51996" lon="1.30048">
        <ele>105</ele>
        <time>2026-09-01T14:16:32.602Z</time>
      </trkpt>
      <trkpt lat="49.51991" lon="1.30045">
        <ele>105</ele>
        <time>2026-09-01T14:16:36.603Z</time>
      </trkpt>
      <trkpt lat="49.51986" lon="1.3004">
        <ele>108</ele>
        <time>2026-09-01T14:16:41.086Z</time>
      </trkpt>
      <trkpt lat="49.51981" lon="1.30036">
        <ele>105</ele>
        <time>2026-09-01T14:16:45.679Z</time>
      </trkpt>
      <trkpt lat="49.51976" lon="1.30034">
        <ele>105</ele>
        <time>2026-09-01T14:16:50.087Z</time>
      </trkpt>
      <trkpt lat="49.5197" lon="1.30031">
        <ele>105</ele>
        <time>2026-09-01T14:16:54.090Z</time>
      </trkpt>
      <trkpt lat="49.51964" lon="1.30029">
        <ele>105</ele>
        <time>2026-09-01T14:16:58.676Z</time>
      </trkpt>
      <trkpt lat="49.51959" lon="1.30025">
        <ele>105</ele>
        <time>2026-09-01T14:17:03.224Z</time>
      </trkpt>
      <trkpt lat="49.51954" lon="1.30021">
        <ele>103</ele>
        <time>2026-09-01T14:17:07.761Z</time>
      </trkpt>
      <trkpt lat="49.51948" lon="1.30018">
        <ele>103</ele>
        <time>2026-09-01T14:17:12.279Z</time>
      </trkpt>
      <trkpt lat="49.51942" lon="1.30015">
        <ele>103</ele>
        <time>2026-09-01T14:17:16.777Z</time>
      </trkpt>
      <trkpt lat="49.51936" lon="1.30013">
        <ele>108</ele>
        <time>2026-09-01T14:17:21.216Z</time>
      </trkpt>
      <trkpt lat="49.5193" lon="1.3001">
        <ele>107</ele>
        <time>2026-09-01T14:17:25.704Z</time>
      </trkpt>
      <trkpt lat="49.51925" lon="1.30008">
        <ele>107</ele>
        <time>2026-09-01T14:17:30.096Z</time>
      </trkpt>
      <trkpt lat="49.51919" lon="1.30005">
        <ele>107</ele>
        <time>2026-09-01T14:17:34.700Z</time>
      </trkpt>
      <trkpt lat="49.51913" lon="1.30004">
        <ele>107</ele>
        <time>2026-09-01T14:17:39.089Z</time>
      </trkpt>
      <trkpt lat="49.51907" lon="1.30001">
        <ele>107</ele>
        <time>2026-09-01T14:17:43.160Z</time>
      </trkpt>
      <trkpt lat="49.51901" lon="1.29999">
        <ele>105</ele>
        <time>2026-09-01T14:17:47.717Z</time>
      </trkpt>
      <trkpt lat="49.51896" lon="1.29999">
        <ele>105</ele>
        <time>2026-09-01T14:17:51.798Z</time>
      </trkpt>
      <trkpt lat="49.51891" lon="1.29996">
        <ele>105</ele>
        <time>2026-09-01T14:17:56.435Z</time>
      </trkpt>
      <trkpt lat="49.51886" lon="1.29995">
        <ele>105</ele>
        <time>2026-09-01T14:18:00.476Z</time>
      </trkpt>
      <trkpt lat="49.51881" lon="1.29994">
        <ele>105</ele>
        <time>2026-09-01T14:18:04.597Z</time>
      </trkpt>
      <trkpt lat="49.51876" lon="1.29993">
        <ele>105</ele>
        <time>2026-09-01T14:18:09.084Z</time>
      </trkpt>
      <trkpt lat="49.51873" lon="1.29991">
        <ele>107</ele>
        <time>2026-09-01T14:18:13.136Z</time>
      </trkpt>
      <trkpt lat="49.51868" lon="1.29989">
        <ele>107</ele>
        <time>2026-09-01T14:18:17.744Z</time>
      </trkpt>
      <trkpt lat="49.51863" lon="1.2999">
        <ele>107</ele>
        <time>2026-09-01T14:18:21.825Z</time>
      </trkpt>
      <trkpt lat="49.51856" lon="1.29988">
        <ele>107</ele>
        <time>2026-09-01T14:18:26.362Z</time>
      </trkpt>
      <trkpt lat="49.51849" lon="1.29986">
        <ele>107</ele>
        <time>2026-09-01T14:18:30.900Z</time>
      </trkpt>
      <trkpt lat="49.51844" lon="1.29985">
        <ele>108</ele>
        <time>2026-09-01T14:18:35.497Z</time>
      </trkpt>
      <trkpt lat="49.5184" lon="1.29983">
        <ele>108</ele>
        <time>2026-09-01T14:18:40.086Z</time>
      </trkpt>
      <trkpt lat="49.51835" lon="1.29979">
        <ele>108</ele>
        <time>2026-09-01T14:18:44.762Z</time>
      </trkpt>
      <trkpt lat="49.5183" lon="1.29978">
        <ele>108</ele>
        <time>2026-09-01T14:18:48.723Z</time>
      </trkpt>
      <trkpt lat="49.51825" lon="1.29976">
        <ele>108</ele>
        <time>2026-09-01T14:18:52.864Z</time>
      </trkpt>
      <trkpt lat="49.51819" lon="1.29974">
        <ele>107</ele>
        <time>2026-09-01T14:18:57.481Z</time>
      </trkpt>
      <trkpt lat="49.51814" lon="1.29971">
        <ele>107</ele>
        <time>2026-09-01T14:19:02.039Z</time>
      </trkpt>
      <trkpt lat="49.51808" lon="1.29969">
        <ele>107</ele>
        <time>2026-09-01T14:19:06.596Z</time>
      </trkpt>
      <trkpt lat="49.51803" lon="1.29967">
        <ele>107</ele>
        <time>2026-09-01T14:19:11.083Z</time>
      </trkpt>
      <trkpt lat="49.51797" lon="1.29965">
        <ele>107</ele>
        <time>2026-09-01T14:19:15.761Z</time>
      </trkpt>
      <trkpt lat="49.51792" lon="1.29963">
        <ele>107</ele>
        <time>2026-09-01T14:19:20.359Z</time>
      </trkpt>
      <trkpt lat="49.51787" lon="1.29962">
        <ele>107</ele>
        <time>2026-09-01T14:19:25.055Z</time>
      </trkpt>
      <trkpt lat="49.51783" lon="1.2996">
        <ele>107</ele>
        <time>2026-09-01T14:19:29.077Z</time>
      </trkpt>
      <trkpt lat="49.51778" lon="1.29957">
        <ele>107</ele>
        <time>2026-09-01T14:19:33.317Z</time>
      </trkpt>
      <trkpt lat="49.51774" lon="1.29954">
        <ele>107</ele>
        <time>2026-09-01T14:19:37.338Z</time>
      </trkpt>
      <trkpt lat="49.51771" lon="1.2995">
        <ele>107</ele>
        <time>2026-09-01T14:19:41.379Z</time>
      </trkpt>
      <trkpt lat="49.51766" lon="1.29948">
        <ele>107</ele>
        <time>2026-09-01T14:19:45.381Z</time>
      </trkpt>
      <trkpt lat="49.51761" lon="1.29945">
        <ele>107</ele>
        <time>2026-09-01T14:19:49.541Z</time>
      </trkpt>
      <trkpt lat="49.51756" lon="1.29941">
        <ele>107</ele>
        <time>2026-09-01T14:19:53.523Z</time>
      </trkpt>
      <trkpt lat="49.51752" lon="1.29939">
        <ele>107</ele>
        <time>2026-09-01T14:19:57.684Z</time>
      </trkpt>
      <trkpt lat="49.51746" lon="1.29936">
        <ele>107</ele>
        <time>2026-09-01T14:20:02.340Z</time>
      </trkpt>
      <trkpt lat="49.51742" lon="1.29933">
        <ele>107</ele>
        <time>2026-09-01T14:20:06.402Z</time>
      </trkpt>
      <trkpt lat="49.51738" lon="1.2993">
        <ele>108</ele>
        <time>2026-09-01T14:20:10.542Z</time>
      </trkpt>
      <trkpt lat="49.51733" lon="1.29926">
        <ele>108</ele>
        <time>2026-09-01T14:20:14.603Z</time>
      </trkpt>
      <trkpt lat="49.51728" lon="1.29922">
        <ele>108</ele>
        <time>2026-09-01T14:20:18.744Z</time>
      </trkpt>
      <trkpt lat="49.51724" lon="1.2992">
        <ele>108</ele>
        <time>2026-09-01T14:20:22.775Z</time>
      </trkpt>
      <trkpt lat="49.51719" lon="1.29919">
        <ele>108</ele>
        <time>2026-09-01T14:20:26.936Z</time>
      </trkpt>
      <trkpt lat="49.51714" lon="1.29918">
        <ele>108</ele>
        <time>2026-09-01T14:20:30.937Z</time>
      </trkpt>
      <trkpt lat="49.5171" lon="1.29918">
        <ele>108</ele>
        <time>2026-09-01T14:20:35.083Z</time>
      </trkpt>
      <trkpt lat="49.51705" lon="1.29915">
        <ele>108</ele>
        <time>2026-09-01T14:20:39.278Z</time>
      </trkpt>
      <trkpt lat="49.517" lon="1.29912">
        <ele>108</ele>
        <time>2026-09-01T14:20:43.419Z</time>
      </trkpt>
      <trkpt lat="49.51695" lon="1.2991">
        <ele>108</ele>
        <time>2026-09-01T14:20:47.420Z</time>
      </trkpt>
      <trkpt lat="49.5169" lon="1.29909">
        <ele>108</ele>
        <time>2026-09-01T14:20:51.581Z</time>
      </trkpt>
      <trkpt lat="49.51685" lon="1.29908">
        <ele>108</ele>
        <time>2026-09-01T14:20:55.602Z</time>
      </trkpt>
      <trkpt lat="49.5168" lon="1.29907">
        <ele>106</ele>
        <time>2026-09-01T14:20:59.743Z</time>
      </trkpt>
      <trkpt lat="49.51676" lon="1.29904">
        <ele>106</ele>
        <time>2026-09-01T14:21:03.764Z</time>
      </trkpt>
      <trkpt lat="49.51672" lon="1.29902">
        <ele>107</ele>
        <time>2026-09-01T14:21:07.855Z</time>
      </trkpt>
      <trkpt lat="49.51668" lon="1.29901">
        <ele>107</ele>
        <time>2026-09-01T14:21:11.896Z</time>
      </trkpt>
      <trkpt lat="49.51663" lon="1.29896">
        <ele>107</ele>
        <time>2026-09-01T14:21:15.997Z</time>
      </trkpt>
      <trkpt lat="49.51661" lon="1.29891">
        <ele>107</ele>
        <time>2026-09-01T14:21:20.086Z</time>
      </trkpt>
      <trkpt lat="49.51659" lon="1.29892">
        <ele>107</ele>
        <time>2026-09-01T14:21:24.675Z</time>
      </trkpt>
      <trkpt lat="49.51655" lon="1.29891">
        <ele>107</ele>
        <time>2026-09-01T14:21:28.876Z</time>
      </trkpt>
      <trkpt lat="49.51651" lon="1.29892">
        <ele>105</ele>
        <time>2026-09-01T14:21:32.897Z</time>
      </trkpt>
      <trkpt lat="49.51647" lon="1.29889">
        <ele>105</ele>
        <time>2026-09-01T14:21:37.038Z</time>
      </trkpt>
      <trkpt lat="49.51643" lon="1.29886">
        <ele>105</ele>
        <time>2026-09-01T14:21:41.078Z</time>
      </trkpt>
      <trkpt lat="49.51639" lon="1.2988">
        <ele>105</ele>
        <time>2026-09-01T14:21:45.279Z</time>
      </trkpt>
      <trkpt lat="49.51636" lon="1.29873">
        <ele>107</ele>
        <time>2026-09-01T14:21:49.400Z</time>
      </trkpt>
      <trkpt lat="49.51632" lon="1.29865">
        <ele>107</ele>
        <time>2026-09-01T14:21:54.037Z</time>
      </trkpt>
      <trkpt lat="49.51629" lon="1.29859">
        <ele>107</ele>
        <time>2026-09-01T14:21:58.078Z</time>
      </trkpt>
      <trkpt lat="49.51626" lon="1.29853">
        <ele>107</ele>
        <time>2026-09-01T14:22:02.083Z</time>
      </trkpt>
      <trkpt lat="49.51623" lon="1.29847">
        <ele>107</ele>
        <time>2026-09-01T14:22:06.141Z</time>
      </trkpt>
      <trkpt lat="49.5162" lon="1.2984">
        <ele>107</ele>
        <time>2026-09-01T14:22:10.381Z</time>
      </trkpt>
      <trkpt lat="49.51617" lon="1.29835">
        <ele>107</ele>
        <time>2026-09-01T14:22:14.382Z</time>
      </trkpt>
      <trkpt lat="49.51615" lon="1.2983">
        <ele>107</ele>
        <time>2026-09-01T14:22:18.444Z</time>
      </trkpt>
      <trkpt lat="49.51611" lon="1.29825">
        <ele>107</ele>
        <time>2026-09-01T14:22:23.041Z</time>
      </trkpt>
      <trkpt lat="49.51609" lon="1.29818">
        <ele>108</ele>
        <time>2026-09-01T14:22:27.658Z</time>
      </trkpt>
      <trkpt lat="49.51606" lon="1.29812">
        <ele>108</ele>
        <time>2026-09-01T14:22:32.315Z</time>
      </trkpt>
      <trkpt lat="49.51606" lon="1.29805">
        <ele>108</ele>
        <time>2026-09-01T14:22:37.002Z</time>
      </trkpt>
      <trkpt lat="49.51605" lon="1.29796">
        <ele>108</ele>
        <time>2026-09-01T14:22:41.579Z</time>
      </trkpt>
      <trkpt lat="49.51609" lon="1.29788">
        <ele>108</ele>
        <time>2026-09-01T14:22:46.083Z</time>
      </trkpt>
      <trkpt lat="49.5161" lon="1.29779">
        <ele>108</ele>
        <time>2026-09-01T14:22:50.724Z</time>
      </trkpt>
      <trkpt lat="49.51606" lon="1.29771">
        <ele>108</ele>
        <time>2026-09-01T14:22:55.361Z</time>
      </trkpt>
      <trkpt lat="49.51603" lon="1.29763">
        <ele>109</ele>
        <time>2026-09-01T14:22:59.998Z</time>
      </trkpt>
      <trkpt lat="49.51598" lon="1.29758">
        <ele>109</ele>
        <time>2026-09-01T14:23:04.040Z</time>
      </trkpt>
      <trkpt lat="49.51595" lon="1.29752">
        <ele>107</ele>
        <time>2026-09-01T14:23:08.084Z</time>
      </trkpt>
      <trkpt lat="49.51592" lon="1.29744">
        <ele>107</ele>
        <time>2026-09-01T14:23:12.698Z</time>
      </trkpt>
      <trkpt lat="49.5159" lon="1.29735">
        <ele>108</ele>
        <time>2026-09-01T14:23:16.759Z</time>
      </trkpt>
      <trkpt lat="49.51588" lon="1.29729">
        <ele>108</ele>
        <time>2026-09-01T14:23:20.781Z</time>
      </trkpt>
      <trkpt lat="49.51584" lon="1.29722">
        <ele>108</ele>
        <time>2026-09-01T14:23:25.338Z</time>
      </trkpt>
      <trkpt lat="49.51581" lon="1.29716">
        <ele>108</ele>
        <time>2026-09-01T14:23:29.439Z</time>
      </trkpt>
      <trkpt lat="49.51578" lon="1.29712">
        <ele>108</ele>
        <time>2026-09-01T14:23:33.560Z</time>
      </trkpt>
      <trkpt lat="49.51576" lon="1.29705">
        <ele>108</ele>
        <time>2026-09-01T14:23:38.058Z</time>
      </trkpt>
      <trkpt lat="49.51574" lon="1.29699">
        <ele>108</ele>
        <time>2026-09-01T14:23:42.088Z</time>
      </trkpt>
      <trkpt lat="49.51571" lon="1.29694">
        <ele>108</ele>
        <time>2026-09-01T14:23:46.319Z</time>
      </trkpt>
      <trkpt lat="49.51568" lon="1.29688">
        <ele>105</ele>
        <time>2026-09-01T14:23:50.341Z</time>
      </trkpt>
      <trkpt lat="49.51564" lon="1.2968">
        <ele>106</ele>
        <time>2026-09-01T14:23:54.422Z</time>
      </trkpt>
      <trkpt lat="49.51562" lon="1.29672">
        <ele>106</ele>
        <time>2026-09-01T14:23:58.443Z</time>
      </trkpt>
      <trkpt lat="49.51559" lon="1.29664">
        <ele>106</ele>
        <time>2026-09-01T14:24:02.465Z</time>
      </trkpt>
      <trkpt lat="49.51555" lon="1.29656">
        <ele>106</ele>
        <time>2026-09-01T14:24:07.042Z</time>
      </trkpt>
      <trkpt lat="49.51553" lon="1.2965">
        <ele>106</ele>
        <time>2026-09-01T14:24:11.640Z</time>
      </trkpt>
      <trkpt lat="49.5155" lon="1.29644">
        <ele>106</ele>
        <time>2026-09-01T14:24:16.077Z</time>
      </trkpt>
      <trkpt lat="49.51547" lon="1.29637">
        <ele>106</ele>
        <time>2026-09-01T14:24:20.179Z</time>
      </trkpt>
      <trkpt lat="49.51545" lon="1.2963">
        <ele>106</ele>
        <time>2026-09-01T14:24:24.816Z</time>
      </trkpt>
      <trkpt lat="49.51542" lon="1.29624">
        <ele>107</ele>
        <time>2026-09-01T14:24:29.304Z</time>
      </trkpt>
      <trkpt lat="49.51541" lon="1.29616">
        <ele>105</ele>
        <time>2026-09-01T14:24:33.316Z</time>
      </trkpt>
      <trkpt lat="49.51541" lon="1.2961">
        <ele>105</ele>
        <time>2026-09-01T14:24:37.943Z</time>
      </trkpt>
      <trkpt lat="49.51538" lon="1.29603">
        <ele>105</ele>
        <time>2026-09-01T14:24:42.421Z</time>
      </trkpt>
      <trkpt lat="49.51535" lon="1.29597">
        <ele>106</ele>
        <time>2026-09-01T14:24:46.522Z</time>
      </trkpt>
      <trkpt lat="49.51533" lon="1.29589">
        <ele>106</ele>
        <time>2026-09-01T14:24:50.662Z</time>
      </trkpt>
      <trkpt lat="49.51531" lon="1.29581">
        <ele>106</ele>
        <time>2026-09-01T14:24:54.783Z</time>
      </trkpt>
      <trkpt lat="49.5153" lon="1.29574">
        <ele>106</ele>
        <time>2026-09-01T14:24:58.864Z</time>
      </trkpt>
      <trkpt lat="49.51529" lon="1.29567">
        <ele>107</ele>
        <time>2026-09-01T14:25:02.955Z</time>
      </trkpt>
      <trkpt lat="49.51528" lon="1.29559">
        <ele>107</ele>
        <time>2026-09-01T14:25:07.424Z</time>
      </trkpt>
      <trkpt lat="49.51526" lon="1.29552">
        <ele>107</ele>
        <time>2026-09-01T14:25:11.505Z</time>
      </trkpt>
      <trkpt lat="49.51523" lon="1.29545">
        <ele>107</ele>
        <time>2026-09-01T14:25:15.943Z</time>
      </trkpt>
      <trkpt lat="49.51522" lon="1.29538">
        <ele>107</ele>
        <time>2026-09-01T14:25:20.441Z</time>
      </trkpt>
      <trkpt lat="49.5152" lon="1.29531">
        <ele>107</ele>
        <time>2026-09-01T14:25:24.622Z</time>
      </trkpt>
      <trkpt lat="49.51518" lon="1.29524">
        <ele>107</ele>
        <time>2026-09-01T14:25:28.862Z</time>
      </trkpt>
      <trkpt lat="49.51516" lon="1.29518">
        <ele>107</ele>
        <time>2026-09-01T14:25:33.083Z</time>
      </trkpt>
      <trkpt lat="49.51514" lon="1.29512">
        <ele>108</ele>
        <time>2026-09-01T14:25:37.362Z</time>
      </trkpt>
      <trkpt lat="49.51513" lon="1.29505">
        <ele>105</ele>
        <time>2026-09-01T14:25:41.760Z</time>
      </trkpt>
      <trkpt lat="49.51511" lon="1.29497">
        <ele>105</ele>
        <time>2026-09-01T14:25:46.077Z</time>
      </trkpt>
      <trkpt lat="49.51509" lon="1.29491">
        <ele>105</ele>
        <time>2026-09-01T14:25:50.518Z</time>
      </trkpt>
      <trkpt lat="49.51508" lon="1.29486">
        <ele>106</ele>
        <time>2026-09-01T14:25:54.738Z</time>
      </trkpt>
      <trkpt lat="49.51506" lon="1.29487">
        <ele>105</ele>
        <time>2026-09-01T14:26:04.084Z</time>
      </trkpt>
      <trkpt lat="49.51506" lon="1.29487">
        <ele>105</ele>
        <time>2026-09-01T14:26:08.580Z</time>
      </trkpt>
      <trkpt lat="49.51504" lon="1.29483">
        <ele>106</ele>
        <time>2026-09-01T14:26:13.085Z</time>
      </trkpt>
      <trkpt lat="49.515" lon="1.29478">
        <ele>106</ele>
        <time>2026-09-01T14:26:17.984Z</time>
      </trkpt>
      <trkpt lat="49.51497" lon="1.29473">
        <ele>106</ele>
        <time>2026-09-01T14:26:22.084Z</time>
      </trkpt>
      <trkpt lat="49.51496" lon="1.29467">
        <ele>106</ele>
        <time>2026-09-01T14:26:51.675Z</time>
      </trkpt>
      <trkpt lat="49.51494" lon="1.29465">
        <ele>106</ele>
        <time>2026-09-01T14:26:56.640Z</time>
      </trkpt>
      <trkpt lat="49.51494" lon="1.29463">
        <ele>106</ele>
        <time>2026-09-01T14:27:01.019Z</time>
      </trkpt>
      <trkpt lat="49.51493" lon="1.29452">
        <ele>107</ele>
        <time>2026-09-01T14:27:05.339Z</time>
      </trkpt>
      <trkpt lat="49.51489" lon="1.29444">
        <ele>107</ele>
        <time>2026-09-01T14:27:09.758Z</time>
      </trkpt>
      <trkpt lat="49.51485" lon="1.29438">
        <ele>104</ele>
        <time>2026-09-01T14:27:14.484Z</time>
      </trkpt>
      <trkpt lat="49.51481" lon="1.29435">
        <ele>104</ele>
        <time>2026-09-01T14:27:19.079Z</time>
      </trkpt>
      <trkpt lat="49.51479" lon="1.29428">
        <ele>103</ele>
        <time>2026-09-01T14:27:23.087Z</time>
      </trkpt>
      <trkpt lat="49.51478" lon="1.29421">
        <ele>103</ele>
        <time>2026-09-01T14:27:27.080Z</time>
      </trkpt>
      <trkpt lat="49.51478" lon="1.29412">
        <ele>103</ele>
        <time>2026-09-01T14:27:31.295Z</time>
      </trkpt>
      <trkpt lat="49.51477" lon="1.29405">
        <ele>103</ele>
        <time>2026-09-01T14:27:35.357Z</time>
      </trkpt>
      <trkpt lat="49.51475" lon="1.29397">
        <ele>104</ele>
        <time>2026-09-01T14:27:39.944Z</time>
      </trkpt>
      <trkpt lat="49.51475" lon="1.29388">
        <ele>104</ele>
        <time>2026-09-01T14:27:44.502Z</time>
      </trkpt>
      <trkpt lat="49.51473" lon="1.29381">
        <ele>104</ele>
        <time>2026-09-01T14:27:49.096Z</time>
      </trkpt>
      <trkpt lat="49.51471" lon="1.29373">
        <ele>104</ele>
        <time>2026-09-01T14:27:53.717Z</time>
      </trkpt>
      <trkpt lat="49.51468" lon="1.29366">
        <ele>104</ele>
        <time>2026-09-01T14:27:58.245Z</time>
      </trkpt>
      <trkpt lat="49.51467" lon="1.29357">
        <ele>104</ele>
        <time>2026-09-01T14:28:02.802Z</time>
      </trkpt>
      <trkpt lat="49.51465" lon="1.29351">
        <ele>104</ele>
        <time>2026-09-01T14:28:07.440Z</time>
      </trkpt>
      <trkpt lat="49.51464" lon="1.29344">
        <ele>104</ele>
        <time>2026-09-01T14:28:11.461Z</time>
      </trkpt>
      <trkpt lat="49.51463" lon="1.29337">
        <ele>104</ele>
        <time>2026-09-01T14:28:15.761Z</time>
      </trkpt>
      <trkpt lat="49.51461" lon="1.29331">
        <ele>104</ele>
        <time>2026-09-01T14:28:20.060Z</time>
      </trkpt>
      <trkpt lat="49.51461" lon="1.29325">
        <ele>104</ele>
        <time>2026-09-01T14:28:24.062Z</time>
      </trkpt>
      <trkpt lat="49.51459" lon="1.29315">
        <ele>103</ele>
        <time>2026-09-01T14:28:28.699Z</time>
      </trkpt>
      <trkpt lat="49.51457" lon="1.29309">
        <ele>102</ele>
        <time>2026-09-01T14:28:32.780Z</time>
      </trkpt>
      <trkpt lat="49.51455" lon="1.293">
        <ele>102</ele>
        <time>2026-09-01T14:28:37.238Z</time>
      </trkpt>
      <trkpt lat="49.51453" lon="1.29292">
        <ele>102</ele>
        <time>2026-09-01T14:28:41.339Z</time>
      </trkpt>
      <trkpt lat="49.51451" lon="1.29285">
        <ele>102</ele>
        <time>2026-09-01T14:28:45.361Z</time>
      </trkpt>
      <trkpt lat="49.51449" lon="1.29276">
        <ele>102</ele>
        <time>2026-09-01T14:28:49.879Z</time>
      </trkpt>
      <trkpt lat="49.51447" lon="1.29268">
        <ele>102</ele>
        <time>2026-09-01T14:28:54Z</time>
      </trkpt>
      <trkpt lat="49.51445" lon="1.29259">
        <ele>103</ele>
        <time>2026-09-01T14:28:57.982Z</time>
      </trkpt>
      <trkpt lat="49.51443" lon="1.29251">
        <ele>103</ele>
        <time>2026-09-01T14:29:02.083Z</time>
      </trkpt>
      <trkpt lat="49.51441" lon="1.29247">
        <ele>103</ele>
        <time>2026-09-01T14:29:06.620Z</time>
      </trkpt>
      <trkpt lat="49.5144" lon="1.2924">
        <ele>103</ele>
        <time>2026-09-01T14:29:10.662Z</time>
      </trkpt>
      <trkpt lat="49.51438" lon="1.29232">
        <ele>103</ele>
        <time>2026-09-01T14:29:14.683Z</time>
      </trkpt>
      <trkpt lat="49.51436" lon="1.29224">
        <ele>103</ele>
        <time>2026-09-01T14:29:19.080Z</time>
      </trkpt>
      <trkpt lat="49.51434" lon="1.29217">
        <ele>103</ele>
        <time>2026-09-01T14:29:23.382Z</time>
      </trkpt>
      <trkpt lat="49.51433" lon="1.2921">
        <ele>103</ele>
        <time>2026-09-01T14:29:27.562Z</time>
      </trkpt>
      <trkpt lat="49.51431" lon="1.29203">
        <ele>103</ele>
        <time>2026-09-01T14:29:31.583Z</time>
      </trkpt>
      <trkpt lat="49.51429" lon="1.29196">
        <ele>106</ele>
        <time>2026-09-01T14:29:35.645Z</time>
      </trkpt>
      <trkpt lat="49.51426" lon="1.29191">
        <ele>106</ele>
        <time>2026-09-01T14:29:40.085Z</time>
      </trkpt>
      <trkpt lat="49.51423" lon="1.29186">
        <ele>106</ele>
        <time>2026-09-01T14:29:44.164Z</time>
      </trkpt>
      <trkpt lat="49.51419" lon="1.29179">
        <ele>105</ele>
        <time>2026-09-01T14:29:48.275Z</time>
      </trkpt>
      <trkpt lat="49.51416" lon="1.29171">
        <ele>105</ele>
        <time>2026-09-01T14:29:52.942Z</time>
      </trkpt>
      <trkpt lat="49.51412" lon="1.29161">
        <ele>105</ele>
        <time>2026-09-01T14:29:57.480Z</time>
      </trkpt>
      <trkpt lat="49.51408" lon="1.29155">
        <ele>105</ele>
        <time>2026-09-01T14:30:02.077Z</time>
      </trkpt>
      <trkpt lat="49.51404" lon="1.29149">
        <ele>105</ele>
        <time>2026-09-01T14:30:06.744Z</time>
      </trkpt>
      <trkpt lat="49.514" lon="1.29142">
        <ele>109</ele>
        <time>2026-09-01T14:30:11.076Z</time>
      </trkpt>
      <trkpt lat="49.51396" lon="1.29137">
        <ele>109</ele>
        <time>2026-09-01T14:30:15.264Z</time>
      </trkpt>
      <trkpt lat="49.51392" lon="1.29133">
        <ele>109</ele>
        <time>2026-09-01T14:30:19.295Z</time>
      </trkpt>
      <trkpt lat="49.51388" lon="1.29129">
        <ele>109</ele>
        <time>2026-09-01T14:30:23.923Z</time>
      </trkpt>
      <trkpt lat="49.51384" lon="1.29126">
        <ele>109</ele>
        <time>2026-09-01T14:30:27.964Z</time>
      </trkpt>
      <trkpt lat="49.51381" lon="1.29123">
        <ele>109</ele>
        <time>2026-09-01T14:30:32.055Z</time>
      </trkpt>
      <trkpt lat="49.51377" lon="1.29117">
        <ele>109</ele>
        <time>2026-09-01T14:30:36.235Z</time>
      </trkpt>
      <trkpt lat="49.51374" lon="1.29111">
        <ele>115</ele>
        <time>2026-09-01T14:30:40.436Z</time>
      </trkpt>
      <trkpt lat="49.51371" lon="1.29104">
        <ele>115</ele>
        <time>2026-09-01T14:30:45.043Z</time>
      </trkpt>
      <trkpt lat="49.51367" lon="1.29101">
        <ele>115</ele>
        <time>2026-09-01T14:30:49.092Z</time>
      </trkpt>
      <trkpt lat="49.51363" lon="1.29095">
        <ele>112</ele>
        <time>2026-09-01T14:30:53.682Z</time>
      </trkpt>
      <trkpt lat="49.51359" lon="1.29088">
        <ele>112</ele>
        <time>2026-09-01T14:30:57.962Z</time>
      </trkpt>
      <trkpt lat="49.51357" lon="1.29083">
        <ele>112</ele>
        <time>2026-09-01T14:31:01.983Z</time>
      </trkpt>
      <trkpt lat="49.51355" lon="1.29077">
        <ele>112</ele>
        <time>2026-09-01T14:31:06.077Z</time>
      </trkpt>
      <trkpt lat="49.51352" lon="1.29071">
        <ele>112</ele>
        <time>2026-09-01T14:31:10.304Z</time>
      </trkpt>
      <trkpt lat="49.5135" lon="1.29065">
        <ele>109</ele>
        <time>2026-09-01T14:31:14.504Z</time>
      </trkpt>
      <trkpt lat="49.51347" lon="1.29059">
        <ele>112</ele>
        <time>2026-09-01T14:31:18.724Z</time>
      </trkpt>
      <trkpt lat="49.51343" lon="1.29056">
        <ele>112</ele>
        <time>2026-09-01T14:31:22.895Z</time>
      </trkpt>
      <trkpt lat="49.51339" lon="1.29053">
        <ele>112</ele>
        <time>2026-09-01T14:31:27.056Z</time>
      </trkpt>
      <trkpt lat="49.51334" lon="1.29048">
        <ele>112</ele>
        <time>2026-09-01T14:31:31.802Z</time>
      </trkpt>
      <trkpt lat="49.51332" lon="1.29041">
        <ele>109</ele>
        <time>2026-09-01T14:31:36.022Z</time>
      </trkpt>
      <trkpt lat="49.5133" lon="1.29033">
        <ele>109</ele>
        <time>2026-09-01T14:31:40.063Z</time>
      </trkpt>
      <trkpt lat="49.51327" lon="1.29026">
        <ele>109</ele>
        <time>2026-09-01T14:31:44.284Z</time>
      </trkpt>
      <trkpt lat="49.51324" lon="1.29018">
        <ele>109</ele>
        <time>2026-09-01T14:31:48.315Z</time>
      </trkpt>
      <trkpt lat="49.51319" lon="1.29011">
        <ele>109</ele>
        <time>2026-09-01T14:31:52.476Z</time>
      </trkpt>
      <trkpt lat="49.51315" lon="1.29006">
        <ele>109</ele>
        <time>2026-09-01T14:31:56.577Z</time>
      </trkpt>
      <trkpt lat="49.51311" lon="1.28996">
        <ele>109</ele>
        <time>2026-09-01T14:32:00.757Z</time>
      </trkpt>
      <trkpt lat="49.51309" lon="1.28986">
        <ele>109</ele>
        <time>2026-09-01T14:32:05.078Z</time>
      </trkpt>
      <trkpt lat="49.51306" lon="1.28979">
        <ele>108</ele>
        <time>2026-09-01T14:32:09.376Z</time>
      </trkpt>
      <trkpt lat="49.51304" lon="1.28974">
        <ele>108</ele>
        <time>2026-09-01T14:32:13.715Z</time>
      </trkpt>
      <trkpt lat="49.51301" lon="1.28971">
        <ele>108</ele>
        <time>2026-09-01T14:32:17.955Z</time>
      </trkpt>
      <trkpt lat="49.51297" lon="1.28968">
        <ele>108</ele>
        <time>2026-09-01T14:32:22.324Z</time>
      </trkpt>
      <trkpt lat="49.51294" lon="1.28965">
        <ele>108</ele>
        <time>2026-09-01T14:32:26.624Z</time>
      </trkpt>
      <trkpt lat="49.51292" lon="1.2896">
        <ele>108</ele>
        <time>2026-09-01T14:32:30.784Z</time>
      </trkpt>
      <trkpt lat="49.5129" lon="1.28956">
        <ele>108</ele>
        <time>2026-09-01T14:32:35.083Z</time>
      </trkpt>
      <trkpt lat="49.51287" lon="1.2895">
        <ele>108</ele>
        <time>2026-09-01T14:32:39.582Z</time>
      </trkpt>
      <trkpt lat="49.51284" lon="1.28943">
        <ele>108</ele>
        <time>2026-09-01T14:32:43.882Z</time>
      </trkpt>
      <trkpt lat="49.51281" lon="1.28937">
        <ele>108</ele>
        <time>2026-09-01T14:32:48.062Z</time>
      </trkpt>
      <trkpt lat="49.51279" lon="1.28931">
        <ele>108</ele>
        <time>2026-09-01T14:32:52.441Z</time>
      </trkpt>
      <trkpt lat="49.51276" lon="1.28924">
        <ele>107</ele>
        <time>2026-09-01T14:32:56.840Z</time>
      </trkpt>
      <trkpt lat="49.51273" lon="1.2892">
        <ele>107</ele>
        <time>2026-09-01T14:33:01.088Z</time>
      </trkpt>
      <trkpt lat="49.5127" lon="1.28916">
        <ele>107</ele>
        <time>2026-09-01T14:33:05.459Z</time>
      </trkpt>
      <trkpt lat="49.51267" lon="1.28911">
        <ele>107</ele>
        <time>2026-09-01T14:33:09.759Z</time>
      </trkpt>
      <trkpt lat="49.51264" lon="1.28903">
        <ele>107</ele>
        <time>2026-09-01T14:33:13.999Z</time>
      </trkpt>
      <trkpt lat="49.51261" lon="1.28894">
        <ele>107</ele>
        <time>2026-09-01T14:33:18.278Z</time>
      </trkpt>
      <trkpt lat="49.51259" lon="1.28886">
        <ele>107</ele>
        <time>2026-09-01T14:33:22.478Z</time>
      </trkpt>
      <trkpt lat="49.51256" lon="1.28879">
        <ele>107</ele>
        <time>2026-09-01T14:33:26.877Z</time>
      </trkpt>
      <trkpt lat="49.51253" lon="1.28873">
        <ele>107</ele>
        <time>2026-09-01T14:33:30.958Z</time>
      </trkpt>
      <trkpt lat="49.5125" lon="1.28869">
        <ele>107</ele>
        <time>2026-09-01T14:33:35.078Z</time>
      </trkpt>
      <trkpt lat="49.51246" lon="1.28864">
        <ele>107</ele>
        <time>2026-09-01T14:33:39.379Z</time>
      </trkpt>
      <trkpt lat="49.51243" lon="1.28858">
        <ele>107</ele>
        <time>2026-09-01T14:33:43.639Z</time>
      </trkpt>
      <trkpt lat="49.5124" lon="1.28849">
        <ele>107</ele>
        <time>2026-09-01T14:33:47.819Z</time>
      </trkpt>
      <trkpt lat="49.51237" lon="1.28843">
        <ele>109</ele>
        <time>2026-09-01T14:33:52.084Z</time>
      </trkpt>
      <trkpt lat="49.51236" lon="1.28835">
        <ele>109</ele>
        <time>2026-09-01T14:33:56.319Z</time>
      </trkpt>
      <trkpt lat="49.51235" lon="1.28827">
        <ele>109</ele>
        <time>2026-09-01T14:34:00.658Z</time>
      </trkpt>
      <trkpt lat="49.51233" lon="1.28821">
        <ele>109</ele>
        <time>2026-09-01T14:34:04.799Z</time>
      </trkpt>
      <trkpt lat="49.51231" lon="1.28816">
        <ele>110</ele>
        <time>2026-09-01T14:34:08.979Z</time>
      </trkpt>
      <trkpt lat="49.51229" lon="1.2881">
        <ele>110</ele>
        <time>2026-09-01T14:34:13.082Z</time>
      </trkpt>
      <trkpt lat="49.51226" lon="1.28803">
        <ele>110</ele>
        <time>2026-09-01T14:34:17.519Z</time>
      </trkpt>
      <trkpt lat="49.51223" lon="1.28797">
        <ele>110</ele>
        <time>2026-09-01T14:34:21.640Z</time>
      </trkpt>
      <trkpt lat="49.51221" lon="1.28792">
        <ele>109</ele>
        <time>2026-09-01T14:34:25.860Z</time>
      </trkpt>
      <trkpt lat="49.51217" lon="1.28786">
        <ele>109</ele>
        <time>2026-09-01T14:34:30.040Z</time>
      </trkpt>
      <trkpt lat="49.51213" lon="1.28781">
        <ele>109</ele>
        <time>2026-09-01T14:34:34.300Z</time>
      </trkpt>
      <trkpt lat="49.51209" lon="1.28776">
        <ele>109</ele>
        <time>2026-09-01T14:34:38.600Z</time>
      </trkpt>
      <trkpt lat="49.51207" lon="1.28769">
        <ele>112</ele>
        <time>2026-09-01T14:34:42.919Z</time>
      </trkpt>
      <trkpt lat="49.51204" lon="1.28762">
        <ele>111</ele>
        <time>2026-09-01T14:34:47.075Z</time>
      </trkpt>
      <trkpt lat="49.512" lon="1.28755">
        <ele>111</ele>
        <time>2026-09-01T14:34:51.439Z</time>
      </trkpt>
      <trkpt lat="49.51197" lon="1.28748">
        <ele>111</ele>
        <time>2026-09-01T14:34:55.739Z</time>
      </trkpt>
      <trkpt lat="49.51195" lon="1.28741">
        <ele>111</ele>
        <time>2026-09-01T14:34:59.998Z</time>
      </trkpt>
      <trkpt lat="49.51191" lon="1.28735">
        <ele>111</ele>
        <time>2026-09-01T14:35:04.081Z</time>
      </trkpt>
      <trkpt lat="49.51188" lon="1.28731">
        <ele>111</ele>
        <time>2026-09-01T14:35:08.359Z</time>
      </trkpt>
      <trkpt lat="49.51184" lon="1.28727">
        <ele>111</ele>
        <time>2026-09-01T14:35:12.758Z</time>
      </trkpt>
      <trkpt lat="49.51181" lon="1.28723">
        <ele>111</ele>
        <time>2026-09-01T14:35:16.978Z</time>
      </trkpt>
      <trkpt lat="49.51177" lon="1.28719">
        <ele>112</ele>
        <time>2026-09-01T14:35:21.078Z</time>
      </trkpt>
      <trkpt lat="49.51173" lon="1.28712">
        <ele>112</ele>
        <time>2026-09-01T14:35:25.339Z</time>
      </trkpt>
      <trkpt lat="49.51169" lon="1.28707">
        <ele>112</ele>
        <time>2026-09-01T14:35:29.579Z</time>
      </trkpt>
      <trkpt lat="49.51166" lon="1.28702">
        <ele>112</ele>
        <time>2026-09-01T14:35:33.839Z</time>
      </trkpt>
      <trkpt lat="49.51163" lon="1.28697">
        <ele>112</ele>
        <time>2026-09-01T14:35:38.079Z</time>
      </trkpt>
      <trkpt lat="49.51159" lon="1.28692">
        <ele>112</ele>
        <time>2026-09-01T14:35:42.438Z</time>
      </trkpt>
      <trkpt lat="49.51155" lon="1.28686">
        <ele>112</ele>
        <time>2026-09-01T14:35:46.817Z</time>
      </trkpt>
      <trkpt lat="49.51153" lon="1.2868">
        <ele>115</ele>
        <time>2026-09-01T14:35:51.078Z</time>
      </trkpt>
      <trkpt lat="49.51149" lon="1.28676">
        <ele>115</ele>
        <time>2026-09-01T14:35:55.397Z</time>
      </trkpt>
      <trkpt lat="49.51146" lon="1.28673">
        <ele>115</ele>
        <time>2026-09-01T14:35:59.815Z</time>
      </trkpt>
      <trkpt lat="49.51143" lon="1.28665">
        <ele>115</ele>
        <time>2026-09-01T14:36:03.877Z</time>
      </trkpt>
      <trkpt lat="49.5114" lon="1.28655">
        <ele>115</ele>
        <time>2026-09-01T14:36:08.077Z</time>
      </trkpt>
      <trkpt lat="49.51138" lon="1.28646">
        <ele>114</ele>
        <time>2026-09-01T14:36:12.317Z</time>
      </trkpt>
      <trkpt lat="49.51136" lon="1.28639">
        <ele>114</ele>
        <time>2026-09-01T14:36:16.537Z</time>
      </trkpt>
      <trkpt lat="49.51134" lon="1.28632">
        <ele>114</ele>
        <time>2026-09-01T14:36:20.678Z</time>
      </trkpt>
      <trkpt lat="49.51134" lon="1.28625">
        <ele>114</ele>
        <time>2026-09-01T14:36:24.957Z</time>
      </trkpt>
      <trkpt lat="49.51134" lon="1.2862">
        <ele>114</ele>
        <time>2026-09-01T14:36:29.080Z</time>
      </trkpt>
      <trkpt lat="49.51133" lon="1.28614">
        <ele>114</ele>
        <time>2026-09-01T14:36:33.378Z</time>
      </trkpt>
      <trkpt lat="49.51133" lon="1.28607">
        <ele>114</ele>
        <time>2026-09-01T14:36:37.638Z</time>
      </trkpt>
      <trkpt lat="49.51134" lon="1.28601">
        <ele>114</ele>
        <time>2026-09-01T14:36:42.017Z</time>
      </trkpt>
      <trkpt lat="49.51134" lon="1.28595">
        <ele>113</ele>
        <time>2026-09-01T14:36:46.257Z</time>
      </trkpt>
      <trkpt lat="49.51132" lon="1.28588">
        <ele>113</ele>
        <time>2026-09-01T14:36:50.616Z</time>
      </trkpt>
      <trkpt lat="49.51131" lon="1.28581">
        <ele>113</ele>
        <time>2026-09-01T14:36:54.896Z</time>
      </trkpt>
      <trkpt lat="49.51131" lon="1.28573">
        <ele>113</ele>
        <time>2026-09-01T14:36:59.084Z</time>
      </trkpt>
      <trkpt lat="49.5113" lon="1.28566">
        <ele>113</ele>
        <time>2026-09-01T14:37:03.038Z</time>
      </trkpt>
      <trkpt lat="49.51127" lon="1.28559">
        <ele>113</ele>
        <time>2026-09-01T14:37:07.278Z</time>
      </trkpt>
      <trkpt lat="49.51125" lon="1.28552">
        <ele>122</ele>
        <time>2026-09-01T14:37:11.796Z</time>
      </trkpt>
      <trkpt lat="49.51124" lon="1.28545">
        <ele>122</ele>
        <time>2026-09-01T14:37:16.056Z</time>
      </trkpt>
      <trkpt lat="49.51124" lon="1.28537">
        <ele>123</ele>
        <time>2026-09-01T14:37:20.455Z</time>
      </trkpt>
      <trkpt lat="49.51123" lon="1.28529">
        <ele>123</ele>
        <time>2026-09-01T14:37:24.904Z</time>
      </trkpt>
      <trkpt lat="49.5112" lon="1.28521">
        <ele>123</ele>
        <time>2026-09-01T14:37:29.096Z</time>
      </trkpt>
      <trkpt lat="49.51116" lon="1.28516">
        <ele>123</ele>
        <time>2026-09-01T14:37:33.523Z</time>
      </trkpt>
      <trkpt lat="49.51112" lon="1.28512">
        <ele>123</ele>
        <time>2026-09-01T14:37:38.081Z</time>
      </trkpt>
      <trkpt lat="49.51109" lon="1.28513">
        <ele>123</ele>
        <time>2026-09-01T14:37:42.085Z</time>
      </trkpt>
      <trkpt lat="49.51108" lon="1.28511">
        <ele>123</ele>
        <time>2026-09-01T14:39:06.843Z</time>
      </trkpt>
      <trkpt lat="49.51106" lon="1.28504">
        <ele>123</ele>
        <time>2026-09-01T14:39:10.944Z</time>
      </trkpt>
      <trkpt lat="49.51103" lon="1.28497">
        <ele>123</ele>
        <time>2026-09-01T14:39:15.082Z</time>
      </trkpt>
      <trkpt lat="49.51101" lon="1.28489">
        <ele>123</ele>
        <time>2026-09-01T14:39:19.156Z</time>
      </trkpt>
      <trkpt lat="49.51097" lon="1.28482">
        <ele>131</ele>
        <time>2026-09-01T14:39:23.356Z</time>
      </trkpt>
      <trkpt lat="49.51094" lon="1.28476">
        <ele>131</ele>
        <time>2026-09-01T14:39:27.497Z</time>
      </trkpt>
      <trkpt lat="49.51093" lon="1.28469">
        <ele>131</ele>
        <time>2026-09-01T14:39:31.538Z</time>
      </trkpt>
      <trkpt lat="49.51092" lon="1.28462">
        <ele>131</ele>
        <time>2026-09-01T14:39:35.699Z</time>
      </trkpt>
      <trkpt lat="49.5109" lon="1.28456">
        <ele>130</ele>
        <time>2026-09-01T14:39:39.939Z</time>
      </trkpt>
      <trkpt lat="49.51085" lon="1.28454">
        <ele>130</ele>
        <time>2026-09-01T14:39:43.921Z</time>
      </trkpt>
      <trkpt lat="49.51084" lon="1.28447">
        <ele>130</ele>
        <time>2026-09-01T14:39:48.022Z</time>
      </trkpt>
      <trkpt lat="49.51085" lon="1.28438">
        <ele>130</ele>
        <time>2026-09-01T14:39:52.361Z</time>
      </trkpt>
      <trkpt lat="49.51085" lon="1.28429">
        <ele>127</ele>
        <time>2026-09-01T14:39:56.542Z</time>
      </trkpt>
      <trkpt lat="49.51085" lon="1.28421">
        <ele>127</ele>
        <time>2026-09-01T14:40:00.643Z</time>
      </trkpt>
      <trkpt lat="49.51083" lon="1.28413">
        <ele>127</ele>
        <time>2026-09-01T14:40:04.982Z</time>
      </trkpt>
      <trkpt lat="49.5108" lon="1.28406">
        <ele>127</ele>
        <time>2026-09-01T14:40:09.222Z</time>
      </trkpt>
      <trkpt lat="49.51078" lon="1.284">
        <ele>123</ele>
        <time>2026-09-01T14:40:13.561Z</time>
      </trkpt>
      <trkpt lat="49.51075" lon="1.28395">
        <ele>123</ele>
        <time>2026-09-01T14:40:17.642Z</time>
      </trkpt>
      <trkpt lat="49.51073" lon="1.28388">
        <ele>123</ele>
        <time>2026-09-01T14:40:21.922Z</time>
      </trkpt>
      <trkpt lat="49.51071" lon="1.28382">
        <ele>123</ele>
        <time>2026-09-01T14:40:26.063Z</time>
      </trkpt>
      <trkpt lat="49.51068" lon="1.28377">
        <ele>130</ele>
        <time>2026-09-01T14:40:30.303Z</time>
      </trkpt>
      <trkpt lat="49.51065" lon="1.2837">
        <ele>124</ele>
        <time>2026-09-01T14:40:34.404Z</time>
      </trkpt>
      <trkpt lat="49.51062" lon="1.28362">
        <ele>124</ele>
        <time>2026-09-01T14:40:38.564Z</time>
      </trkpt>
      <trkpt lat="49.51059" lon="1.28353">
        <ele>124</ele>
        <time>2026-09-01T14:40:42.764Z</time>
      </trkpt>
      <trkpt lat="49.51057" lon="1.28344">
        <ele>120</ele>
        <time>2026-09-01T14:40:47.342Z</time>
      </trkpt>
      <trkpt lat="49.51055" lon="1.28337">
        <ele>120</ele>
        <time>2026-09-01T14:40:51.463Z</time>
      </trkpt>
      <trkpt lat="49.51053" lon="1.28331">
        <ele>120</ele>
        <time>2026-09-01T14:40:55.604Z</time>
      </trkpt>
      <trkpt lat="49.5105" lon="1.28326">
        <ele>120</ele>
        <time>2026-09-01T14:41:00.075Z</time>
      </trkpt>
      <trkpt lat="49.51046" lon="1.28319">
        <ele>120</ele>
        <time>2026-09-01T14:41:04.481Z</time>
      </trkpt>
      <trkpt lat="49.51043" lon="1.28313">
        <ele>120</ele>
        <time>2026-09-01T14:41:08.721Z</time>
      </trkpt>
      <trkpt lat="49.51041" lon="1.28308">
        <ele>130</ele>
        <time>2026-09-01T14:41:13.457Z</time>
      </trkpt>
      <trkpt lat="49.5104" lon="1.28303">
        <ele>130</ele>
        <time>2026-09-01T14:41:17.717Z</time>
      </trkpt>
      <trkpt lat="49.51036" lon="1.28298">
        <ele>130</ele>
        <time>2026-09-01T14:41:22.080Z</time>
      </trkpt>
      <trkpt lat="49.51033" lon="1.2829">
        <ele>129</ele>
        <time>2026-09-01T14:41:26.475Z</time>
      </trkpt>
      <trkpt lat="49.5103" lon="1.28282">
        <ele>129</ele>
        <time>2026-09-01T14:41:31.084Z</time>
      </trkpt>
      <trkpt lat="49.51028" lon="1.28275">
        <ele>129</ele>
        <time>2026-09-01T14:41:35.581Z</time>
      </trkpt>
      <trkpt lat="49.51025" lon="1.28271">
        <ele>129</ele>
        <time>2026-09-01T14:41:39.602Z</time>
      </trkpt>
      <trkpt lat="49.51024" lon="1.28266">
        <ele>129</ele>
        <time>2026-09-01T14:41:43.663Z</time>
      </trkpt>
      <trkpt lat="49.51023" lon="1.28261">
        <ele>129</ele>
        <time>2026-09-01T14:41:47.824Z</time>
      </trkpt>
      <trkpt lat="49.51022" lon="1.28255">
        <ele>129</ele>
        <time>2026-09-01T14:41:52.461Z</time>
      </trkpt>
      <trkpt lat="49.51018" lon="1.28248">
        <ele>129</ele>
        <time>2026-09-01T14:41:56.999Z</time>
      </trkpt>
      <trkpt lat="49.51017" lon="1.28243">
        <ele>129</ele>
        <time>2026-09-01T14:42:01.084Z</time>
      </trkpt>
      <trkpt lat="49.51015" lon="1.28236">
        <ele>129</ele>
        <time>2026-09-01T14:42:05.658Z</time>
      </trkpt>
      <trkpt lat="49.51012" lon="1.28229">
        <ele>133</ele>
        <time>2026-09-01T14:42:10.078Z</time>
      </trkpt>
      <trkpt lat="49.51012" lon="1.28221">
        <ele>133</ele>
        <time>2026-09-01T14:42:14.684Z</time>
      </trkpt>
      <trkpt lat="49.5101" lon="1.28214">
        <ele>133</ele>
        <time>2026-09-01T14:42:19.043Z</time>
      </trkpt>
      <trkpt lat="49.51009" lon="1.28206">
        <ele>132</ele>
        <time>2026-09-01T14:42:23.481Z</time>
      </trkpt>
      <trkpt lat="49.51008" lon="1.28198">
        <ele>132</ele>
        <time>2026-09-01T14:42:27.801Z</time>
      </trkpt>
      <trkpt lat="49.51007" lon="1.28191">
        <ele>132</ele>
        <time>2026-09-01T14:42:32.085Z</time>
      </trkpt>
      <trkpt lat="49.51006" lon="1.28185">
        <ele>132</ele>
        <time>2026-09-01T14:42:36.559Z</time>
      </trkpt>
      <trkpt lat="49.51005" lon="1.28178">
        <ele>132</ele>
        <time>2026-09-01T14:42:41.097Z</time>
      </trkpt>
      <trkpt lat="49.51005" lon="1.28171">
        <ele>132</ele>
        <time>2026-09-01T14:42:45.257Z</time>
      </trkpt>
      <trkpt lat="49.51005" lon="1.28165">
        <ele>132</ele>
        <time>2026-09-01T14:42:49.755Z</time>
      </trkpt>
      <trkpt lat="49.51006" lon="1.28158">
        <ele>132</ele>
        <time>2026-09-01T14:42:54.085Z</time>
      </trkpt>
      <trkpt lat="49.51006" lon="1.28149">
        <ele>133</ele>
        <time>2026-09-01T14:42:58.543Z</time>
      </trkpt>
      <trkpt lat="49.51006" lon="1.28142">
        <ele>133</ele>
        <time>2026-09-01T14:43:02.843Z</time>
      </trkpt>
      <trkpt lat="49.51005" lon="1.28137">
        <ele>133</ele>
        <time>2026-09-01T14:43:07.084Z</time>
      </trkpt>
      <trkpt lat="49.51004" lon="1.28129">
        <ele>133</ele>
        <time>2026-09-01T14:43:11.303Z</time>
      </trkpt>
      <trkpt lat="49.51003" lon="1.28121">
        <ele>133</ele>
        <time>2026-09-01T14:43:15.562Z</time>
      </trkpt>
      <trkpt lat="49.51001" lon="1.28117">
        <ele>133</ele>
        <time>2026-09-01T14:43:20.041Z</time>
      </trkpt>
      <trkpt lat="49.50998" lon="1.28113">
        <ele>133</ele>
        <time>2026-09-01T14:43:24.081Z</time>
      </trkpt>
      <trkpt lat="49.50995" lon="1.28098">
        <ele>133</ele>
        <time>2026-09-01T14:43:33.084Z</time>
      </trkpt>
      <trkpt lat="49.50996" lon="1.28096">
        <ele>134</ele>
        <time>2026-09-01T14:43:38.081Z</time>
      </trkpt>
      <trkpt lat="49.50996" lon="1.28095">
        <ele>134</ele>
        <time>2026-09-01T14:43:42.084Z</time>
      </trkpt>
      <trkpt lat="49.50997" lon="1.28094">
        <ele>134</ele>
        <time>2026-09-01T14:43:47.081Z</time>
      </trkpt>
      <trkpt lat="49.50998" lon="1.28087">
        <ele>134</ele>
        <time>2026-09-01T14:43:51.299Z</time>
      </trkpt>
      <trkpt lat="49.50994" lon="1.28079">
        <ele>134</ele>
        <time>2026-09-01T14:44:24.084Z</time>
      </trkpt>
      <trkpt lat="49.50994" lon="1.28079">
        <ele>134</ele>
        <time>2026-09-01T14:44:29.083Z</time>
      </trkpt>
      <trkpt lat="49.50994" lon="1.28078">
        <ele>134</ele>
        <time>2026-09-01T14:44:33.480Z</time>
      </trkpt>
      <trkpt lat="49.50996" lon="1.28071">
        <ele>134</ele>
        <time>2026-09-01T14:44:37.958Z</time>
      </trkpt>
      <trkpt lat="49.50994" lon="1.28063">
        <ele>133</ele>
        <time>2026-09-01T14:44:42.298Z</time>
      </trkpt>
      <trkpt lat="49.50991" lon="1.28059">
        <ele>133</ele>
        <time>2026-09-01T14:44:46.657Z</time>
      </trkpt>
      <trkpt lat="49.50988" lon="1.28056">
        <ele>133</ele>
        <time>2026-09-01T14:44:51.077Z</time>
      </trkpt>
      <trkpt lat="49.50984" lon="1.28055">
        <ele>133</ele>
        <time>2026-09-01T14:44:55.444Z</time>
      </trkpt>
      <trkpt lat="49.5098" lon="1.28055">
        <ele>133</ele>
        <time>2026-09-01T14:44:59.416Z</time>
      </trkpt>
      <trkpt lat="49.50976" lon="1.28052">
        <ele>133</ele>
        <time>2026-09-01T14:45:03.636Z</time>
      </trkpt>
      <trkpt lat="49.50972" lon="1.28047">
        <ele>133</ele>
        <time>2026-09-01T14:45:08.077Z</time>
      </trkpt>
      <trkpt lat="49.50968" lon="1.28041">
        <ele>132</ele>
        <time>2026-09-01T14:45:12.523Z</time>
      </trkpt>
      <trkpt lat="49.50965" lon="1.28037">
        <ele>132</ele>
        <time>2026-09-01T14:45:16.922Z</time>
      </trkpt>
      <trkpt lat="49.50963" lon="1.28039">
        <ele>132</ele>
        <time>2026-09-01T14:45:21.088Z</time>
      </trkpt>
      <trkpt lat="49.50962" lon="1.28039">
        <ele>132</ele>
        <time>2026-09-01T14:45:25.759Z</time>
      </trkpt>
      <trkpt lat="49.50959" lon="1.28035">
        <ele>132</ele>
        <time>2026-09-01T14:45:29.781Z</time>
      </trkpt>
      <trkpt lat="49.50955" lon="1.28033">
        <ele>135</ele>
        <time>2026-09-01T14:45:33.862Z</time>
      </trkpt>
      <trkpt lat="49.50955" lon="1.28033">
        <ele>135</ele>
        <time>2026-09-01T14:45:38.084Z</time>
      </trkpt>
      <trkpt lat="49.50955" lon="1.28033">
        <ele>135</ele>
        <time>2026-09-01T14:49:36.085Z</time>
      </trkpt>
      <trkpt lat="49.50955" lon="1.28026">
        <ele>135</ele>
        <time>2026-09-01T14:49:41.078Z</time>
      </trkpt>
      <trkpt lat="49.50955" lon="1.2802">
        <ele>135</ele>
        <time>2026-09-01T14:49:45.081Z</time>
      </trkpt>
      <trkpt lat="49.50955" lon="1.28011">
        <ele>133</ele>
        <time>2026-09-01T14:49:49.617Z</time>
      </trkpt>
      <trkpt lat="49.50952" lon="1.28002">
        <ele>133</ele>
        <time>2026-09-01T14:49:54.036Z</time>
      </trkpt>
      <trkpt lat="49.5095" lon="1.27995">
        <ele>133</ele>
        <time>2026-09-01T14:49:58.623Z</time>
      </trkpt>
      <trkpt lat="49.50946" lon="1.2799">
        <ele>133</ele>
        <time>2026-09-01T14:50:02.962Z</time>
      </trkpt>
      <trkpt lat="49.50944" lon="1.27984">
        <ele>133</ele>
        <time>2026-09-01T14:50:07.302Z</time>
      </trkpt>
      <trkpt lat="49.50942" lon="1.27977">
        <ele>133</ele>
        <time>2026-09-01T14:50:11.482Z</time>
      </trkpt>
      <trkpt lat="49.50941" lon="1.27971">
        <ele>133</ele>
        <time>2026-09-01T14:50:15.801Z</time>
      </trkpt>
      <trkpt lat="49.50938" lon="1.27964">
        <ele>133</ele>
        <time>2026-09-01T14:50:19.982Z</time>
      </trkpt>
      <trkpt lat="49.50936" lon="1.27955">
        <ele>133</ele>
        <time>2026-09-01T14:50:24.078Z</time>
      </trkpt>
      <trkpt lat="49.50934" lon="1.27947">
        <ele>133</ele>
        <time>2026-09-01T14:50:28.501Z</time>
      </trkpt>
      <trkpt lat="49.50932" lon="1.27938">
        <ele>133</ele>
        <time>2026-09-01T14:50:32.801Z</time>
      </trkpt>
      <trkpt lat="49.5093" lon="1.27931">
        <ele>136</ele>
        <time>2026-09-01T14:50:36.902Z</time>
      </trkpt>
      <trkpt lat="49.50928" lon="1.27922">
        <ele>136</ele>
        <time>2026-09-01T14:50:41.079Z</time>
      </trkpt>
      <trkpt lat="49.50926" lon="1.27915">
        <ele>136</ele>
        <time>2026-09-01T14:50:45.183Z</time>
      </trkpt>
      <trkpt lat="49.50925" lon="1.27908">
        <ele>136</ele>
        <time>2026-09-01T14:50:49.383Z</time>
      </trkpt>
      <trkpt lat="49.50922" lon="1.27899">
        <ele>137</ele>
        <time>2026-09-01T14:50:54.076Z</time>
      </trkpt>
      <trkpt lat="49.5092" lon="1.27892">
        <ele>137</ele>
        <time>2026-09-01T14:50:58.340Z</time>
      </trkpt>
      <trkpt lat="49.50918" lon="1.27885">
        <ele>137</ele>
        <time>2026-09-01T14:51:02.580Z</time>
      </trkpt>
      <trkpt lat="49.50915" lon="1.2788">
        <ele>137</ele>
        <time>2026-09-01T14:51:06.820Z</time>
      </trkpt>
      <trkpt lat="49.50911" lon="1.27877">
        <ele>137</ele>
        <time>2026-09-01T14:51:11.079Z</time>
      </trkpt>
      <trkpt lat="49.50907" lon="1.27872">
        <ele>137</ele>
        <time>2026-09-01T14:51:15.399Z</time>
      </trkpt>
      <trkpt lat="49.50904" lon="1.27865">
        <ele>137</ele>
        <time>2026-09-01T14:51:19.778Z</time>
      </trkpt>
      <trkpt lat="49.50902" lon="1.27856">
        <ele>141</ele>
        <time>2026-09-01T14:51:23.958Z</time>
      </trkpt>
      <trkpt lat="49.50899" lon="1.2785">
        <ele>141</ele>
        <time>2026-09-01T14:51:28.397Z</time>
      </trkpt>
      <trkpt lat="49.50897" lon="1.27845">
        <ele>141</ele>
        <time>2026-09-01T14:51:32.637Z</time>
      </trkpt>
      <trkpt lat="49.50894" lon="1.27842">
        <ele>141</ele>
        <time>2026-09-01T14:51:37.078Z</time>
      </trkpt>
      <trkpt lat="49.50891" lon="1.27836">
        <ele>141</ele>
        <time>2026-09-01T14:51:41.544Z</time>
      </trkpt>
      <trkpt lat="49.50888" lon="1.2783">
        <ele>141</ele>
        <time>2026-09-01T14:51:46.073Z</time>
      </trkpt>
      <trkpt lat="49.50886" lon="1.27825">
        <ele>141</ele>
        <time>2026-09-01T14:51:50.083Z</time>
      </trkpt>
      <trkpt lat="49.50882" lon="1.2782">
        <ele>141</ele>
        <time>2026-09-01T14:51:54.601Z</time>
      </trkpt>
      <trkpt lat="49.50879" lon="1.27813">
        <ele>142</ele>
        <time>2026-09-01T14:51:59.075Z</time>
      </trkpt>
      <trkpt lat="49.50876" lon="1.27809">
        <ele>142</ele>
        <time>2026-09-01T14:52:03.836Z</time>
      </trkpt>
      <trkpt lat="49.50873" lon="1.27804">
        <ele>148</ele>
        <time>2026-09-01T14:52:07.877Z</time>
      </trkpt>
      <trkpt lat="49.5087" lon="1.278">
        <ele>148</ele>
        <time>2026-09-01T14:52:12.623Z</time>
      </trkpt>
      <trkpt lat="49.50865" lon="1.27799">
        <ele>148</ele>
        <time>2026-09-01T14:52:16.665Z</time>
      </trkpt>
      <trkpt lat="49.50861" lon="1.27799">
        <ele>148</ele>
        <time>2026-09-01T14:52:20.716Z</time>
      </trkpt>
      <trkpt lat="49.50857" lon="1.27797">
        <ele>148</ele>
        <time>2026-09-01T14:52:25.363Z</time>
      </trkpt>
      <trkpt lat="49.50854" lon="1.27793">
        <ele>148</ele>
        <time>2026-09-01T14:52:29.563Z</time>
      </trkpt>
      <trkpt lat="49.50851" lon="1.2779">
        <ele>149</ele>
        <time>2026-09-01T14:52:33.704Z</time>
      </trkpt>
      <trkpt lat="49.50848" lon="1.27788">
        <ele>149</ele>
        <time>2026-09-01T14:52:37.825Z</time>
      </trkpt>
      <trkpt lat="49.50845" lon="1.27786">
        <ele>151</ele>
        <time>2026-09-01T14:52:41.876Z</time>
      </trkpt>
      <trkpt lat="49.50841" lon="1.27785">
        <ele>151</ele>
        <time>2026-09-01T14:52:46.016Z</time>
      </trkpt>
      <trkpt lat="49.50838" lon="1.27785">
        <ele>151</ele>
        <time>2026-09-01T14:52:50.058Z</time>
      </trkpt>
      <trkpt lat="49.50835" lon="1.27785">
        <ele>151</ele>
        <time>2026-09-01T14:52:54.764Z</time>
      </trkpt>
      <trkpt lat="49.50831" lon="1.27784">
        <ele>151</ele>
        <time>2026-09-01T14:52:59.084Z</time>
      </trkpt>
      <trkpt lat="49.50826" lon="1.27783">
        <ele>151</ele>
        <time>2026-09-01T14:53:03.880Z</time>
      </trkpt>
      <trkpt lat="49.50821" lon="1.27782">
        <ele>151</ele>
        <time>2026-09-01T14:53:08.199Z</time>
      </trkpt>
      <trkpt lat="49.50817" lon="1.27781">
        <ele>153</ele>
        <time>2026-09-01T14:53:12.737Z</time>
      </trkpt>
      <trkpt lat="49.50812" lon="1.2778">
        <ele>153</ele>
        <time>2026-09-01T14:53:17.076Z</time>
      </trkpt>
      <trkpt lat="49.50806" lon="1.27779">
        <ele>153</ele>
        <time>2026-09-01T14:53:21.644Z</time>
      </trkpt>
      <trkpt lat="49.50799" lon="1.27781">
        <ele>153</ele>
        <time>2026-09-01T14:53:30.070Z</time>
      </trkpt>
      <trkpt lat="49.508" lon="1.27783">
        <ele>153</ele>
        <time>2026-09-01T14:53:34.071Z</time>
      </trkpt>
      <trkpt lat="49.508" lon="1.27784">
        <ele>153</ele>
        <time>2026-09-01T14:53:38.882Z</time>
      </trkpt>
      <trkpt lat="49.50796" lon="1.27788">
        <ele>153</ele>
        <time>2026-09-01T14:53:43.079Z</time>
      </trkpt>
      <trkpt lat="49.50797" lon="1.27793">
        <ele>152</ele>
        <time>2026-09-01T14:53:48.072Z</time>
      </trkpt>
      <trkpt lat="49.50797" lon="1.27793">
        <ele>152</ele>
        <time>2026-09-01T14:54:44.077Z</time>
      </trkpt>
      <trkpt lat="49.50796" lon="1.27797">
        <ele>152</ele>
        <time>2026-09-01T14:54:48.079Z</time>
      </trkpt>
      <trkpt lat="49.50796" lon="1.27807">
        <ele>152</ele>
        <time>2026-09-01T14:54:53.080Z</time>
      </trkpt>
      <trkpt lat="49.50795" lon="1.27812">
        <ele>152</ele>
        <time>2026-09-01T14:54:57.085Z</time>
      </trkpt>
      <trkpt lat="49.50794" lon="1.27821">
        <ele>153</ele>
        <time>2026-09-01T14:55:02.003Z</time>
      </trkpt>
      <trkpt lat="49.50793" lon="1.27828">
        <ele>153</ele>
        <time>2026-09-01T14:55:06.044Z</time>
      </trkpt>
      <trkpt lat="49.50792" lon="1.27835">
        <ele>153</ele>
        <time>2026-09-01T14:55:10.081Z</time>
      </trkpt>
      <trkpt lat="49.50791" lon="1.27844">
        <ele>154</ele>
        <time>2026-09-01T14:55:14.802Z</time>
      </trkpt>
      <trkpt lat="49.50791" lon="1.27852">
        <ele>154</ele>
        <time>2026-09-01T14:55:19.340Z</time>
      </trkpt>
      <trkpt lat="49.5079" lon="1.2786">
        <ele>154</ele>
        <time>2026-09-01T14:55:23.838Z</time>
      </trkpt>
      <trkpt lat="49.5079" lon="1.27869">
        <ele>154</ele>
        <time>2026-09-01T14:55:28.297Z</time>
      </trkpt>
      <trkpt lat="49.50787" lon="1.27876">
        <ele>154</ele>
        <time>2026-09-01T14:55:32.298Z</time>
      </trkpt>
      <trkpt lat="49.50786" lon="1.27884">
        <ele>154</ele>
        <time>2026-09-01T14:55:36.340Z</time>
      </trkpt>
      <trkpt lat="49.50784" lon="1.27893">
        <ele>154</ele>
        <time>2026-09-01T14:55:40.977Z</time>
      </trkpt>
      <trkpt lat="49.50782" lon="1.27901">
        <ele>154</ele>
        <time>2026-09-01T14:55:45.545Z</time>
      </trkpt>
      <trkpt lat="49.50779" lon="1.27907">
        <ele>154</ele>
        <time>2026-09-01T14:55:50.080Z</time>
      </trkpt>
      <trkpt lat="49.50773" lon="1.27913">
        <ele>154</ele>
        <time>2026-09-01T14:55:54.720Z</time>
      </trkpt>
      <trkpt lat="49.50769" lon="1.27917">
        <ele>154</ele>
        <time>2026-09-01T14:55:58.741Z</time>
      </trkpt>
      <trkpt lat="49.50764" lon="1.27919">
        <ele>154</ele>
        <time>2026-09-01T14:56:02.862Z</time>
      </trkpt>
      <trkpt lat="49.50757" lon="1.2792">
        <ele>154</ele>
        <time>2026-09-01T14:56:07.539Z</time>
      </trkpt>
      <trkpt lat="49.50751" lon="1.2792">
        <ele>154</ele>
        <time>2026-09-01T14:56:12.078Z</time>
      </trkpt>
      <trkpt lat="49.50744" lon="1.27922">
        <ele>154</ele>
        <time>2026-09-01T14:56:16.744Z</time>
      </trkpt>
      <trkpt lat="49.50739" lon="1.27925">
        <ele>154</ele>
        <time>2026-09-01T14:56:21.075Z</time>
      </trkpt>
      <trkpt lat="49.50735" lon="1.27928">
        <ele>154</ele>
        <time>2026-09-01T14:56:25.244Z</time>
      </trkpt>
      <trkpt lat="49.5073" lon="1.27931">
        <ele>154</ele>
        <time>2026-09-01T14:56:29.295Z</time>
      </trkpt>
      <trkpt lat="49.50724" lon="1.27933">
        <ele>154</ele>
        <time>2026-09-01T14:56:33.882Z</time>
      </trkpt>
      <trkpt lat="49.50719" lon="1.27935">
        <ele>154</ele>
        <time>2026-09-01T14:56:38.539Z</time>
      </trkpt>
      <trkpt lat="49.50714" lon="1.27937">
        <ele>154</ele>
        <time>2026-09-01T14:56:43.083Z</time>
      </trkpt>
      <trkpt lat="49.50708" lon="1.27939">
        <ele>154</ele>
        <time>2026-09-01T14:56:47.804Z</time>
      </trkpt>
      <trkpt lat="49.50703" lon="1.27942">
        <ele>154</ele>
        <time>2026-09-01T14:56:52.322Z</time>
      </trkpt>
      <trkpt lat="49.50697" lon="1.27944">
        <ele>154</ele>
        <time>2026-09-01T14:56:56.880Z</time>
      </trkpt>
      <trkpt lat="49.50693" lon="1.27947">
        <ele>154</ele>
        <time>2026-09-01T14:57:01.417Z</time>
      </trkpt>
      <trkpt lat="49.50687" lon="1.2795">
        <ele>154</ele>
        <time>2026-09-01T14:57:06.065Z</time>
      </trkpt>
      <trkpt lat="49.50683" lon="1.27953">
        <ele>154</ele>
        <time>2026-09-01T14:57:10.056Z</time>
      </trkpt>
      <trkpt lat="49.50679" lon="1.27956">
        <ele>154</ele>
        <time>2026-09-01T14:57:14.080Z</time>
      </trkpt>
      <trkpt lat="49.50673" lon="1.2796">
        <ele>154</ele>
        <time>2026-09-01T14:57:18.199Z</time>
      </trkpt>
      <trkpt lat="49.50669" lon="1.27962">
        <ele>154</ele>
        <time>2026-09-01T14:57:22.339Z</time>
      </trkpt>
      <trkpt lat="49.50665" lon="1.27963">
        <ele>154</ele>
        <time>2026-09-01T14:57:26.440Z</time>
      </trkpt>
      <trkpt lat="49.50661" lon="1.27965">
        <ele>154</ele>
        <time>2026-09-01T14:57:30.641Z</time>
      </trkpt>
      <trkpt lat="49.50656" lon="1.27967">
        <ele>154</ele>
        <time>2026-09-01T14:57:35.079Z</time>
      </trkpt>
      <trkpt lat="49.50652" lon="1.27971">
        <ele>152</ele>
        <time>2026-09-01T14:57:39.319Z</time>
      </trkpt>
      <trkpt lat="49.50647" lon="1.27977">
        <ele>152</ele>
        <time>2026-09-01T14:57:43.360Z</time>
      </trkpt>
      <trkpt lat="49.50644" lon="1.27986">
        <ele>152</ele>
        <time>2026-09-01T14:57:47.878Z</time>
      </trkpt>
      <trkpt lat="49.50644" lon="1.27995">
        <ele>152</ele>
        <time>2026-09-01T14:57:52.476Z</time>
      </trkpt>
      <trkpt lat="49.50643" lon="1.28001">
        <ele>152</ele>
        <time>2026-09-01T14:57:56.537Z</time>
      </trkpt>
      <trkpt lat="49.50641" lon="1.28008">
        <ele>152</ele>
        <time>2026-09-01T14:58:00.698Z</time>
      </trkpt>
      <trkpt lat="49.50639" lon="1.28015">
        <ele>152</ele>
        <time>2026-09-01T14:58:05.315Z</time>
      </trkpt>
      <trkpt lat="49.50635" lon="1.28023">
        <ele>152</ele>
        <time>2026-09-01T14:58:09.962Z</time>
      </trkpt>
      <trkpt lat="49.50632" lon="1.28029">
        <ele>152</ele>
        <time>2026-09-01T14:58:14.540Z</time>
      </trkpt>
      <trkpt lat="49.50628" lon="1.28035">
        <ele>152</ele>
        <time>2026-09-01T14:58:19.083Z</time>
      </trkpt>
      <trkpt lat="49.50624" lon="1.28038">
        <ele>152</ele>
        <time>2026-09-01T14:58:23.119Z</time>
      </trkpt>
      <trkpt lat="49.50619" lon="1.28041">
        <ele>152</ele>
        <time>2026-09-01T14:58:27.737Z</time>
      </trkpt>
      <trkpt lat="49.50614" lon="1.28043">
        <ele>152</ele>
        <time>2026-09-01T14:58:31.818Z</time>
      </trkpt>
      <trkpt lat="49.50608" lon="1.28045">
        <ele>152</ele>
        <time>2026-09-01T14:58:36.415Z</time>
      </trkpt>
      <trkpt lat="49.50601" lon="1.28045">
        <ele>152</ele>
        <time>2026-09-01T14:58:40.983Z</time>
      </trkpt>
      <trkpt lat="49.50596" lon="1.28045">
        <ele>152</ele>
        <time>2026-09-01T14:58:45.521Z</time>
      </trkpt>
      <trkpt lat="49.50591" lon="1.28045">
        <ele>152</ele>
        <time>2026-09-01T14:58:50.079Z</time>
      </trkpt>
      <trkpt lat="49.50585" lon="1.28044">
        <ele>152</ele>
        <time>2026-09-01T14:58:54.656Z</time>
      </trkpt>
      <trkpt lat="49.5058" lon="1.28044">
        <ele>152</ele>
        <time>2026-09-01T14:58:59.075Z</time>
      </trkpt>
      <trkpt lat="49.50575" lon="1.28042">
        <ele>152</ele>
        <time>2026-09-01T14:59:03.236Z</time>
      </trkpt>
      <trkpt lat="49.5057" lon="1.28042">
        <ele>152</ele>
        <time>2026-09-01T14:59:07.277Z</time>
      </trkpt>
      <trkpt lat="49.50564" lon="1.28043">
        <ele>152</ele>
        <time>2026-09-01T14:59:11.885Z</time>
      </trkpt>
      <trkpt lat="49.50558" lon="1.28043">
        <ele>152</ele>
        <time>2026-09-01T14:59:16.462Z</time>
      </trkpt>
      <trkpt lat="49.50553" lon="1.28045">
        <ele>152</ele>
        <time>2026-09-01T14:59:21.060Z</time>
      </trkpt>
      <trkpt lat="49.50548" lon="1.28047">
        <ele>152</ele>
        <time>2026-09-01T14:59:25.717Z</time>
      </trkpt>
      <trkpt lat="49.50543" lon="1.28048">
        <ele>152</ele>
        <time>2026-09-01T14:59:30.245Z</time>
      </trkpt>
      <trkpt lat="49.50537" lon="1.2805">
        <ele>152</ele>
        <time>2026-09-01T14:59:34.783Z</time>
      </trkpt>
      <trkpt lat="49.50532" lon="1.28051">
        <ele>152</ele>
        <time>2026-09-01T14:59:39.360Z</time>
      </trkpt>
      <trkpt lat="49.50527" lon="1.28054">
        <ele>152</ele>
        <time>2026-09-01T14:59:43.958Z</time>
      </trkpt>
      <trkpt lat="49.50523" lon="1.28056">
        <ele>152</ele>
        <time>2026-09-01T14:59:48.080Z</time>
      </trkpt>
      <trkpt lat="49.50519" lon="1.28058">
        <ele>152</ele>
        <time>2026-09-01T14:59:52.418Z</time>
      </trkpt>
      <trkpt lat="49.50516" lon="1.28065">
        <ele>152</ele>
        <time>2026-09-01T14:59:57.035Z</time>
      </trkpt>
      <trkpt lat="49.50514" lon="1.28073">
        <ele>151</ele>
        <time>2026-09-01T15:00:01.424Z</time>
      </trkpt>
      <trkpt lat="49.50515" lon="1.28082">
        <ele>152</ele>
        <time>2026-09-01T15:00:05.883Z</time>
      </trkpt>
      <trkpt lat="49.50519" lon="1.28089">
        <ele>152</ele>
        <time>2026-09-01T15:00:10.440Z</time>
      </trkpt>
      <trkpt lat="49.50523" lon="1.28095">
        <ele>152</ele>
        <time>2026-09-01T15:00:15.038Z</time>
      </trkpt>
      <trkpt lat="49.50526" lon="1.28101">
        <ele>152</ele>
        <time>2026-09-01T15:00:19.635Z</time>
      </trkpt>
      <trkpt lat="49.50529" lon="1.28107">
        <ele>152</ele>
        <time>2026-09-01T15:00:24.078Z</time>
      </trkpt>
      <trkpt lat="49.50532" lon="1.28115">
        <ele>152</ele>
        <time>2026-09-01T15:00:28.284Z</time>
      </trkpt>
      <trkpt lat="49.50535" lon="1.28121">
        <ele>152</ele>
        <time>2026-09-01T15:00:32.743Z</time>
      </trkpt>
      <trkpt lat="49.50535" lon="1.28127">
        <ele>152</ele>
        <time>2026-09-01T15:00:37.074Z</time>
      </trkpt>
      <trkpt lat="49.50533" lon="1.28129">
        <ele>152</ele>
        <time>2026-09-01T15:00:42.073Z</time>
      </trkpt>
      <trkpt lat="49.50531" lon="1.2813">
        <ele>152</ele>
        <time>2026-09-01T15:00:46.078Z</time>
      </trkpt>
      <trkpt lat="49.50531" lon="1.28131">
        <ele>152</ele>
        <time>2026-09-01T15:00:50.358Z</time>
      </trkpt>
      <trkpt lat="49.50533" lon="1.28138">
        <ele>152</ele>
        <time>2026-09-01T15:00:54.439Z</time>
      </trkpt>
      <trkpt lat="49.50535" lon="1.28147">
        <ele>152</ele>
        <time>2026-09-01T15:00:58.580Z</time>
      </trkpt>
      <trkpt lat="49.50538" lon="1.28156">
        <ele>152</ele>
        <time>2026-09-01T15:01:03.079Z</time>
      </trkpt>
      <trkpt lat="49.5054" lon="1.28163">
        <ele>152</ele>
        <time>2026-09-01T15:01:07.239Z</time>
      </trkpt>
      <trkpt lat="49.50542" lon="1.28171">
        <ele>153</ele>
        <time>2026-09-01T15:01:11.339Z</time>
      </trkpt>
      <trkpt lat="49.50544" lon="1.2818">
        <ele>153</ele>
        <time>2026-09-01T15:01:15.858Z</time>
      </trkpt>
      <trkpt lat="49.50546" lon="1.28188">
        <ele>153</ele>
        <time>2026-09-01T15:01:20.505Z</time>
      </trkpt>
      <trkpt lat="49.50548" lon="1.28196">
        <ele>153</ele>
        <time>2026-09-01T15:01:25.075Z</time>
      </trkpt>
      <trkpt lat="49.5055" lon="1.28204">
        <ele>153</ele>
        <time>2026-09-01T15:01:29.819Z</time>
      </trkpt>
      <trkpt lat="49.50552" lon="1.28209">
        <ele>153</ele>
        <time>2026-09-01T15:01:34.456Z</time>
      </trkpt>
      <trkpt lat="49.50554" lon="1.28216">
        <ele>153</ele>
        <time>2026-09-01T15:01:38.478Z</time>
      </trkpt>
      <trkpt lat="49.50555" lon="1.28224">
        <ele>153</ele>
        <time>2026-09-01T15:01:42.598Z</time>
      </trkpt>
      <trkpt lat="49.50556" lon="1.28231">
        <ele>153</ele>
        <time>2026-09-01T15:01:46.620Z</time>
      </trkpt>
      <trkpt lat="49.50558" lon="1.28237">
        <ele>152</ele>
        <time>2026-09-01T15:01:50.860Z</time>
      </trkpt>
      <trkpt lat="49.50561" lon="1.28242">
        <ele>152</ele>
        <time>2026-09-01T15:01:55.517Z</time>
      </trkpt>
      <trkpt lat="49.50564" lon="1.28248">
        <ele>152</ele>
        <time>2026-09-01T15:02:00.068Z</time>
      </trkpt>
      <trkpt lat="49.50565" lon="1.28257">
        <ele>152</ele>
        <time>2026-09-01T15:02:04.682Z</time>
      </trkpt>
      <trkpt lat="49.50569" lon="1.28264">
        <ele>152</ele>
        <time>2026-09-01T15:02:09.070Z</time>
      </trkpt>
      <trkpt lat="49.50573" lon="1.28269">
        <ele>153</ele>
        <time>2026-09-01T15:02:13.063Z</time>
      </trkpt>
      <trkpt lat="49.50577" lon="1.28272">
        <ele>153</ele>
        <time>2026-09-01T15:02:17.073Z</time>
      </trkpt>
      <trkpt lat="49.50581" lon="1.28274">
        <ele>153</ele>
        <time>2026-09-01T15:02:21.086Z</time>
      </trkpt>
      <trkpt lat="49.50585" lon="1.28278">
        <ele>153</ele>
        <time>2026-09-01T15:02:25.455Z</time>
      </trkpt>
      <trkpt lat="49.5059" lon="1.28282">
        <ele>153</ele>
        <time>2026-09-01T15:02:29.497Z</time>
      </trkpt>
      <trkpt lat="49.50594" lon="1.28287">
        <ele>153</ele>
        <time>2026-09-01T15:02:34.079Z</time>
      </trkpt>
      <trkpt lat="49.50599" lon="1.28291">
        <ele>153</ele>
        <time>2026-09-01T15:02:38.215Z</time>
      </trkpt>
      <trkpt lat="49.50604" lon="1.28293">
        <ele>153</ele>
        <time>2026-09-01T15:02:42.376Z</time>
      </trkpt>
      <trkpt lat="49.50608" lon="1.28297">
        <ele>153</ele>
        <time>2026-09-01T15:02:46.536Z</time>
      </trkpt>
      <trkpt lat="49.50612" lon="1.283">
        <ele>153</ele>
        <time>2026-09-01T15:02:50.558Z</time>
      </trkpt>
      <trkpt lat="49.50615" lon="1.28304">
        <ele>153</ele>
        <time>2026-09-01T15:02:54.560Z</time>
      </trkpt>
      <trkpt lat="49.50619" lon="1.28308">
        <ele>153</ele>
        <time>2026-09-01T15:02:58.661Z</time>
      </trkpt>
      <trkpt lat="49.50623" lon="1.28314">
        <ele>153</ele>
        <time>2026-09-01T15:03:03.278Z</time>
      </trkpt>
      <trkpt lat="49.50625" lon="1.28323">
        <ele>152</ele>
        <time>2026-09-01T15:03:07.339Z</time>
      </trkpt>
      <trkpt lat="49.50625" lon="1.28333">
        <ele>153</ele>
        <time>2026-09-01T15:03:11.818Z</time>
      </trkpt>
      <trkpt lat="49.50625" lon="1.28341">
        <ele>153</ele>
        <time>2026-09-01T15:03:15.978Z</time>
      </trkpt>
      <trkpt lat="49.50625" lon="1.28349">
        <ele>153</ele>
        <time>2026-09-01T15:03:20.496Z</time>
      </trkpt>
      <trkpt lat="49.50626" lon="1.28357">
        <ele>153</ele>
        <time>2026-09-01T15:03:25.076Z</time>
      </trkpt>
      <trkpt lat="49.50627" lon="1.28363">
        <ele>153</ele>
        <time>2026-09-01T15:03:29.081Z</time>
      </trkpt>
      <trkpt lat="49.50628" lon="1.2837">
        <ele>153</ele>
        <time>2026-09-01T15:03:33.316Z</time>
      </trkpt>
      <trkpt lat="49.50629" lon="1.28377">
        <ele>152</ele>
        <time>2026-09-01T15:03:37.397Z</time>
      </trkpt>
      <trkpt lat="49.50628" lon="1.28384">
        <ele>152</ele>
        <time>2026-09-01T15:03:41.478Z</time>
      </trkpt>
      <trkpt lat="49.50628" lon="1.28391">
        <ele>152</ele>
        <time>2026-09-01T15:03:45.539Z</time>
      </trkpt>
      <trkpt lat="49.50628" lon="1.28399">
        <ele>152</ele>
        <time>2026-09-01T15:03:49.740Z</time>
      </trkpt>
      <trkpt lat="49.50628" lon="1.28408">
        <ele>152</ele>
        <time>2026-09-01T15:03:53.761Z</time>
      </trkpt>
      <trkpt lat="49.50628" lon="1.28415">
        <ele>152</ele>
        <time>2026-09-01T15:03:57.862Z</time>
      </trkpt>
      <trkpt lat="49.50628" lon="1.28423">
        <ele>152</ele>
        <time>2026-09-01T15:04:01.864Z</time>
      </trkpt>
      <trkpt lat="49.50628" lon="1.2843">
        <ele>152</ele>
        <time>2026-09-01T15:04:05.955Z</time>
      </trkpt>
      <trkpt lat="49.50628" lon="1.28438">
        <ele>152</ele>
        <time>2026-09-01T15:04:10.073Z</time>
      </trkpt>
      <trkpt lat="49.50628" lon="1.28447">
        <ele>152</ele>
        <time>2026-09-01T15:04:14.564Z</time>
      </trkpt>
      <trkpt lat="49.50629" lon="1.28455">
        <ele>152</ele>
        <time>2026-09-01T15:04:18.655Z</time>
      </trkpt>
      <trkpt lat="49.50629" lon="1.28463">
        <ele>152</ele>
        <time>2026-09-01T15:04:23.282Z</time>
      </trkpt>
      <trkpt lat="49.50628" lon="1.2847">
        <ele>152</ele>
        <time>2026-09-01T15:04:27.324Z</time>
      </trkpt>
      <trkpt lat="49.50628" lon="1.28478">
        <ele>152</ele>
        <time>2026-09-01T15:04:31.335Z</time>
      </trkpt>
      <trkpt lat="49.50629" lon="1.28485">
        <ele>152</ele>
        <time>2026-09-01T15:04:35.377Z</time>
      </trkpt>
      <trkpt lat="49.50629" lon="1.28492">
        <ele>151</ele>
        <time>2026-09-01T15:04:39.438Z</time>
      </trkpt>
      <trkpt lat="49.5063" lon="1.28499">
        <ele>151</ele>
        <time>2026-09-01T15:04:43.479Z</time>
      </trkpt>
      <trkpt lat="49.50628" lon="1.28509">
        <ele>151</ele>
        <time>2026-09-01T15:04:47.521Z</time>
      </trkpt>
      <trkpt lat="49.50628" lon="1.28516">
        <ele>151</ele>
        <time>2026-09-01T15:04:52.073Z</time>
      </trkpt>
      <trkpt lat="49.50629" lon="1.28522">
        <ele>151</ele>
        <time>2026-09-01T15:04:56.070Z</time>
      </trkpt>
      <trkpt lat="49.50629" lon="1.28531">
        <ele>151</ele>
        <time>2026-09-01T15:05:00.519Z</time>
      </trkpt>
      <trkpt lat="49.50629" lon="1.28543">
        <ele>151</ele>
        <time>2026-09-01T15:05:04.521Z</time>
      </trkpt>
      <trkpt lat="49.50629" lon="1.28551">
        <ele>151</ele>
        <time>2026-09-01T15:05:08.582Z</time>
      </trkpt>
      <trkpt lat="49.50628" lon="1.28559">
        <ele>151</ele>
        <time>2026-09-01T15:05:12.683Z</time>
      </trkpt>
      <trkpt lat="49.50627" lon="1.28566">
        <ele>151</ele>
        <time>2026-09-01T15:05:16.744Z</time>
      </trkpt>
      <trkpt lat="49.50626" lon="1.28575">
        <ele>150</ele>
        <time>2026-09-01T15:05:20.776Z</time>
      </trkpt>
      <trkpt lat="49.50627" lon="1.28583">
        <ele>150</ele>
        <time>2026-09-01T15:05:25.284Z</time>
      </trkpt>
      <trkpt lat="49.50627" lon="1.28591">
        <ele>150</ele>
        <time>2026-09-01T15:05:29.901Z</time>
      </trkpt>
      <trkpt lat="49.50628" lon="1.28599">
        <ele>150</ele>
        <time>2026-09-01T15:05:33.942Z</time>
      </trkpt>
      <trkpt lat="49.50628" lon="1.28606">
        <ele>150</ele>
        <time>2026-09-01T15:05:37.964Z</time>
      </trkpt>
      <trkpt lat="49.50628" lon="1.28615">
        <ele>150</ele>
        <time>2026-09-01T15:05:42.442Z</time>
      </trkpt>
      <trkpt lat="49.50628" lon="1.28622">
        <ele>150</ele>
        <time>2026-09-01T15:05:46.484Z</time>
      </trkpt>
      <trkpt lat="49.50628" lon="1.28629">
        <ele>149</ele>
        <time>2026-09-01T15:05:51.070Z</time>
      </trkpt>
      <trkpt lat="49.5063" lon="1.28636">
        <ele>149</ele>
        <time>2026-09-01T15:05:55.083Z</time>
      </trkpt>
      <trkpt lat="49.50631" lon="1.28644">
        <ele>149</ele>
        <time>2026-09-01T15:05:59.760Z</time>
      </trkpt>
      <trkpt lat="49.50631" lon="1.28652">
        <ele>149</ele>
        <time>2026-09-01T15:06:04.238Z</time>
      </trkpt>
      <trkpt lat="49.50632" lon="1.2866">
        <ele>148</ele>
        <time>2026-09-01T15:06:08.776Z</time>
      </trkpt>
      <trkpt lat="49.50633" lon="1.28666">
        <ele>148</ele>
        <time>2026-09-01T15:06:12.758Z</time>
      </trkpt>
      <trkpt lat="49.50634" lon="1.28674">
        <ele>148</ele>
        <time>2026-09-01T15:06:16.779Z</time>
      </trkpt>
      <trkpt lat="49.50635" lon="1.28682">
        <ele>147</ele>
        <time>2026-09-01T15:06:21.077Z</time>
      </trkpt>
      <trkpt lat="49.50636" lon="1.2869">
        <ele>147</ele>
        <time>2026-09-01T15:06:25.200Z</time>
      </trkpt>
      <trkpt lat="49.50637" lon="1.28698">
        <ele>147</ele>
        <time>2026-09-01T15:06:29.778Z</time>
      </trkpt>
      <trkpt lat="49.50638" lon="1.28706">
        <ele>147</ele>
        <time>2026-09-01T15:06:34.296Z</time>
      </trkpt>
      <trkpt lat="49.50639" lon="1.28714">
        <ele>147</ele>
        <time>2026-09-01T15:06:39.079Z</time>
      </trkpt>
      <trkpt lat="49.5064" lon="1.28722">
        <ele>147</ele>
        <time>2026-09-01T15:06:43.620Z</time>
      </trkpt>
      <trkpt lat="49.50641" lon="1.28729">
        <ele>147</ele>
        <time>2026-09-01T15:06:47.701Z</time>
      </trkpt>
      <trkpt lat="49.50641" lon="1.28737">
        <ele>146</ele>
        <time>2026-09-01T15:06:51.861Z</time>
      </trkpt>
      <trkpt lat="49.50641" lon="1.28744">
        <ele>146</ele>
        <time>2026-09-01T15:06:55.942Z</time>
      </trkpt>
      <trkpt lat="49.5064" lon="1.28753">
        <ele>146</ele>
        <time>2026-09-01T15:07:00.024Z</time>
      </trkpt>
      <trkpt lat="49.5064" lon="1.2876">
        <ele>146</ele>
        <time>2026-09-01T15:07:04.072Z</time>
      </trkpt>
      <trkpt lat="49.50641" lon="1.28767">
        <ele>144</ele>
        <time>2026-09-01T15:07:08.235Z</time>
      </trkpt>
      <trkpt lat="49.50643" lon="1.28774">
        <ele>144</ele>
        <time>2026-09-01T15:07:12.317Z</time>
      </trkpt>
      <trkpt lat="49.50644" lon="1.28781">
        <ele>144</ele>
        <time>2026-09-01T15:07:16.398Z</time>
      </trkpt>
      <trkpt lat="49.50645" lon="1.28788">
        <ele>144</ele>
        <time>2026-09-01T15:07:20.558Z</time>
      </trkpt>
      <trkpt lat="49.50645" lon="1.28797">
        <ele>144</ele>
        <time>2026-09-01T15:07:25.070Z</time>
      </trkpt>
      <trkpt lat="49.50646" lon="1.28804">
        <ele>144</ele>
        <time>2026-09-01T15:07:29.074Z</time>
      </trkpt>
      <trkpt lat="49.50646" lon="1.28812">
        <ele>144</ele>
        <time>2026-09-01T15:07:33.715Z</time>
      </trkpt>
      <trkpt lat="49.50647" lon="1.28819">
        <ele>144</ele>
        <time>2026-09-01T15:07:37.796Z</time>
      </trkpt>
      <trkpt lat="49.50648" lon="1.28826">
        <ele>144</ele>
        <time>2026-09-01T15:07:41.857Z</time>
      </trkpt>
      <trkpt lat="49.50649" lon="1.28832">
        <ele>144</ele>
        <time>2026-09-01T15:07:46.038Z</time>
      </trkpt>
      <trkpt lat="49.5065" lon="1.2884">
        <ele>144</ele>
        <time>2026-09-01T15:07:50.635Z</time>
      </trkpt>
      <trkpt lat="49.50651" lon="1.28847">
        <ele>144</ele>
        <time>2026-09-01T15:07:54.677Z</time>
      </trkpt>
      <trkpt lat="49.50651" lon="1.28854">
        <ele>144</ele>
        <time>2026-09-01T15:07:58.818Z</time>
      </trkpt>
      <trkpt lat="49.50651" lon="1.28861">
        <ele>144</ele>
        <time>2026-09-01T15:08:02.819Z</time>
      </trkpt>
      <trkpt lat="49.50652" lon="1.28868">
        <ele>144</ele>
        <time>2026-09-01T15:08:07Z</time>
      </trkpt>
      <trkpt lat="49.50652" lon="1.28877">
        <ele>143</ele>
        <time>2026-09-01T15:08:11.577Z</time>
      </trkpt>
      <trkpt lat="49.50653" lon="1.28885">
        <ele>143</ele>
        <time>2026-09-01T15:08:15.976Z</time>
      </trkpt>
      <trkpt lat="49.50652" lon="1.28893">
        <ele>143</ele>
        <time>2026-09-01T15:08:20.076Z</time>
      </trkpt>
      <trkpt lat="49.50652" lon="1.28901">
        <ele>143</ele>
        <time>2026-09-01T15:08:24.086Z</time>
      </trkpt>
      <trkpt lat="49.50651" lon="1.2891">
        <ele>141</ele>
        <time>2026-09-01T15:08:28.736Z</time>
      </trkpt>
      <trkpt lat="49.5065" lon="1.28918">
        <ele>141</ele>
        <time>2026-09-01T15:08:33.224Z</time>
      </trkpt>
      <trkpt lat="49.50648" lon="1.28925">
        <ele>141</ele>
        <time>2026-09-01T15:08:37.822Z</time>
      </trkpt>
      <trkpt lat="49.50646" lon="1.28931">
        <ele>139</ele>
        <time>2026-09-01T15:08:41.942Z</time>
      </trkpt>
      <trkpt lat="49.50645" lon="1.28937">
        <ele>139</ele>
        <time>2026-09-01T15:08:45.964Z</time>
      </trkpt>
      <trkpt lat="49.50643" lon="1.28944">
        <ele>139</ele>
        <time>2026-09-01T15:08:50.055Z</time>
      </trkpt>
      <trkpt lat="49.50641" lon="1.28952">
        <ele>139</ele>
        <time>2026-09-01T15:08:54.078Z</time>
      </trkpt>
      <trkpt lat="49.50641" lon="1.28959">
        <ele>138</ele>
        <time>2026-09-01T15:08:58.084Z</time>
      </trkpt>
      <trkpt lat="49.5064" lon="1.28966">
        <ele>138</ele>
        <time>2026-09-01T15:09:02.358Z</time>
      </trkpt>
      <trkpt lat="49.50639" lon="1.28972">
        <ele>138</ele>
        <time>2026-09-01T15:09:06.499Z</time>
      </trkpt>
      <trkpt lat="49.50638" lon="1.28979">
        <ele>138</ele>
        <time>2026-09-01T15:09:10.907Z</time>
      </trkpt>
      <trkpt lat="49.50638" lon="1.28986">
        <ele>137</ele>
        <time>2026-09-01T15:09:14.979Z</time>
      </trkpt>
      <trkpt lat="49.50639" lon="1.28994">
        <ele>137</ele>
        <time>2026-09-01T15:09:19.556Z</time>
      </trkpt>
      <trkpt lat="49.50639" lon="1.29001">
        <ele>137</ele>
        <time>2026-09-01T15:09:23.657Z</time>
      </trkpt>
      <trkpt lat="49.50638" lon="1.29008">
        <ele>137</ele>
        <time>2026-09-01T15:09:27.659Z</time>
      </trkpt>
      <trkpt lat="49.50639" lon="1.29015">
        <ele>136</ele>
        <time>2026-09-01T15:09:31.700Z</time>
      </trkpt>
      <trkpt lat="49.5064" lon="1.29021">
        <ele>136</ele>
        <time>2026-09-01T15:09:35.781Z</time>
      </trkpt>
      <trkpt lat="49.50639" lon="1.29029">
        <ele>136</ele>
        <time>2026-09-01T15:09:40.379Z</time>
      </trkpt>
      <trkpt lat="49.50639" lon="1.29036">
        <ele>136</ele>
        <time>2026-09-01T15:09:44.937Z</time>
      </trkpt>
      <trkpt lat="49.50638" lon="1.29041">
        <ele>136</ele>
        <time>2026-09-01T15:09:49.080Z</time>
      </trkpt>
      <trkpt lat="49.50636" lon="1.29047">
        <ele>135</ele>
        <time>2026-09-01T15:09:53.337Z</time>
      </trkpt>
      <trkpt lat="49.50636" lon="1.29053">
        <ele>135</ele>
        <time>2026-09-01T15:09:57.438Z</time>
      </trkpt>
      <trkpt lat="49.50635" lon="1.2906">
        <ele>135</ele>
        <time>2026-09-01T15:10:01.579Z</time>
      </trkpt>
      <trkpt lat="49.50635" lon="1.29066">
        <ele>135</ele>
        <time>2026-09-01T15:10:05.719Z</time>
      </trkpt>
      <trkpt lat="49.50636" lon="1.29073">
        <ele>133</ele>
        <time>2026-09-01T15:10:09.860Z</time>
      </trkpt>
      <trkpt lat="49.50634" lon="1.2908">
        <ele>133</ele>
        <time>2026-09-01T15:10:14.041Z</time>
      </trkpt>
      <trkpt lat="49.50631" lon="1.29087">
        <ele>133</ele>
        <time>2026-09-01T15:10:18.074Z</time>
      </trkpt>
      <trkpt lat="49.50629" lon="1.29094">
        <ele>133</ele>
        <time>2026-09-01T15:10:22.302Z</time>
      </trkpt>
      <trkpt lat="49.50628" lon="1.29099">
        <ele>131</ele>
        <time>2026-09-01T15:10:26.463Z</time>
      </trkpt>
      <trkpt lat="49.50628" lon="1.29106">
        <ele>131</ele>
        <time>2026-09-01T15:10:30.544Z</time>
      </trkpt>
      <trkpt lat="49.50629" lon="1.29114">
        <ele>131</ele>
        <time>2026-09-01T15:10:35.073Z</time>
      </trkpt>
      <trkpt lat="49.50629" lon="1.29121">
        <ele>131</ele>
        <time>2026-09-01T15:10:39.222Z</time>
      </trkpt>
      <trkpt lat="49.5063" lon="1.29127">
        <ele>127</ele>
        <time>2026-09-01T15:10:43.304Z</time>
      </trkpt>
      <trkpt lat="49.50631" lon="1.29132">
        <ele>127</ele>
        <time>2026-09-01T15:10:47.464Z</time>
      </trkpt>
      <trkpt lat="49.50632" lon="1.29139">
        <ele>127</ele>
        <time>2026-09-01T15:10:52.072Z</time>
      </trkpt>
      <trkpt lat="49.50634" lon="1.29154">
        <ele>123</ele>
        <time>2026-09-01T15:11:14.066Z</time>
      </trkpt>
      <trkpt lat="49.50634" lon="1.29155">
        <ele>123</ele>
        <time>2026-09-01T15:11:19.080Z</time>
      </trkpt>
      <trkpt lat="49.50633" lon="1.29155">
        <ele>123</ele>
        <time>2026-09-01T15:11:24.069Z</time>
      </trkpt>
      <trkpt lat="49.50633" lon="1.29156">
        <ele>123</ele>
        <time>2026-09-01T15:11:29.076Z</time>
      </trkpt>
      <trkpt lat="49.50633" lon="1.2916">
        <ele>123</ele>
        <time>2026-09-01T15:11:34.015Z</time>
      </trkpt>
      <trkpt lat="49.50632" lon="1.29168">
        <ele>123</ele>
        <time>2026-09-01T15:11:38.325Z</time>
      </trkpt>
      <trkpt lat="49.50632" lon="1.29174">
        <ele>123</ele>
        <time>2026-09-01T15:11:42.455Z</time>
      </trkpt>
      <trkpt lat="49.50631" lon="1.29181">
        <ele>121</ele>
        <time>2026-09-01T15:11:46.696Z</time>
      </trkpt>
      <trkpt lat="49.50631" lon="1.29187">
        <ele>121</ele>
        <time>2026-09-01T15:11:50.916Z</time>
      </trkpt>
      <trkpt lat="49.50631" lon="1.29194">
        <ele>121</ele>
        <time>2026-09-01T15:11:55.424Z</time>
      </trkpt>
      <trkpt lat="49.5063" lon="1.29199">
        <ele>121</ele>
        <time>2026-09-01T15:11:59.455Z</time>
      </trkpt>
      <trkpt lat="49.5063" lon="1.29206">
        <ele>121</ele>
        <time>2026-09-01T15:12:03.556Z</time>
      </trkpt>
      <trkpt lat="49.50629" lon="1.29213">
        <ele>119</ele>
        <time>2026-09-01T15:12:07.935Z</time>
      </trkpt>
      <trkpt lat="49.50629" lon="1.29221">
        <ele>119</ele>
        <time>2026-09-01T15:12:12.344Z</time>
      </trkpt>
      <trkpt lat="49.5063" lon="1.2923">
        <ele>119</ele>
        <time>2026-09-01T15:12:16.584Z</time>
      </trkpt>
      <trkpt lat="49.50628" lon="1.29238">
        <ele>116</ele>
        <time>2026-09-01T15:12:21.082Z</time>
      </trkpt>
      <trkpt lat="49.50627" lon="1.29245">
        <ele>116</ele>
        <time>2026-09-01T15:12:25.078Z</time>
      </trkpt>
      <trkpt lat="49.50626" lon="1.29252">
        <ele>116</ele>
        <time>2026-09-01T15:12:29.781Z</time>
      </trkpt>
      <trkpt lat="49.50626" lon="1.29259">
        <ele>116</ele>
        <time>2026-09-01T15:12:33.802Z</time>
      </trkpt>
      <trkpt lat="49.50625" lon="1.29265">
        <ele>115</ele>
        <time>2026-09-01T15:12:37.864Z</time>
      </trkpt>
      <trkpt lat="49.50626" lon="1.29271">
        <ele>115</ele>
        <time>2026-09-01T15:12:41.935Z</time>
      </trkpt>
      <trkpt lat="49.50626" lon="1.29277">
        <ele>115</ele>
        <time>2026-09-01T15:12:46.016Z</time>
      </trkpt>
      <trkpt lat="49.50626" lon="1.29285">
        <ele>115</ele>
        <time>2026-09-01T15:12:50.623Z</time>
      </trkpt>
      <trkpt lat="49.50625" lon="1.29292">
        <ele>116</ele>
        <time>2026-09-01T15:12:54.744Z</time>
      </trkpt>
      <trkpt lat="49.50623" lon="1.29299">
        <ele>116</ele>
        <time>2026-09-01T15:12:58.756Z</time>
      </trkpt>
      <trkpt lat="49.50621" lon="1.29305">
        <ele>116</ele>
        <time>2026-09-01T15:13:02.877Z</time>
      </trkpt>
      <trkpt lat="49.50619" lon="1.29311">
        <ele>116</ele>
        <time>2026-09-01T15:13:06.958Z</time>
      </trkpt>
      <trkpt lat="49.50617" lon="1.29318">
        <ele>116</ele>
        <time>2026-09-01T15:13:11.059Z</time>
      </trkpt>
      <trkpt lat="49.50615" lon="1.29325">
        <ele>115</ele>
        <time>2026-09-01T15:13:15.756Z</time>
      </trkpt>
      <trkpt lat="49.50615" lon="1.2933">
        <ele>115</ele>
        <time>2026-09-01T15:13:20.074Z</time>
      </trkpt>
      <trkpt lat="49.50614" lon="1.29333">
        <ele>115</ele>
        <time>2026-09-01T15:13:24.078Z</time>
      </trkpt>
      <trkpt lat="49.50612" lon="1.2934">
        <ele>115</ele>
        <time>2026-09-01T15:13:28.396Z</time>
      </trkpt>
      <trkpt lat="49.50609" lon="1.29347">
        <ele>115</ele>
        <time>2026-09-01T15:13:32.517Z</time>
      </trkpt>
      <trkpt lat="49.50607" lon="1.29353">
        <ele>114</ele>
        <time>2026-09-01T15:13:36.618Z</time>
      </trkpt>
      <trkpt lat="49.50606" lon="1.2936">
        <ele>114</ele>
        <time>2026-09-01T15:13:40.620Z</time>
      </trkpt>
      <trkpt lat="49.50604" lon="1.29366">
        <ele>114</ele>
        <time>2026-09-01T15:13:44.860Z</time>
      </trkpt>
      <trkpt lat="49.50603" lon="1.29372">
        <ele>114</ele>
        <time>2026-09-01T15:13:49.077Z</time>
      </trkpt>
      <trkpt lat="49.50603" lon="1.29379">
        <ele>113</ele>
        <time>2026-09-01T15:13:53.360Z</time>
      </trkpt>
      <trkpt lat="49.50601" lon="1.29384">
        <ele>113</ele>
        <time>2026-09-01T15:13:57.640Z</time>
      </trkpt>
      <trkpt lat="49.50598" lon="1.29391">
        <ele>113</ele>
        <time>2026-09-01T15:14:01.919Z</time>
      </trkpt>
      <trkpt lat="49.50596" lon="1.29397">
        <ele>113</ele>
        <time>2026-09-01T15:14:06.079Z</time>
      </trkpt>
      <trkpt lat="49.50595" lon="1.29404">
        <ele>110</ele>
        <time>2026-09-01T15:14:10.280Z</time>
      </trkpt>
      <trkpt lat="49.50594" lon="1.2941">
        <ele>110</ele>
        <time>2026-09-01T15:14:14.342Z</time>
      </trkpt>
      <trkpt lat="49.50592" lon="1.29417">
        <ele>110</ele>
        <time>2026-09-01T15:14:18.522Z</time>
      </trkpt>
      <trkpt lat="49.50591" lon="1.29423">
        <ele>110</ele>
        <time>2026-09-01T15:14:22.623Z</time>
      </trkpt>
      <trkpt lat="49.5059" lon="1.2943">
        <ele>110</ele>
        <time>2026-09-01T15:14:26.804Z</time>
      </trkpt>
      <trkpt lat="49.50588" lon="1.29436">
        <ele>108</ele>
        <time>2026-09-01T15:14:31.004Z</time>
      </trkpt>
      <trkpt lat="49.50586" lon="1.29443">
        <ele>108</ele>
        <time>2026-09-01T15:14:35.075Z</time>
      </trkpt>
      <trkpt lat="49.50582" lon="1.2945">
        <ele>108</ele>
        <time>2026-09-01T15:14:39.782Z</time>
      </trkpt>
      <trkpt lat="49.50581" lon="1.29456">
        <ele>108</ele>
        <time>2026-09-01T15:14:43.883Z</time>
      </trkpt>
      <trkpt lat="49.50579" lon="1.29463">
        <ele>106</ele>
        <time>2026-09-01T15:14:48.599Z</time>
      </trkpt>
      <trkpt lat="49.50578" lon="1.29471">
        <ele>106</ele>
        <time>2026-09-01T15:14:52.681Z</time>
      </trkpt>
      <trkpt lat="49.50576" lon="1.29478">
        <ele>106</ele>
        <time>2026-09-01T15:14:57.238Z</time>
      </trkpt>
      <trkpt lat="49.50574" lon="1.29487">
        <ele>107</ele>
        <time>2026-09-01T15:15:01.756Z</time>
      </trkpt>
      <trkpt lat="49.50572" lon="1.29494">
        <ele>107</ele>
        <time>2026-09-01T15:15:05.798Z</time>
      </trkpt>
      <trkpt lat="49.50571" lon="1.29501">
        <ele>107</ele>
        <time>2026-09-01T15:15:09.939Z</time>
      </trkpt>
      <trkpt lat="49.5057" lon="1.29509">
        <ele>107</ele>
        <time>2026-09-01T15:15:14.496Z</time>
      </trkpt>
      <trkpt lat="49.50567" lon="1.29516">
        <ele>108</ele>
        <time>2026-09-01T15:15:18.498Z</time>
      </trkpt>
      <trkpt lat="49.50564" lon="1.29522">
        <ele>108</ele>
        <time>2026-09-01T15:15:22.520Z</time>
      </trkpt>
      <trkpt lat="49.50562" lon="1.29528">
        <ele>108</ele>
        <time>2026-09-01T15:15:26.621Z</time>
      </trkpt>
      <trkpt lat="49.50561" lon="1.29535">
        <ele>108</ele>
        <time>2026-09-01T15:15:31.070Z</time>
      </trkpt>
      <trkpt lat="49.5056" lon="1.29541">
        <ele>108</ele>
        <time>2026-09-01T15:15:35.071Z</time>
      </trkpt>
      <trkpt lat="49.50557" lon="1.29545">
        <ele>107</ele>
        <time>2026-09-01T15:15:39.261Z</time>
      </trkpt>
      <trkpt lat="49.50557" lon="1.29552">
        <ele>107</ele>
        <time>2026-09-01T15:15:43.799Z</time>
      </trkpt>
      <trkpt lat="49.50556" lon="1.29559">
        <ele>107</ele>
        <time>2026-09-01T15:15:48.337Z</time>
      </trkpt>
      <trkpt lat="49.50554" lon="1.29568">
        <ele>107</ele>
        <time>2026-09-01T15:15:52.945Z</time>
      </trkpt>
      <trkpt lat="49.50551" lon="1.29572">
        <ele>105</ele>
        <time>2026-09-01T15:15:57.036Z</time>
      </trkpt>
      <trkpt lat="49.50547" lon="1.29578">
        <ele>105</ele>
        <time>2026-09-01T15:16:01.080Z</time>
      </trkpt>
      <trkpt lat="49.50544" lon="1.29583">
        <ele>105</ele>
        <time>2026-09-01T15:16:05.317Z</time>
      </trkpt>
      <trkpt lat="49.50541" lon="1.29588">
        <ele>107</ele>
        <time>2026-09-01T15:16:09.418Z</time>
      </trkpt>
      <trkpt lat="49.50537" lon="1.29593">
        <ele>107</ele>
        <time>2026-09-01T15:16:13.479Z</time>
      </trkpt>
      <trkpt lat="49.50532" lon="1.29599">
        <ele>107</ele>
        <time>2026-09-01T15:16:17.561Z</time>
      </trkpt>
      <trkpt lat="49.50528" lon="1.29606">
        <ele>107</ele>
        <time>2026-09-01T15:16:22.068Z</time>
      </trkpt>
      <trkpt lat="49.50524" lon="1.29609">
        <ele>107</ele>
        <time>2026-09-01T15:16:26.061Z</time>
      </trkpt>
      <trkpt lat="49.5052" lon="1.29617">
        <ele>107</ele>
        <time>2026-09-01T15:16:30.658Z</time>
      </trkpt>
      <trkpt lat="49.50517" lon="1.29623">
        <ele>107</ele>
        <time>2026-09-01T15:16:34.739Z</time>
      </trkpt>
      <trkpt lat="49.50515" lon="1.29628">
        <ele>107</ele>
        <time>2026-09-01T15:16:38.920Z</time>
      </trkpt>
      <trkpt lat="49.50513" lon="1.29633">
        <ele>107</ele>
        <time>2026-09-01T15:16:43.001Z</time>
      </trkpt>
      <trkpt lat="49.50509" lon="1.2964">
        <ele>107</ele>
        <time>2026-09-01T15:16:47.579Z</time>
      </trkpt>
      <trkpt lat="49.50507" lon="1.29642">
        <ele>107</ele>
        <time>2026-09-01T15:16:49.942Z</time>
      </trkpt>
      <trkpt lat="49.50504" lon="1.29647">
        <ele>107</ele>
        <time>2026-09-01T15:16:54.004Z</time>
      </trkpt>
      <trkpt lat="49.50501" lon="1.29652">
        <ele>107</ele>
        <time>2026-09-01T15:16:58.323Z</time>
      </trkpt>
      <trkpt lat="49.50498" lon="1.29657">
        <ele>106</ele>
        <time>2026-09-01T15:17:02.683Z</time>
      </trkpt>
      <trkpt lat="49.50495" lon="1.29663">
        <ele>106</ele>
        <time>2026-09-01T15:17:07.068Z</time>
      </trkpt>
      <trkpt lat="49.50493" lon="1.2967">
        <ele>106</ele>
        <time>2026-09-01T15:17:11.521Z</time>
      </trkpt>
      <trkpt lat="49.50488" lon="1.29675">
        <ele>106</ele>
        <time>2026-09-01T15:17:15.980Z</time>
      </trkpt>
      <trkpt lat="49.50483" lon="1.2968">
        <ele>106</ele>
        <time>2026-09-01T15:17:20.499Z</time>
      </trkpt>
      <trkpt lat="49.5048" lon="1.29684">
        <ele>105</ele>
        <time>2026-09-01T15:17:24.541Z</time>
      </trkpt>
      <trkpt lat="49.50476" lon="1.29689">
        <ele>105</ele>
        <time>2026-09-01T15:17:29.074Z</time>
      </trkpt>
      <trkpt lat="49.50472" lon="1.29694">
        <ele>105</ele>
        <time>2026-09-01T15:17:33.718Z</time>
      </trkpt>
      <trkpt lat="49.50467" lon="1.29699">
        <ele>105</ele>
        <time>2026-09-01T15:17:38.236Z</time>
      </trkpt>
      <trkpt lat="49.50463" lon="1.29703">
        <ele>105</ele>
        <time>2026-09-01T15:17:42.259Z</time>
      </trkpt>
      <trkpt lat="49.50458" lon="1.29707">
        <ele>105</ele>
        <time>2026-09-01T15:17:46.837Z</time>
      </trkpt>
      <trkpt lat="49.50454" lon="1.29712">
        <ele>105</ele>
        <time>2026-09-01T15:17:51.376Z</time>
      </trkpt>
      <trkpt lat="49.5045" lon="1.29718">
        <ele>105</ele>
        <time>2026-09-01T15:17:55.924Z</time>
      </trkpt>
      <trkpt lat="49.50447" lon="1.29722">
        <ele>105</ele>
        <time>2026-09-01T15:17:59.996Z</time>
      </trkpt>
      <trkpt lat="49.50443" lon="1.29727">
        <ele>105</ele>
        <time>2026-09-01T15:18:04.118Z</time>
      </trkpt>
      <trkpt lat="49.50439" lon="1.29733">
        <ele>105</ele>
        <time>2026-09-01T15:18:08.776Z</time>
      </trkpt>
      <trkpt lat="49.50439" lon="1.29741">
        <ele>104</ele>
        <time>2026-09-01T15:18:12.838Z</time>
      </trkpt>
      <trkpt lat="49.50436" lon="1.29747">
        <ele>104</ele>
        <time>2026-09-01T15:18:16.920Z</time>
      </trkpt>
      <trkpt lat="49.50434" lon="1.29755">
        <ele>104</ele>
        <time>2026-09-01T15:18:21.657Z</time>
      </trkpt>
    </trkseg>
  </trk>
</gpx>